     2              OBSERVATION DATA    GPS                 RINEX VERSION / TYPE
teqc 1998Mar9 19980311 23:37:55UTC                          PGM / RUN BY / DATE
                                                            COMMENT
Original Marker Name: unknown                               COMMENT
Campaign Name: Cholame 1989                                 COMMENT
4-Character Station Name: P807                              COMMENT
6-Character Antenna Code: TI4100                            COMMENT
Vertical Measurement Point: PAE                             COMMENT
Vertical Offset to Rinex Ref. Point: 0.0000                 COMMENT
Radial Measurement Point: PAE                               COMMENT
Radial Offset to Rinex Ref. Point: 0.0842                   COMMENT
Antenna Height from Field Measurement: 1.2390 m             COMMENT
Original XYZ: 0.0000 0.0000 0.0000                          COMMENT
New XYZ position is based on association with SCEC monument COMMENT
E1F1F2B2+0011. Position of that monument is believed to be  COMMENT
valid to within 1 m horizontally; vertical accuracy         COMMENT
should be no worse than 3-times this value.                 COMMENT
                                                            COMMENT
Revised Rinex header created by UCSD GPS archive for        COMMENT
GSAC on 14-Apr-1999 (1999:104) 22:34:35 GMT                 COMMENT
For assistance contact dagnew@ucsd.edu or hjohnson@ucsd.edu COMMENT
                                                            COMMENT
P807                                                        MARKER NAME
unknown UCLA                                                OBSERVER / AGENCY
UN06 TI 4100 2.1                                            REC # / TYPE / VERS
UN06 TI 4100                                                ANT # / TYPE
 -2584426.0000 -4502907.0000  3692603.0000                  APPROX POSITION XYZ
        1.2361        0.0000        0.0000                  ANTENNA: DELTA H/E/N
     1     1     0                                          WAVELENGTH FACT L1/2
     4    P1    P2    L1    L2                              # / TYPES OF OBSERV
     0                                                      INTERVAL
  1989    11    22     9    29   59.000000                  TIME OF FIRST OBS
  1989    11    22    16    20   59.000000                  TIME OF LAST OBS
     0                                                      # OF SATELLITES
                                                            END OF HEADER
 89 11 22  9 29 59.2400000  0  3G 2G 6G11
                                    267942.473 8
  22085166.122    22085168.888      745283.705 9  -1220459.235 9
  23971571.514    23971574.171      417796.780 9  -1410600.150 9
 89 11 22  9 30 29.2400000  0  3G 2G 6G11
  22900689.972    22900691.791      344253.808 9     79360.947 8
  22074430.908    22074432.893      688867.396 9  -1264419.998 8
  23950529.922    23950533.558      307222.693 9  -1496761.763 9
 89 11 22  9 30 59.2400000  0  3G 2G 6G11
  22915227.770    22915229.119      420653.485 9    138893.142 9
  22063713.154    22063715.641      632547.582 9  -1308305.551 8
  23929516.571    23929519.141      196793.627 9  -1582810.377 8
 89 11 22  9 31 29.2400000  0  3G 2G 6G11
  22929783.491    22929785.219      497140.926 8    198493.717 8
  22053015.913    22053015.975      576325.585 1  -1352114.858 1
  23908529.371    23908533.624       86512.643 9  -1668743.619 9
 89 11 22  9 31 59.0800000  0  3G 2G 6G11
  22944277.166    22944278.690      573306.549 9    257843.534 8
  22042391.621    22042401.567      520501.584 1  -1395614.113 1
  23887684.718    23887687.814      -23030.556 9  -1754101.947 9
 89 11 22  9 32 29.0800000  0  3G 2G 6G11
  22958864.406    22958866.037      649965.294 9    317577.618 9
  22031731.280    22031732.396      464478.123 9  -1439268.768 8
  23866755.988    23866760.892     -133007.518 9  -1839798.257 9
 89 11 22  9 32 59.0800000  0  3G 2G 6G11
  22973469.466    22973470.325      726708.175 9    377377.257 9
  22021088.936    22021091.365      408556.047 8  -1482844.404 7
  23845858.224    23845862.293     -242827.600 9  -1925372.322 9
 89 11 22  9 33 29.0800000  0  3G 2G 6G11
  22988088.356    22988089.874      803534.170 8    437241.656 8
  22010466.701    22010469.854      352736.456 8  -1526340.183 8
  23824990.558    23824994.923     -352487.964 8  -2010821.932 9
 89 11 22  9 33 59.0800000  0  3G 2G 6G11
  23002723.613    23002725.093      880441.794 9    497169.639 9
  21999865.258    21999865.699      297020.624 8  -1569755.100 8
  23804153.051    23804158.420     -461985.583 8  -2096144.719 8
 89 11 22  9 34 29.0800000  0  3G 2G 6G11
  23017373.920    23017375.281      957430.497 9    557160.816 8
  21989281.620    21989284.216      241409.796 9  -1613088.204 8
  23783348.208    23783352.688     -571317.075 8  -2181338.021 9
 89 11 22  9 34 59.0800000  0  3G 2G 6G11
  23032039.885    23032040.241     1034499.141 8    617214.286 9
  21978720.657    21978722.021      185905.356 9  -1656338.414 8
  23762575.895    23762579.736     -680479.763 8  -2266399.828 9
 89 11 22  9 35 59.0800000  0  3G 2G 6G11
  23061415.287    23061417.199     1188871.959 9    737504.724 9
  21957657.762    21957658.753       75220.228 9  -1742586.596 7
  23721129.546    23721131.676     -898287.551 9  -2436120.141 8
 89 11 22  9 36 29.0800000  0  4G 2G 6G11G 9
  23076125.619    23076127.556     1266173.580 9    797739.739 9
  21947156.951    21947159.089       20042.041 9  -1785582.614 9
  23700455.679    23700459.829    -1006926.528 9  -2520773.917 8
  24776180.365    24776165.670    -2289917.705 8   2946881.135 1
 89 11 22  9 36 59.0800000  0  4G 2G 6G11G 9
  23090848.746    23090852.018     1343550.847 9    858033.682 9
  21936677.987    21936681.566      -35024.524 9  -1828491.609 9
  23679815.741    23679819.451    -1115384.450 9  -2605286.583 8
  24759851.591    24759852.792    -2375717.062 8   2880024.192 8
 89 11 22  9 37 29.0800000  0  4G 2G 6G11G 9
  23105588.698    23105588.800     1421002.711 9    918385.774 8
  21926221.424    21926223.472      -89978.409 9  -1871312.802 8
  23659212.896    23659215.955    -1223658.976 9  -2689656.349 8
  24743516.051    24743518.351    -2461560.899 7   2813132.878 8
 89 11 22  9 37 59.0800000  0  4G 2G 6G11G 9
  23120340.558    23120342.905     1498528.019 9    978795.083 9
  21915785.860    21915787.659     -144818.405 9  -1914045.279 9
  23638643.759    23638647.745    -1331747.232 9  -2773880.999 8
  24727172.125    24727174.132    -2547448.979 7   2746207.107 9
 89 11 22  9 38 29.0800000  0  4G 2G 6G11G 9
  23135107.004    23135109.128     1576125.791 8   1039260.865 9
  21905372.049    21905373.966     -199542.896 8  -1956687.745 8
  23618110.507    23618116.222    -1439646.037 8  -2857957.982 8
  24710817.991    24710822.280    -2633380.392 6   2679247.577 9
 89 11 22  9 38 59.0800000  0  4G 2G 6G11G 9
  23149886.292    23149889.387     1653794.809 8   1099782.159 8
  21894980.283    21894982.704     -254150.831 9  -1999239.366 9
  23597614.718    23597619.684    -1547352.595 8  -2941885.156 9
  24694460.520    24694462.390    -2719354.666 7   2612254.703 8
 89 11 22  9 39 29.0800000  0  4G 2G 6G11G 9
  23164680.889    23164682.387     1731534.185 9   1160358.277 9
  21884611.482    21884613.291     -308640.495 9  -2041698.837 9
  23577156.641    23577161.169    -1654863.506 9  -3025659.878 8
  24678090.351    24678093.089    -2805370.982 7   2545228.975 8
 89 11 22  9 39 59.0800000  0  4G 2G 6G11G 9
  23179487.185    23179488.898     1809343.192 8   1220988.649 9
  21874264.851    21874266.084     -363010.777 9  -2084065.276 8
  23556733.773    23556739.849    -1762175.817 8  -3109279.862 9
  24661714.892    24661717.370    -2891429.053 7   2478170.757 9
 89 11 22  9 40 29.0800000  0  4G 2G 6G11G 9
  23194306.361    23194309.031     1887220.851 9   1281672.512 8
  21863940.635    21863943.657     -417260.158 9  -2126337.529 8
  23536352.961    23536357.065    -1869286.982 8  -3192743.029 9
  24645330.663    24645333.357    -2977528.188 7   2411080.531 8
 89 11 22  9 40 59.0800000  0  4G 2G 6G11G 9
  23209139.317    23209141.616     1965166.328 9   1342409.240 8
  21853641.506    21853643.737     -471387.252 9  -2168514.463 9
  23516008.769    23516013.897    -1976193.688 8  -3276046.911 9
  24628939.911    24628941.521    -3063667.585 7   2343958.917 8
 89 11 22  9 41 29.0800000  0  4G 2G 6G11G 9
  23223984.800    23223986.342     2043178.002 9   1403197.539 9
  21843365.593    21843367.320     -525390.674 9  -2210595.052 9
  23495706.105    23495709.810    -2082893.114 8  -3359189.273 8
  24612542.190    24612542.800    -3149846.776 8   2276806.306 9
 89 11 22  9 41 59.0800000  0  4G 2G 6G11G 9
  23238842.205    23238844.351     2121254.988 9   1464036.732 9
  21833112.069    21833113.721     -579269.073 9  -2252578.220 9
  23475443.489    23475446.072    -2189382.528 9  -3442168.014 9
  24596135.306    24596135.315    -3236065.336 8   2209623.006 8
 89 11 22  9 42 29.0800000  0  4G 2G 6G11G 9
  23253711.289    23253714.432     2199396.990 8   1524926.584 9
  21822883.697    21822885.938     -633021.068 9  -2294462.893 9
  23455218.619    23455221.752    -2295659.003 9  -3524980.850 9
  24579720.384    24579720.758    -3322322.447 9   2142409.663 8
 89 11 22  9 42 59.0800000  0  4G 2G 6G11G 9
  23268594.269    23268596.592     2277602.851 8   1585866.191 8
  21812679.989    21812681.803     -686645.108 9  -2336247.844 9
  23435035.189    23435038.042    -2401719.492 9  -3607625.367 9
  24563299.706    24563300.232    -3408617.657 9   2075166.623 8
 89 11 22  9 43 29.0800000  0  4G 2G 6G11G 9
  23283488.814    23283489.911     2355871.179 9   1646854.470 9
  21802500.118    21802500.620     -740139.844 9  -2377932.048 8
  23414893.889    23414897.307    -2507560.868 9  -3690099.175 9
  24546869.043    24546871.507    -3494950.102 9   2007894.591 9
 89 11 22  9 43 59.0800000  0  4G 2G 6G11G 9
  23298394.143    23298395.494     2434201.162 9   1707890.804 9
  21792343.947    21792345.708     -793503.814 9  -2419514.348 8
  23394795.573    23394799.776    -2613180.398 9  -3772400.124 8
  24530434.143    24530436.105    -3581319.013 9   1940594.140 9
 89 11 22  9 44 29.0800000  0  4G 2G 6G11G 9
  23313311.313    23313313.364     2512591.936 9   1768974.489 9
  21782214.464    21782216.875     -846735.744 9  -2460993.792 8
  23374739.850    23374742.551    -2718575.200 9  -3854525.922 8
  24513991.892    24513993.110    -3667724.297 9   1873265.333 8
 89 11 22  9 44 59.0800000  0  4G 2G 6G11G 9
  23328239.511    23328241.666     2591042.956 9   1830105.140 9
  21772111.144    21772112.918     -899833.912 9  -2502368.983 9
  23354727.328    23354730.064    -2823742.061 9  -3936474.133 8
  24497543.040    24497544.321    -3754164.675 9   1805909.210 8
 89 11 22  9 45 29.0800000  0  4G 2G 6G11G 9
  23343179.289    23343182.671     2669552.292 8   1891281.217 9
  21762031.437    21762033.783     -952797.032 9  -2543638.934 7
  23334756.846    23334761.675    -2928678.459 9  -4018242.774 8
  24481087.514    24481089.058    -3840640.091 9   1738525.733 7
 89 11 22  9 45 59.0800000  0  4G 2G 6G11G 9
  23358130.649    23358133.640     2748119.721 8   1952502.551 9
  21751979.867    21751981.732    -1005623.456 9  -2584802.379 7
  23314833.103    23314836.994    -3033381.429 9  -4099829.476 8
  24464625.536    24464626.187    -3927149.483 9   1671115.784 7
 89 11 22  9 46 29.0800000  0  4G 2G 6G11G 9
  23373092.600    23373094.387     2826744.194 8   2013768.335 9
  21741952.880    21741955.317    -1058311.865 9  -2625858.278 8
  23294953.412    23294958.875    -3137848.345 8  -4181232.245 8
  24448156.365    24448158.086    -4013691.995 9   1603679.997 7
 89 11 22  9 46 59.0800000  0  4G 2G 6G11G 9
  23388064.910    23388067.662     2905425.648 8   2075078.533 8
  21731953.948    21731956.325    -1110860.603 9  -2666805.341 7
  23275118.974    23275124.372    -3242075.791 8  -4262448.413 9
  24431681.478    24431683.886    -4100267.039 9   1536218.873 6
 89 11 22  9 47 29.0800000  0  4G 2G 6G11G 9
  23403048.289    23403049.882     2984161.864 8   2136431.392 9
  21721980.769    21721981.436    -1163268.358 9  -2707642.526 8
  23255333.332    23255336.807    -3346061.240 8  -4343475.995 9
  24415201.231    24415202.838    -4186873.998 9   1468732.875 6
 89 11 22  9 47 59.0800000  0  4G 2G 6G11G 9
  23418041.297    23418044.060     3062953.262 9   2197827.234 9
  21712035.453    21712036.980    -1215533.392 9  -2748368.525 9
  23235591.551    23235595.565    -3449801.452 9  -4424312.509 8
  24398714.812    24398716.819    -4273511.983 8   1401222.708 6
 89 11 22  9 48 29.0800000  0  4G 2G 6G11G 9
  23433045.457    23433047.409     3141798.224 9   2259264.843 8
  21702116.197    21702118.670    -1267654.348 9  -2788982.267 9
  23215897.258    23215901.969    -3553293.956 9  -4504955.982 9
  24382222.770    24382224.105    -4360180.367 9   1333688.836 6
 89 11 22  9 48 59.0800000  0  4G 2G 6G11G 9
  23448058.975    23448060.559     3220695.889 9   2320743.537 9
  21692225.913    21692228.537    -1319629.528 9  -2829482.384 8
  23196251.375    23196255.500    -3656535.528 9  -4585403.955 9
  24365725.178    24365726.673    -4446878.389 8   1266131.822 6
 89 11 22  9 49 29.0800000  0  4G 2G 6G11G 9
  23463082.143    23463084.915     3299645.495 9   2382262.676 9
  21682363.873    21682364.713    -1371457.514 9  -2869867.822 8
  23176652.295    23176656.828    -3759523.470 9  -4665654.268 9
  24349220.245    24349222.738    -4533605.231 8   1198552.352 7
 89 11 22  9 49 59.0800000  0  4G 2G 6G11G 9
  23478115.565    23478117.839     3378646.005 9   2443821.485 8
  21672528.664    21672530.855    -1423136.747 9  -2910137.375 8
  23157104.044    23157107.683    -3862254.938 9  -4745704.735 8
  24332711.483    24332713.178    -4620360.106 8   1130951.053 7
 89 11 22  9 50 29.0800000  0  4G 2G 6G11G 9
  23493158.488    23493160.791     3457696.814 9   2505419.485 8
  21662723.889    21662724.612    -1474665.622 9  -2950289.775 8
  23137604.188    23137608.249    -3964726.996 9  -4825553.080 9
  24316197.207    24316198.860    -4707142.200 6   1063328.601 7
 89 11 22  9 50 59.0800000  0  4G 2G 6G11G 9
  23508211.686    23508213.146     3536796.974 9   2567055.949 9
  21652947.181    21652949.228    -1526042.606 9  -2990323.817 8
  23118154.450    23118158.306    -4066936.711 8  -4905196.991 9
  24299678.276    24299679.805    -4793950.946 7    995685.394 8
 89 11 22  9 51 29.0800000  0  4G 2G 6G11G 9
  23523272.677    23523274.274     3615945.776 9   2628730.334 8
  21643199.461    21643201.846    -1577265.959 9  -3030238.128 9
  23098754.952    23098758.113    -4168881.396 9  -4984634.369 8
  24283155.340    24283155.687    -4880784.961 9    928022.512 7
 89 11 22  9 51 59.0800000  0  4G 2G 6G11G 9
  23538343.426    23538345.442     3695142.597 9   2690442.131 9
  21633482.441    21633482.834    -1628333.917 9  -3070031.336 8
  23079406.949    23079410.554    -4270558.171 9  -5063863.027 9
  24266626.108    24266628.308    -4967643.437 9    860340.555 8
 89 11 22  9 52 29.0800000  0  4G 2G 6G11G 9
  23553423.473    23553424.881     3774386.418 9   2752190.539 9
  21623794.652    21623795.763    -1679245.287 9  -3109702.539 9
  23060110.032    23060113.154    -4371964.254 9  -5142880.725 9
  24250093.113    24250094.709    -5054526.075 8    792639.787 7
 89 11 22  9 52 59.0800000  0  4G 2G 6G11G 9
  23568511.747    23568513.684     3853676.618 9   2813975.090 8
  21614135.922    21614137.731    -1729998.192 9  -3149250.265 8
  23040864.629    23040869.089    -4473096.601 9  -5221685.130 9
  24233555.933    24233557.689    -5141431.697 9    724921.102 7
 89 11 22  9 53 29.0800000  0  4G 2G 6G11G 9
  23583607.901    23583610.235     3933011.918 9   2875794.794 8
  21604508.441    21604510.286    -1780591.175 9  -3188673.367 8
  23021671.857    23021675.113    -4573952.462 9  -5300274.098 8
  24217013.651    24217015.802    -5228359.476 9    657185.139 7
 89 11 22  9 53 59.0800000  0  4G 2G 6G11G 9
  23598713.881    23598715.376     4012391.819 9   2937649.224 8
  21594911.867    21594913.516    -1831022.423 9  -3227970.445 9
  23002532.573    23002537.366    -4674528.936 9  -5378645.367 9
  24200467.430    24200470.553    -5315308.654 9    589432.531 9
 89 11 22  9 54 29.0800000  0  4G 2G 6G11G 9
  23613828.072    23613829.108     4091815.357 9   2999537.685 9
  21585345.987    21585347.685    -1881290.366 9  -3267140.263 9
  22983447.160    22983451.817    -4774823.467 9  -5456796.921 9
  24183917.575    24183921.025    -5402278.194 9    521664.034 9
 89 11 22  9 54 59.0800000  0  4G 2G 6G11G 9
  23628948.899    23628952.140     4171282.321 9   3061459.967 8
  21575811.453    21575814.272    -1931393.406 9  -3306181.592 8
  22964416.146    22964419.277    -4874833.141 9  -5534726.500 8
  24167364.645    24167366.384    -5489267.146 9    453880.416 8
 89 11 22  9 55 29.0800000  0  4G 2G 6G11G 9
  23644080.363    23644081.978     4250791.302 9   3123414.985 9
  21566308.657    21566311.818    -1981329.780 9  -3345093.065 9
  22945440.305    22945444.062    -4974554.985 8  -5612431.838 9
  24150807.345    24150808.769    -5576274.912 9    386082.131 8
 89 11 22  9 55 59.0800000  0  4G 2G 6G11G 9
  23659217.063    23659219.562     4330341.946 9   3185402.469 8
  21556838.077    21556839.761    -2031098.032 9  -3383873.530 7
  22926518.355    22926523.212    -5073986.244 9  -5689910.695 8
  24134246.923    24134249.614    -5663300.633 9    318269.813 8
 89 11 22  9 56 29.0800000  0  4G 2G 6G11G 9
  23674363.635    23674364.984     4409933.192 8   3247421.592 9
  21547400.316    21547402.667    -2080696.442 9  -3422521.638 8
  22907652.923    22907657.204    -5173124.348 9  -5767161.138 8
  24117683.404    24117686.310    -5750343.088 9    250444.514 9
 89 11 22  9 56 59.0800000  0  4G 2G 6G11G 9
  23689517.541    23689519.513     4489564.328 8   3309471.788 8
  21537994.142    21537995.609    -2130123.239 9  -3461036.029 9
  22888843.403    22888848.429    -5271966.433 9  -5844180.959 8
  24101116.987    24101118.679    -5837401.341 9    182606.885 9
 89 11 22  9 57 29.0800000  0  4G 2G 6G11G 9
  23704676.831    23704680.425     4569234.975 8   3371552.767 9
  21528621.541    21528623.833    -2179376.768 9  -3499415.400 8
  22870092.639    22870096.893    -5370509.680 9  -5920967.867 9
  24084547.799    24084550.033    -5924474.490 9    114757.641 9
 89 11 22  9 57 59.0800000  0  4G 2G 6G11G 9
  23719844.828    23719847.940     4648944.101 8   3433663.723 8
  21519282.693    21519285.197    -2228455.212 9  -3537658.329 8
  22851397.471    22851400.641    -5468751.554 9  -5997519.970 8
  24067974.959    24067977.605    -6011561.618 9     46897.482 8
 89 11 22  9 58 29.0800000  0  4G 2G 6G11G 9
  23735021.892    23735023.454     4728690.984 9   3495804.126 9
  21509977.327    21509979.189    -2277357.119 8  -3575763.713 8
  22832760.685    22832764.432    -5566689.414 9  -6073835.176 8
  24051401.579    24051402.079    -6098661.845 9    -20972.830 8
 89 11 22  9 58 59.0800000  0  4G 2G 6G11G 9
  23750204.140    23750205.671     4808475.368 9   3557973.753 8
  21500705.107    21500705.665    -2326080.638 9  -3613730.084 8
  22814182.556    22814185.479    -5664319.998 9  -6149910.931 9
  24034823.952    24034825.014    -6185774.182 8    -88852.563 8
 89 11 22  9 59 29.0800000  0  4G 2G 6G11G 9
  23765392.606    23765395.170     4888295.811 8   3620171.469 9
  21491467.313    21491469.628    -2374623.923 9  -3651556.013 8
  22795661.593    22795666.018    -5761640.681 9  -6225745.214 8
  24018242.729    24018246.838    -6272897.431 7   -156740.776 8
 89 11 22  9 59 59.0800000  0  4G 2G 6G11G 9
  23780590.433    23780592.367     4968151.820 8   3682396.895 9
  21482263.948    21482265.893    -2422985.392 9  -3689240.271 8
  22777202.201    22777205.928    -5858648.996 9  -6301336.082 9
  24001662.263    24001665.113    -6360030.888 7   -224636.940 7
 89 11 22 10  0 29.0800000  0  4G 2G 6G11G 9
  23795791.957    23795794.250     5048043.187 9   3744649.883 9
  21473096.771    21473098.432    -2471163.259 9  -3726781.454 9
  22758801.985    22758806.678    -5955341.925 9  -6376681.212 9
  23985081.140    23985082.604    -6447173.044 8   -292539.882 7
 89 11 22 10  0 59.0800000  0  4G 2G 6G11G 9
  23811001.546    23811003.148     5127968.566 8   3806929.353 8
  21463964.704    21463965.658    -2519155.666 9  -3764178.113 9
  22740462.948    22740466.794    -6051716.734 9  -6451778.417 9
  23968497.185    23968498.486    -6534323.391 8   -360449.258 8
 89 11 22 10  1 29.0800000  0  4G 2G 6G11G 9
  23826217.002    23826218.171     5207927.680 9   3869235.128 9
  21454866.855    21454869.225    -2566960.907 9  -3801428.943 8
  22722184.504    22722188.835    -6147770.606 9  -6526625.588 9
  23951911.753    23951913.173    -6621480.445 8   -428363.861 7
 89 11 22 10  1 59.0800000  0  4G 2G 6G11G 9
  23841439.682    23841441.892     5287920.107 9   3931566.872 8
  21445806.148    21445807.853    -2614577.238 9  -3838532.568 8
  22703967.419    22703971.629    -6243501.178 9  -6601220.809 8
  23935326.089    23935325.486    -6708643.367 8   -496282.990 7
 89 11 22 10  2 29.0800000  0  4G 2G 6G11G 9
  23856667.832    23856670.965     5367945.011 9   3993923.898 9
  21436781.183    21436783.967    -2662002.924 9  -3875487.652 8
  22685812.951    22685816.736    -6338905.995 9  -6675562.194 9
  23918738.319    23918740.103    -6795811.283 9   -564206.028 7
 89 11 22 10  2 59.0800000  0  4G 2G 6G11G 9
  23871901.418    23871903.741     5448001.582 9   4056305.616 8
  21427792.701    21427794.709    -2709236.173 9  -3912292.775 8
  22667719.798    22667723.900    -6433982.034 9  -6749647.413 8
  23902148.743    23902151.431    -6882982.774 9   -632131.885 8
 89 11 22 10  3 29.0800000  0  4G 2G 6G11G 9
  23887141.923    23887145.340     5528089.126 9   4118711.473 8
  21418841.883    21418843.182    -2756275.339 9  -3948946.644 9
  22649690.914    22649694.275    -6528727.011 9  -6823474.622 9
  23885561.004    23885561.520    -6970157.114 8   -700059.964 7
 89 11 22 10  3 59.0800000  0  4G 2G 6G11G 9
  23902388.443    23902390.481     5608206.683 9   4181140.724 8
  21409928.343    21409928.833    -2803118.641 9  -3985447.928 9
  22631724.807    22631728.201    -6623137.998 9  -6897041.612 8
  23868971.831    23868972.290    -7057333.085 9   -767989.280 7
 89 11 22 10  4 29.0800000  0  4G 2G 6G11G 9
  23917639.232    23917641.716     5688354.373 8   4243593.456 8
  21401051.719    21401053.445    -2849764.016 9  -4021794.982 8
  22613823.791    22613827.044    -6717212.260 9  -6970346.217 8
  23852382.977    23852384.229    -7144509.256 9   -835918.781 7
 89 11 22 10  4 59.0800000  0  4G 2G 6G11G 9
  23932896.812    23932899.656     5768530.670 9   4306068.451 8
  21392212.651    21392215.128    -2896209.890 9  -4057986.538 9
  22595986.631    22595989.155    -6810947.410 9  -7043386.580 8
  23835793.562    23835796.423    -7231684.803 9   -903847.788 7
 89 11 22 10  5 29.0800000  0  4G 2G 6G11G 9
  23948158.634    23948161.086     5848735.840 9   4368565.990 9
  21383413.691    21383414.441    -2942454.074 9  -4094020.972 8
  22578213.925    22578217.768    -6904340.456 9  -7116160.386 8
  23819204.368    23819206.853    -7318858.427 9   -971775.278 8
 89 11 22 10  5 59.0800000  0  4G 2G 6G11G 9
  23963427.621    23963429.673     5928969.067 9   4431085.383 8
  21374652.461    21374653.599    -2988494.886 9  -4129896.918 7
  22560507.729    22560511.043    -6997388.713 9  -7188665.509 9
  23802616.647    23802617.892    -7406028.942 9  -1039700.336 7
 89 11 22 10  6 29.0800000  0  4G 2G 6G11G 9
  23978699.340    23978701.958     6009229.667 9   4493626.091 8
  21365930.181    21365931.170    -3034330.641 9  -4165613.076 8
  22542867.006    22542870.271    -7090089.764 9  -7260900.078 8
  23786029.410    23786031.973    -7493195.426 9  -1107622.224 8
 89 11 22 10  6 59.0800000  0  4G 2G 6G11G 9
  23993977.547    23993980.982     6089516.968 9   4556187.596 8
  21357246.744    21357247.849    -3079959.460 9  -4201167.987 8
  22525293.328    22525296.165    -7182440.774 9  -7332861.887 9
  23769444.126    23769445.022    -7580356.353 9  -1175539.776 9
 89 11 22 10  7 29.0800000  0  4G 2G 6G11G 9
  24009261.807    24009263.497     6169830.432 9   4618769.508 8
  21348603.019    21348605.192    -3125379.415 9  -4236560.176 8
  22507785.169    22507790.687    -7274439.464 9  -7404549.168 8
  23752858.101    23752861.196    -7667510.961 9  -1243452.441 8
 89 11 22 10  7 59.0800000  0  4G 2G 6G11G 9
  24024549.305    24024550.705     6250169.437 9   4681371.323 7
  21340001.080    21340002.275    -3170588.869 9  -4271788.334 8
  22490346.833    22490350.656    -7366083.438 9  -7475960.020 9
  23736275.092    23736277.676    -7754658.055 9  -1311359.242 8
 89 11 22 10  8 29.0800000  0  4G 2G 6G11G 9
  24039842.538    24039843.856     6330533.267 8   4743992.468 8
  21331437.773    21331439.297    -3215585.651 9  -4306850.757 9
  22472975.110    22472979.207    -7457369.985 9  -7547092.376 9
  23719693.141    23719695.232    -7841796.071 9  -1379258.945 8
 89 11 22 10  8 59.0800000  0  4G 2G 6G11G 9
  24055140.322    24055141.972     6410921.623 9   4806632.703 9
  21322915.968    21322918.249    -3260368.025 9  -4341746.117 8
  22455672.980    22455676.828    -7548296.174 8  -7617943.932 9
  23703112.632    23703114.797    -7928923.943 8  -1447150.785 9
 89 11 22 10  9 29.0800000  0  4G 2G 6G11G 9
  24070441.443    24070443.747     6491333.738 8   4869291.462 8
  21314435.421    21314437.250    -3304934.050 9  -4376472.890 8
  22438439.535    22438443.192    -7638859.759 9  -7688512.931 8
  23686534.675    23686537.364    -8016040.301 9  -1515033.617 9
 89 11 22 10  9 59.0800000  0  4G 2G 6G11G 9
  24085746.933    24085749.620     6571769.191 7   4931968.417 8
  21305996.099    21305998.057    -3349282.102 9  -4411029.809 8
  22421275.003    22421277.505    -7729058.206 9  -7758797.420 8
  23669959.530    23669961.912    -8103144.273 8  -1582906.768 8
 89 11 22 10 10 29.0800000  0  4G 2G 6G11G 9
  24101057.586    24101060.478     6652227.352 8   4994663.043 8
  21297597.804    21297600.320    -3393409.967 9  -4445415.148 8
  22404181.093    22404184.961    -7818888.737 9  -7828795.225 9
  23653387.436    23653389.406    -8190234.392 7  -1650769.161 9
 89 11 22 10 10 59.0800000  0  4G 2G 6G11G 9
  24116373.217    24116375.249     6732707.456 9   5057374.782 8
  21289243.473    21289245.554    -3437315.889 9  -4479627.544 8
  22387156.914    22387160.142    -7908349.095 9  -7898504.578 8
  23636816.360    23636818.761    -8277309.407 8  -1718619.785 6
 89 11 22 10 11 29.0800000  0  4G 2G 6G11G 9
  24131692.385    24131695.272     6813209.734 8   5120103.789 8
  21280930.739    21280933.431    -3480997.927 9  -4513665.494 8
  22370203.866    22370207.729    -7997436.494 9  -7967923.320 8
  23620251.141    23620250.727    -8364367.705 8  -1786457.391 7
 89 11 22 10 11 59.0800000  0  4G 2G 6G11G 9
  24147015.364    24147018.558     6893732.972 8   5182849.134 9
  21272662.044    21272663.400    -3524454.252 9  -4547527.556 7
  22353322.697    22353327.388    -8086148.554 9  -8037049.577 9
  23603688.648    23603688.435    -8451408.484 8  -1854281.367 8
 89 11 22 10 12 29.0800000  0  4G 2G 6G11G 9
  24162342.384    24162345.402     6974276.964 9   5245610.661 9
  21264435.611    21264436.704    -3567682.985 9  -4581212.289 8
  22336514.422    22336517.845    -8174483.044 9  -8105881.620 8
  23587128.037    23587130.495    -8538430.177 8  -1922090.497 8
 89 11 22 10 12 59.0800000  0  4G 2G 6G11G 9
  24177673.746    24177675.359     7054840.968 9   5308387.780 9
  21256253.570    21256255.797    -3610682.121 9  -4614718.111 8
  22319776.276    22319779.008    -8262437.343 9  -8174417.431 8
  23570572.016    23570573.110    -8625431.760 8  -1989883.929 9
 89 11 22 10 13 29.0800000  0  4G 2G 6G11G 9
  24193008.208    24193010.081     7135423.942 9   5371179.690 9
  21248114.600    21248115.918    -3653449.836 8  -4648043.602 8
  22303111.768    22303115.462    -8350008.974 9  -8242655.053 8
  23554019.703    23554022.898    -8712411.568 9  -2057660.388 7
 89 11 22 10 13 59.0800000  0  4G 2G 6G11G 9
  24208345.495    24208348.143     7216026.460 9   5433986.818 9
  21240021.006    21240023.103    -3695984.229 9  -4681187.282 7
  22286521.195    22286524.432    -8437195.619 9  -8310592.689 8
  23537472.509    23537473.821    -8799368.510 9  -2125419.018 8
 89 11 22 10 14 29.0800000  0  4G 2G 6G11G 9
  24223687.964    24223690.537     7296647.720 9   5496808.568 9
  21231972.179    21231974.075    -3738283.026 8  -4714147.354 9
  22270004.071    22270007.185    -8523994.744 9  -8378228.355 9
  23520930.539    23520931.371    -8886301.020 9  -2193158.649 8
 89 11 22 10 14 59.0800000  0  4G 2G 6G11G 9
  24239033.607    24239034.816     7377287.018 9   5559644.375 8
  21223967.391    21223970.174    -3780344.597 9  -4746922.613 8
  22253559.919    22253564.468    -8610403.841 9  -8445560.109 8
  23504392.717    23504394.643    -8973207.935 9  -2260878.355 8
 89 11 22 10 15 29.0800000  0  4G 2G 6G11G 9
  24254381.025    24254383.946     7457944.138 9   5622494.049 9
  21216009.277    21216011.032    -3822166.861 9  -4779511.391 8
  22237192.290    22237195.332    -8696420.283 9  -8512585.892 8
  23487859.964    23487861.431    -9060087.473 9  -2328576.702 7
 89 11 22 10 15 59.0800000  0  4G 2G 6G11G 9
  24269733.454    24269736.171     7538618.564 9   5685357.205 9
  21208096.866    21208098.854    -3863748.100 9  -4811912.362 9
  22220899.063    22220902.443    -8782042.222 9  -8579304.266 8
  23471331.803    23471333.908    -9146938.802 9  -2396253.038 7
 89 11 22 10 16 29.0800000  0  4G 2G 6G11G 9
  24285088.454    24285091.002     7619309.570 9   5748233.270 9
  21200229.528    21200232.668    -3905086.123 9  -4844123.800 8
  22204680.940    22204684.281    -8867267.010 9  -8645713.176 9
  23454810.780    23454812.482    -9233760.174 9  -2463906.019 7
 89 11 22 10 16 59.0800000  0  4G 2G 6G11G 9
  24300447.377    24300449.328     7700017.022 9   5811122.164 9
  21192410.347    21192412.390    -3946179.035 9  -4876144.255 8
  22188539.639    22188542.909    -8952092.463 9  -8711810.925 8
  23438295.608    23438297.438    -9320550.235 9  -2531534.624 8
 89 11 22 10 17 29.0800000  0  4G 2G 6G11G 9
  24315808.048    24315810.417     7780740.158 9   5874023.269 9
  21184637.530    21184640.302    -3987024.972 9  -4907972.257 7
  22172474.767    22172477.289    -9036516.207 9  -8777595.645 9
  23421786.400    23421788.193    -9407307.564 9  -2599137.729 8
 89 11 22 10 17 59.0800000  0  4G 2G 6G11G 9
  24331171.946    24331173.777     7861478.136 9   5936935.936 9
  21176913.348    21176913.974    -4027621.771 9  -4939606.124 9
  22156486.105    22156489.146    -9120535.867 9  -8843065.491 8
  23405283.255    23405284.890    -9494030.887 9  -2666714.355 7
 89 11 22 10 18 29.0800000  0  4G 2G 6G11G 9
  24346538.923    24346539.925     7942231.665 9   5999860.746 8
  21169234.361    21169236.564    -4067967.550 9  -4971044.380 7
  22140574.417    22140578.990    -9204148.685 9  -8908218.331 8
  23388786.058    23388788.396    -9580718.557 9  -2734263.209 8
 89 11 22 10 18 59.0800000  0  4G 2G 6G11G 9
  24361907.824    24361910.954     8022999.066 9   6062796.356 8
  21161604.988    21161607.087    -4108060.416 9  -5002285.561 7
  22124741.690    22124745.484    -9287352.761 9  -8973052.648 9
  23372296.624    23372298.579    -9667369.396 9  -2801783.315 7
 89 11 22 10 19 29.0800000  0  4G 2G 6G11G 9
  24377279.399    24377283.246     8103780.465 8   6125742.863 8
  21154024.374    21154026.658    -4147898.372 9  -5033328.117 8
  22108985.827    22108990.514    -9370145.912 9  -9037566.774 9
  23355816.563    23355817.891    -9753981.663 8  -2869273.400 7
 89 11 22 10 19 59.0800000  0  4G 2G 6G11G 9
  24392655.034    24392657.550     8184575.306 8   6188699.835 8
  21146493.260    21146493.885    -4187479.481 9  -5064170.525 8
  22093309.888    22093313.454    -9452525.810 9  -9101758.883 9
  23339342.263    23339344.175    -9840554.157 9  -2936732.480 7
 89 11 22 10 20 29.0800000  0  4G 2G 6G11G 9
  24408033.644    24408034.139     8265383.371 8   6251667.123 7
  21139009.920    21139011.423    -4226801.637 9  -5094811.156 8
  22077712.481    22077715.251    -9534489.925 9  -9165627.000 8
  23322875.061    23322877.512    -9927085.130 8  -3004159.202 8
 89 11 22 10 20 59.0800000  0  4G 2G 6G11G 9
  24423412.092    24423413.968     8346204.105 8   6314644.274 8
  21131577.274    21131578.732    -4265862.921 9  -5125248.524 8
  22062194.342    22062197.807    -9616036.121 9  -9229169.457 9
  23306415.428    23306419.364   -10013573.255 8  -3071552.534 9
 89 11 22 10 21 29.0800000  0  4G 2G 6G11G 9
  24438792.923    24438796.834     8427037.053 7   6377630.923 7
  21124193.143    21124195.967    -4304661.391 9  -5155481.096 8
  22046757.001    22046760.730    -9697162.208 9  -9292384.559 9
  23289967.070    23289969.380   -10100016.874 9  -3138911.184 8
 89 11 22 10 21 59.0800000  0  4G 2G 6G11G 9
  24454177.665    24454181.691     8507881.953 8   6440626.890 7
  21116860.689    21116862.132    -4343195.011 9  -5185507.265 8
  22031400.021    22031402.447    -9777865.965 9  -9355270.596 8
  23273526.778    23273527.804   -10186414.422 8  -3206233.930 9
 89 11 22 10 22 29.0800000  0  4G 2G 6G11G 9
  24469565.232    24469567.729     8588738.510 8   6503631.987 8
  21109578.634    21109580.199    -4381461.564 9  -5215325.350 8
  22016123.800    22016126.394    -9858144.892 9  -9417825.578 9
  23257096.064    23257096.543   -10272764.302 9  -3273519.527 9
 89 11 22 10 22 59.0800000  0  4G 2G 6G11G 9
  24484954.074    24484954.959     8669606.012 9   6566645.618 7
  21102348.055    21102351.122    -4419459.069 9  -5244933.797 8
  22000927.651    22000930.494    -9937996.871 9  -9480047.883 8
  23240671.568    23240673.037   -10359064.837 9  -3340766.679 7
 89 11 22 10 23 29.0800000  0  4G 2G 6G11G 9
  24500344.441    24500346.723     8750484.565 9   6629667.849 7
  21095169.374    21095170.659    -4457185.637 9  -5274331.102 8
  21985813.930    21985817.601   -10017420.028 9  -9541936.043 8
  23224259.515    23224262.356   -10445314.846 9  -3407974.456 8
 89 11 22 10 23 59.0800000  0  4G 2G 6G11G 9
  24515737.136    24515738.492     8831373.359 9   6692698.066 8
  21088042.365    21088043.549    -4494639.370 9  -5303515.809 8
  21970782.461    21970785.222   -10096412.218 9  -9603488.384 8
  23207856.962    23207858.291   -10531512.664 8  -3475141.550 8
 89 11 22 10 24 29.0800000  0  4G 2G 6G11G 9
  24531131.662    24531133.581     8912272.159 9   6755736.090 8
  21080966.941    21080968.851    -4531818.214 9  -5332486.341 8
  21955833.285    21955836.551   -10174970.822 9  -9664702.857 8
  23191464.174    23191465.952   -10617656.661 9  -3542266.699 9
 89 11 22 10 24 59.0800000  0  4G 2G 6G11G 9
  24546527.556    24546530.385     8993180.226 9   6818781.325 9
  21073945.114    21073947.098    -4568720.139 9  -5361241.071 8
  21940966.094    21940971.029   -10253093.965 9  -9725578.013 8
  23175081.708    23175083.164   -10703745.549 9  -3609348.928 9
 89 11 22 10 25 29.0800000  0  4G 2G 6G11G 9
  24561925.529    24561928.954     9074097.544 9   6881833.742 8
  21066975.651    21066976.114    -4605343.130 9  -5389778.467 7
  21926183.972    21926187.611   -10330779.833 9  -9786112.429 8
  23158710.133    23158712.387   -10789777.274 9  -3676386.616 9
 89 11 22 10 25 59.0800000  0  4G 2G 6G11G 9
  24577325.236    24577327.553     9155023.690 9   6944893.056 8
  21060059.894    21060060.876    -4641685.148 9  -5418096.917 9
  21911483.825    21911487.511   -10408026.490 9  -9846304.607 8
  23142350.936    23142351.332   -10875750.471 9  -3743378.714 8
 89 11 22 10 26 29.0800000  0  4G 2G 6G11G 9
  24592726.335    24592729.790     9235958.336 9   7007958.976 9
  21053198.948    21053199.129    -4677744.098 8  -5446194.805 8
  21896869.759    21896872.121   -10484830.988 9  -9906152.237 9
  23126001.702    23126002.794   -10961663.268 9  -3810323.771 8
 89 11 22 10 26 59.0800000  0  4G 2G 6G11G 9
  24608129.331    24608132.577     9316901.508 9   7071031.566 9
  21046389.568    21046392.615    -4713517.698 9  -5474070.324 7
  21882337.497    21882341.878   -10561191.393 9  -9965653.835 8
  23109664.468    23109665.492   -11047513.894 9  -3877220.392 8
 89 11 22 10 27 29.0800000  0  4G 2G 6G11G 9
  24623534.440    24623536.808     9397852.365 9   7134110.139 9
  21039637.908    21039639.530    -4749004.361 9  -5501722.281 8
  21867891.661    21867894.679   -10637106.071 9 -10024808.108 8
  23093339.705    23093342.756   -11133300.898 9  -3944067.412 7
 89 11 22 10 27 59.0800000  0  4G 2G 6G11G 9
  24638940.210    24638942.804     9478810.671 9   7197194.501 8
  21032939.801    21032940.031    -4784201.818 9  -5529148.846 8
  21853530.948    21853533.532   -10712573.104 9 -10083613.576 8
  23077027.572    23077029.713   -11219022.622 9  -4010863.574 8
 89 11 22 10 28 29.0800000  0  4G 2G 6G11G 9
  24654347.862    24654350.686     9559776.857 9   7260284.996 8
  21026297.095    21026298.794    -4819107.990 9  -5556348.465 8
  21839255.981    21839259.119   -10787590.096 9 -10142068.371 8
  23060728.307    23060730.773   -11304677.427 9  -4077607.589 9
 89 11 22 10 28 59.0800000  0  4G 2G 6G11G 9
  24669756.256    24669759.012     9640749.829 9   7323380.792 9
  21019710.323    21019711.529    -4853720.718 9  -5583319.410 8
  21825066.878    21825069.690   -10862154.861 9 -10200170.753 7
  23044441.755    23044443.062   -11390263.441 9  -4144298.010 8
 89 11 22 10 29 29.0800000  0  4G 2G 6G11G 9
  24685166.857    24685170.186     9721728.803 9   7386481.247 9
  21013180.212    21013182.397    -4888038.389 9  -5610060.440 7
  21810963.328    21810965.863   -10936265.863 9 -10257919.571 8
  23028167.948    23028170.337   -11475779.191 9  -4210933.689 8
 89 11 22 10 29 59.0800000  0  4G 2G 6G11G 9
  24700577.467    24700580.185     9802714.491 9   7449586.932 9
  21006705.404    21006708.525    -4922058.376 9  -5636569.510 8
  21796946.638    21796949.961   -11009920.602 9 -10315312.853 8
  23011909.708    23011910.786   -11561222.394 9  -4277512.810 8
 89 11 22 10 30 29.0800000  0  4G 2G 6G11G 9
  24715989.222    24715991.734     9883706.353 8   7512697.437 9
  21000289.856    21000291.533    -4955779.009 9  -5662845.317 8
  21783018.417    21783023.185   -11083117.260 9 -10372349.199 8
  22995663.631    22995665.833   -11646591.586 9  -4344034.260 8
 89 11 22 10 30 59.0800000  0  4G 2G 6G11G 9
  24731401.954    24731405.776     9964703.889 7   7575812.344 9
  20993930.090    20993932.829    -4989198.327 9  -5688886.329 8
  21769178.210    21769180.287   -11155854.119 9 -10429027.251 8
  22979432.443    22979434.023   -11731885.453 9  -4410496.987 7
 89 11 22 10 31 29.0800000  0  4G 2G 6G11G 9
  24746817.575    24746820.029    10045706.640 7   7638931.325 8
  20987628.809    20987629.268    -5022314.001 8  -5714690.725 7
  21755423.605    21755427.429   -11228129.390 9 -10485345.630 8
  22963217.896    22963219.514   -11817101.693 9  -4476899.241 8
 89 11 22 10 31 59.0800000  0  4G 2G 6G11G 9
  24762230.265    24762235.473    10126715.053 6   7702054.682 9
  20981385.193    20981386.781    -5055123.924 9  -5740256.900 8
  21741757.606    21741761.020   -11299940.624 9 -10541302.424 8
  22947016.199    22947017.946   -11902238.657 9  -4543239.726 8
 89 11 22 10 32 29.0800000  0  4G 2G 6G11G 9
  24777649.906    24777651.924    10207728.229 7   7765181.763 9
  20975200.537    20975201.237    -5087626.285 9  -5765583.403 8
  21728181.559    21728184.695   -11371286.393 9 -10596896.493 8
  22930829.945    22930832.494   -11987294.667 9  -4609517.112 8
 89 11 22 10 32 59.0800000  0  4G 2G 6G11G 9
  24793064.037    24793068.531    10288746.013 8   7828312.433 8
  20969073.985    20969075.565    -5119819.042 9  -5790668.657 8
  21714693.520    21714696.744   -11442164.981 9 -10652126.542 9
  22914661.197    22914661.530   -12072268.026 9  -4675730.083 8
 89 11 22 10 33 29.0800000  0  4G 2G 6G11G 9
  24808483.017    24808487.095    10369767.915 8   7891446.341 8
  20963006.942    20963009.373    -5151700.103 9  -5815511.040 9
  21701295.089    21701298.979   -11512574.187 9 -10706990.847 8
  22898506.627    22898507.902   -12157156.763 9  -4741877.137 8
 89 11 22 10 33 59.0800000  0  4G 2G 6G11G 9
  24823903.064    24823906.251    10450793.877 7   7954583.396 8
  20957000.091    20957002.007    -5183267.594 9  -5840109.076 8
  21687986.286    21687989.317   -11582512.417 9 -10761488.125 8
  22882369.591    22882370.878   -12241959.388 9  -4807957.111 8
 89 11 22 10 34 29.0800000  0  4G 2G 6G11G 9
  24839322.592    24839325.267    10531823.478 8   8017723.290 8
  20951053.051    20951054.377    -5214519.237 9  -5864461.002 8
  21674767.528    21674770.674   -11651977.715 9 -10815616.914 9
  22866248.242    22866250.839   -12326673.835 9  -4873968.357 9
 89 11 22 10 34 59.0800000  0  4G 2G 6G11G 9
  24854742.319    24854745.445    10612856.685 9   8080866.023 7
  20945166.921    20945168.336    -5245452.868 9  -5888565.129 7
  21661639.027    21661643.109   -11720968.042 9 -10869375.600 8
  22850145.874    22850147.017   -12411297.908 9  -4939909.159 8
 89 11 22 10 35 29.0800000  0  4G 2G 6G11G 9
  24870163.847    24870164.768    10693893.122 9   8144011.297 6
  20939340.695    20939342.216    -5276066.515 9  -5912419.924 7
  21648601.731    21648605.430   -11789481.809 8 -10922762.930 8
  22834060.038    22834060.293   -12495830.142 9  -5005778.403 8
 89 11 22 10 35 59.0800000  0  4G 2G 6G11G 9
  24885584.405    24885589.246    10774932.433 9   8207158.819 6
  20933576.359    20933578.953    -5306358.141 9  -5936023.805 7
  21635654.457    21635658.867   -11857517.058 9 -10975777.416 9
  22817991.554    22817991.995   -12580268.624 9  -5071574.605 8
 89 11 22 10 36 29.0800000  0  4G 2G 6G11G 9
  24901006.088    24901009.344    10855974.518 9   8270308.524 5
  20927874.670    20927875.269    -5336325.900 9  -5959375.296 8
  21622799.285    21622803.924   -11925072.355 9 -11028417.870 8
  22801941.169    22801943.555   -12664611.539 9  -5137296.341 8
 89 11 22 10 36 59.0800000  0  4G 2G 6G11G 9
  24916428.826    24916430.304    10937019.317 9   8333460.339 4
  20922233.664    20922235.004    -5365967.494 9  -5982472.647 7
  21610035.588    21610039.941   -11992145.895 9 -11080682.938 9
  22785909.725    22785911.839   -12748856.955 9  -5202942.116 8
 89 11 22 10 37 29.0800000  0  4G 2G 6G11G 9
  24931851.311    24931853.160    11018066.857 9   8396614.275 5
  20916656.392    20916656.417    -5395280.970 9  -6005314.316 8
  21597364.215    21597367.304   -12058735.755 8 -11132571.107 7
  22769897.603    22769898.720   -12833003.004 9  -5268510.468 8
 89 11 22 10 37 59.0800000  0  4G 2G 6G11G 9
  24947274.784    24947277.867    11099116.348 9   8459769.735 6
  20911140.564    20911142.586    -5424264.269 9  -6027898.714 8
  21584784.906    21584787.914   -12124840.464 9 -11184081.245 8
  22753904.442    22753906.064   -12917047.626 9  -5333999.784 8
 89 11 22 10 38 29.0800000  0  4G 2G 6G11G 9
  24962698.099    24962701.124    11180167.695 9   8522926.636 6
  20905688.468    20905689.664    -5452915.508 9  -6050224.340 8
  21572298.455    21572301.611   -12190458.674 9 -11235212.297 8
  22737931.308    22737930.138   -13000989.368 9  -5399408.941 8
 89 11 22 10 38 59.0800000  0  4G 2G 6G11G 9
  24978122.421    24978125.593    11261220.041 9   8586084.273 7
  20900299.495    20900300.451    -5481232.555 9  -6072289.558 8
  21559903.914    21559906.813   -12255588.379 9 -11285962.718 8
  22721976.822    22721979.436   -13084825.867 9  -5464736.083 8
 89 11 22 10 39 29.0800000  0  4G 2G 6G11G 9
  24993546.277    24993547.913    11342274.057 9   8649243.244 7
  20894974.421    20894976.540    -5509213.341 9  -6094092.768 8
  21547603.727    21547606.754   -12320227.752 9 -11336331.036 8
  22706042.420    22706044.450   -13168555.384 9  -5529979.845 8
 89 11 22 10 39 59.0800000  0  4G 2G 6G11G 9
  25008970.777    25008972.977    11423329.312 9   8712403.151 7
  20889715.071    20889716.138    -5536855.908 3  -6115632.420 4
  21535395.865    21535399.344   -12384375.788 9 -11386316.504 8
  22690130.933    22690133.718   -13252175.989 9  -5595138.740 8
 89 11 22 10 40 29.0800000  0  4G 2G 6G11G 9
  25024395.688    25024397.489    11504385.281 9   8775563.645 8
  20884518.984    20884520.206    -5564158.238 9  -6136906.955 8
  21523284.095    21523286.990   -12448030.926 9 -11435917.888 8
  22674239.835    22674241.021   -13335685.571 9  -5660211.122 8
 89 11 22 10 40 59.0800000  0  4G 2G 6G11G 9
  25039820.073    25039822.119    11585442.235 9   8838724.899 9
  20879388.168    20879389.768    -5591118.013 9  -6157914.567 8
  21511265.285    21511266.727   -12511191.172 9 -11485133.642 8
  22658369.117    22658371.866   -13419082.377 8  -5725195.660 8
 89 11 22 10 41 29.0800000  0  4G 2G 6G11G 9
  25055245.009    25055246.358    11666499.681 9   8901886.500 9
  20874324.467    20874325.783    -5617733.396 9  -6178653.833 8
  21499340.934    21499343.216   -12573854.811 9 -11533962.439 8
  22642520.180    22642523.796   -13502364.216 9  -5790090.602 9
 89 11 22 10 41 59.0800000  0  4G 2G 6G11G 9
  25070669.710    25070672.075    11747557.689 8   8965048.538 9
  20869325.105    20869326.722    -5644002.378 9  -6199123.177 8
  21487510.978    21487514.205   -12636020.491 9 -11582403.221 8
  22626697.562    22626698.398   -13585529.134 9  -5854894.403 9
 89 11 22 10 42 29.0800000  0  4G 2G 6G11G 9
  25086095.814    25086096.776    11828616.071 8   9028210.884 9
  20864393.369    20864394.170    -5669922.978 9  -6219321.033 8
  21475775.983    21475778.528   -12697687.085 9 -11630455.091 8
  22610894.506    22610894.231   -13668575.220 9  -5919605.655 8
 89 11 22 10 42 59.0800000  0  4G 2G 6G11G 9
  25101520.202    25101521.609    11909674.557 8   9091373.304 9
  20859527.682    20859528.073    -5695493.085 9  -6239245.785 9
  21464136.360    21464137.906   -12758852.744 9 -11678116.639 7
  22595112.290    22595114.357   -13751500.380 8  -5984222.695 7
 89 11 22 10 43 29.0800000  0  4G 2G 6G11G 9
  25116945.625    25116947.534    11990732.936 6   9154535.632 9
  20854727.746    20854728.465    -5720710.605 9  -6258895.801 8
  21452591.906    21452594.975   -12819515.803 9 -11725386.533 8
  22579355.652    22579358.453   -13834302.491 9  -6048743.804 9
 89 11 22 10 43 59.0800000  0  4G 2G 6G11G 9
  25132369.096    25132371.249    12071790.863 3   9217697.584 9
  20849997.629    20849998.570    -5745573.599 9  -6278269.542 7
  21441144.619    21441147.277   -12879675.162 9 -11772263.945 9
  22563622.549    22563625.455   -13916979.708 9  -6113167.573 8
 89 11 22 10 44 29.0800000  0  4G 2G 6G11G 9
  25147789.442    25147796.706    12152848.391 2   9280859.128 9
  20845333.199    20845335.013    -5770080.055 8  -6297365.476 8
  21429792.344    21429796.486   -12939329.335 9 -11818747.687 8
  22547914.952    22547916.530   -13999529.967 9  -6177492.449 8
 89 11 22 10 44 59.0800000  0  4G 2G 6G11G 9
  25163216.107    25163220.799    12233905.149 6   9344020.178 9
  20840738.069    20840739.494    -5794227.870 9  -6316181.963 8
  21418536.894    21418539.302   -12998477.005 9 -11864836.759 9
  22532230.527    22532231.282   -14081951.107 9  -6241716.717 8
 89 11 22 10 45 29.0800000  0  4G 2G 6G11G 9
  25178643.210    25178645.812    12314960.926 8   9407180.498 9
  20836211.528    20836213.000    -5818015.163 9  -6334717.509 9
  21407378.727    21407381.455   -13057116.808 9 -11910530.108 8
  22516570.626    22516572.860   -14164241.070 9  -6305838.770 8
 89 11 22 10 45 59.0800000  0  4G 2G 6G11G 9
  25194066.656    25194069.608    12396015.888 9   9470340.186 9
  20831754.846    20831755.135    -5841439.826 9  -6352970.513 8
  21396316.596    21396319.679   -13115247.287 9 -11955826.563 8
  22500936.705    22500938.651   -14246397.758 9  -6369856.949 8
 89 11 22 10 46 29.0800000  0  4G 2G 6G11G 9
  25209491.275    25209494.313    12477069.626 9   9533498.916 8
  20827364.594    20827366.766    -5864499.879 9  -6370939.381 7
  21385351.965    21385354.869   -13172866.986 9 -12000725.012 8
  22485328.753    22485330.437   -14328419.170 9  -6433769.713 8
 89 11 22 10 46 59.0800000  0  4G 2G 6G11G 9
  25224914.225    25224917.280    12558122.343 9   9596656.869 9
  20823047.610    20823049.434    -5887193.187 9  -6388622.464 7
  21374484.953    21374487.557   -13229974.478 9 -12045224.336 8
  22469748.110    22469748.582   -14410303.065 9  -6497575.353 8
 89 11 22 10 47 29.0800000  0  4G 2G 6G11G 9
  25240337.792    25240341.436    12639173.314 9   9659813.437 9
  20818798.796    20818799.095    -5909518.046 9  -6406018.443 7
  21363714.618    21363718.817   -13286568.691 9 -12089323.689 9
  22454191.776    22454193.955   -14492047.660 9  -6561272.461 9
 89 11 22 10 47 59.0800000  0  4G 2G 6G11G 9
  25255761.821    25255764.144    12720223.335 9   9722969.289 9
  20814619.821    20814623.321    -5931472.125 9  -6423125.506 9
  21353043.287    21353046.511   -13342648.260 9 -12133022.039 8
  22438662.490    22438665.519   -14573650.323 9  -6624858.958 9
 89 11 22 10 48 29.0800000  0  4G 2G 6G11G 9
  25271184.363    25271186.890    12801271.592 9   9786123.756 7
  20810514.115    20810516.813    -5953053.547 9  -6439942.207 8
  21342469.655    21342471.911   -13398211.906 9 -12176318.357 8
  22423162.672    22423162.834   -14655109.193 9  -6688333.384 9
 89 11 22 10 48 59.0800000  0  4G 2G 6G11G 9
  25286607.534    25286608.857    12882318.141 9   9849276.904 7
  20806478.226    20806481.014    -5974260.351 9  -6456466.988 7
  21331994.091    21331998.220   -13453258.319 8 -12219211.647 9
  22407688.794    22407690.796   -14736422.243 9  -6751694.211 8
 89 11 22 10 49 29.0800000  0  4G 2G 6G11G 9
  25302029.199    25302030.932    12963362.399 9   9912428.268 8
  20802514.597    20802517.133    -5995090.725 9  -6472698.455 8
  21321617.567    21321620.578   -13507786.531 9 -12261701.133 8
  22392243.466    22392245.473   -14817587.161 9  -6814939.608 8
 89 11 22 10 49 59.0800000  0  4G 2G 6G11G 9
  25317451.597    25317455.160    13044404.662 9   9975578.045 7
  20798622.844    20798625.089    -6015542.536 9  -6488634.932 9
  21311340.774    21311343.845   -13561795.152 9 -12303785.752 9
  22376827.699    22376828.695   -14898601.961 8  -6878068.003 8
 89 11 22 10 50 29.0800000  0  4G 2G 6G11G 9
  25332872.657    25332876.968    13125444.964 9  10038726.334 6
  20794803.414    20794804.461    -6035613.949 9  -6504274.988 8
  21301162.224    21301165.240   -13615282.868 8 -12345464.474 9
  22361440.185    22361441.124   -14979464.333 8  -6941077.636 9
 89 11 22 10 50 59.0800000  0  4G 2G 6G11G 9
  25348293.423    25348297.051    13206483.009 9  10101872.853 5
  20791057.550    20791059.520    -6055302.975 9  -6519617.096 8
  21291082.866    21291086.223   -13668249.191 8 -12386736.924 9
  22346081.104    22346083.206   -15060172.156 9  -7003966.852 8
 89 11 22 10 51 29.0800000  0  4G 2G 6G11G 9
  25363714.497    25363717.052    13287519.148 9  10165017.890 5
  20787383.185    20787385.435    -6074607.389 8  -6534659.491 8
  21281103.684    21281106.639   -13720692.428 9 -12427601.751 8
  22330753.934    22330753.956   -15140723.123 9  -7066733.824 8
 89 11 22 10 51 59.0800000  0  4G 2G 6G11G 9
  25379134.009    25379137.278    13368552.369 9  10228160.698 4
  20783783.560    20783785.281    -6093525.408 8  -6549400.799 9
  21271223.812    21271225.350   -13772611.376 9 -12468058.063 8
  22315455.417    22315456.578   -15221115.081 9  -7129376.902 8
 89 11 22 10 52 29.0800000  0  4G 2G 6G11G 9
  25394554.296    25394556.193    13449583.293 9  10291301.711 4
  20780256.892    20780258.903    -6112055.041 9  -6563839.476 8
  21261443.803    21261447.378   -13824005.080 9 -12508105.094 8
  22300186.855    22300189.711   -15301345.695 9  -7191894.265 8
 89 11 22 10 52 59.0800000  0  4G 2G 6G11G 9
  25409973.752    25409976.166    13530611.584 9  10354440.668 5
  20776804.611    20776808.306    -6130194.620 8  -6577974.220 8
  21251764.394    21251766.621   -13874872.880 8 -12547742.319 8
  22284951.464    22284952.531   -15381413.046 9  -7254284.388 9
 89 11 22 10 53 29.0800000  0  4G 2G 6G11G 9
  25425392.231    25425395.368    13611637.412 8  10417577.678 7
  20773428.437    20773430.259    -6147941.929 9  -6591803.294 8
  21242185.079    21242186.546   -13925213.052 9 -12586968.414 8
  22269745.300    22269747.575   -15461314.696 9  -7316545.388 8
 89 11 22 10 53 59.0800000  0  4G 2G 6G11G 9
  25440810.575    25440812.724    13692660.250 8  10480712.321 6
  20770125.522    20770127.957    -6165294.993 8  -6605325.136 8
  21232706.056    21232708.607   -13975025.015 9 -12625782.920 8
  22254573.171    22254574.269   -15541048.458 9  -7378675.553 8
 89 11 22 10 54 29.0800000  0  4G 2G 6G11G 9
  25456226.616    25456230.470    13773679.925 7  10543844.464 6
  20766898.086    20766902.126    -6182251.974 9  -6618538.400 9
  21223328.248    21223330.269   -14024307.685 9 -12664184.979 9
  22239433.459    22239434.297   -15620611.967 9  -7440673.105 9
 89 11 22 10 54 59.0800000  0  4G 2G 6G11G 9
  25471644.001    25471647.618    13854697.138 8  10606974.696 7
  20763748.266    20763751.722    -6198810.893 9  -6631441.473 8
  21214050.217    21214053.374   -14073059.741 9 -12702173.588 8
  22224324.437    22224327.362   -15700003.020 9  -7502536.279 8
 89 11 22 10 55 29.0800000  0  4G 2G 6G11G 9
  25487059.912    25487064.890    13935711.169 6  10670102.465 8
  20760672.560    20760676.119    -6214969.884 9  -6644032.880 9
  21204874.147    21204876.965   -14121280.401 9 -12739748.114 8
  22209251.012    22209252.140   -15779219.288 9  -7564263.205 9
 89 11 22 10 55 59.0800000  0  4G 2G 6G11G 9
  25502478.250    25502481.380    14016722.335 7  10733227.995 8
  20757675.341    20757676.823    -6230727.020 8  -6656311.155 8
  21195799.089    21195800.310   -14168968.888 9 -12776907.962 8
  22194210.525    22194211.830   -15858258.735 9  -7625852.367 9
 89 11 22 10 56 29.0800000  0  4G 2G 6G11G 9
  25517894.415    25517895.929    14097729.967 6  10796350.759 8
  20754752.255    20754756.164    -6246080.506 9  -6668274.921 8
  21186825.842    21186828.930   -14216124.331 9 -12813652.453 7
  22179203.714    22179205.259   -15937118.768 9  -7687301.749 9
 89 11 22 10 56 59.0800000  0  4G 2G 6G11G 9
  25533308.992    25533310.212    14178734.691 6  10859471.289 8
  20751909.245    20751911.949    -6261028.316 9  -6679922.560 8
  21177953.952    21177956.704   -14262746.008 9 -12849981.016 8
  22164230.416    22164233.161   -16015797.495 9  -7748609.836 8
 89 11 22 10 57 29.0800000  0  4G 2G 6G11G 9
  25548719.201    25548725.316    14259736.647 6  10922589.614 8
  20749143.018    20749143.751    -6275568.534 8  -6691252.587 8
  21169184.624    21169187.879   -14308832.751 9 -12885892.755 7
  22149295.011    22149294.592   -16094292.078 9  -7809774.421 9
 89 11 22 10 57 59.0800000  0  4G 2G 6G11G 9
  25564135.162    25564137.616    14340734.956 7  10985705.167 9
  20746453.370    20746455.370    -6289699.326 8  -6702263.603 7
  21160516.436    21160519.592   -14354384.157 9 -12921387.334 8
  22134392.349    22134394.753   -16172600.603 9  -7870794.048 9
 89 11 22 10 58 29.0800000  0  4G 2G 6G11G 9
  25579546.133    25579550.931    14421730.020 7  11048818.146 9
  20743842.638    20743844.756    -6303418.905 9  -6712954.177 8
  21151951.052    21151953.180   -14399399.019 9 -12956463.850 9
  22119527.078    22119529.113   -16250720.601 9  -7931666.780 8
 89 11 22 10 58 59.0800000  0  4G 2G 6G11G 9
  25594960.229    25594963.086    14502721.382 8  11111928.236 9
  20741310.593    20741312.909    -6316725.280 9  -6723322.774 9
  21143485.872    21143489.088   -14443876.422 8 -12991121.551 8
  22104698.101    22104699.689   -16328649.730 9  -7992390.752 8
 89 11 22 10 59 29.0800000  0  4G 2G 6G11G 9
  25610370.695    25610374.568    14583709.649 9  11175035.925 9
  20738857.345    20738860.179    -6329616.809 9  -6733368.128 8
  21135124.864    21135129.306   -14487815.778 9 -13025359.990 8
  22089905.614    22089905.926   -16406385.718 9  -8052964.237 7
 89 11 22 10 59 59.0800000  0  4G 2G 6G11G 9
  25625782.837    25625785.618    14664694.560 9  11238141.019 9
  20736482.692    20736484.767    -6342091.674 9  -6743088.784 8
  21126865.001    21126868.284   -14531216.285 9 -13059178.560 8
  22075149.337    22075150.788   -16483926.229 9  -8113385.420 9
 89 11 22 11  0 29.0800000  0  4G 2G 6G11G 9
  25641192.291    25641196.448    14745675.851 9  11301243.287 9
  20734187.984    20734191.150    -6354147.833 8  -6752483.192 8
  21118710.392    21118713.235   -14574077.137 9 -13092576.609 8
  22060431.271    22060433.825   -16561268.885 8  -8173652.421 8
 89 11 22 11  0 59.0800000  0  4G 2G 6G11G 9
  25656601.925    25656605.682    14826653.829 9  11364342.978 9
  20731974.610    20731977.103    -6365783.540 8  -6761549.966 8
  21110655.984    21110659.702   -14616397.892 8 -13125553.803 8
  22045752.975    22045753.211   -16638411.233 9  -8233763.294 9
 89 11 22 11  1 29.0800000  0  4G 2G 6G11G 9
  25672011.586    25672014.432    14907628.620 9  11427440.199 9
  20729839.938    20729842.733    -6376997.013 9  -6770287.747 8
  21102705.333    21102710.312   -14658177.795 8 -13158109.547 8
  22031111.498    22031111.766   -16715351.009 9  -8293716.353 8
 89 11 22 11  1 59.0800000  0  4G 2G 6G11G 9
  25687420.118    25687422.873    14988600.389 9  11490535.067 9
  20727787.690    20727789.351    -6387786.356 8  -6778695.017 9
  21094858.114    21094862.050   -14699415.851 8 -13190243.079 8
  22016507.928    22016510.847   -16792085.715 9  -8353509.636 9
 89 11 22 11  2 29.0800000  0  4G 2G 6G11G 9
  25702827.481    25702830.742    15069568.165 9  11553626.830 9
  20725814.840    20725817.571    -6398150.072 9  -6786770.637 8
  21087114.136    21087117.709   -14740111.840 9 -13221954.225 8
  22001946.527    22001948.628   -16868613.234 9  -8413141.447 8
 89 11 22 11  2 59.0800000  0  4G 2G 6G11G 9
  25718234.258    25718238.106    15150532.790 9  11616716.132 9
  20723924.144    20723926.451    -6408085.980 9  -6794512.910 9
  21079473.670    21079477.024   -14780264.941 8 -13253242.333 8
  21987423.678    21987424.055   -16944930.911 9  -8472609.755 8
 89 11 22 11  3 29.0800000  0  4G 2G 6G11G 9
  25733641.117    25733644.445    15231494.682 9  11679803.264 9
  20722116.852    20722118.177    -6417592.411 9  -6801920.518 8
  21071936.395    21071940.567   -14819874.574 8 -13284106.975 9
  21972941.063    21972941.478   -17021036.164 9  -8531912.567 8
 89 11 22 11  3 59.0800000  0  4G 2G 6G11G 9
  25749047.318    25749050.499    15312453.323 9  11742887.869 9
  20720389.158    20720391.065    -6426667.557 9  -6808992.078 9
  21064502.382    21064505.360   -14858940.046 9 -13314547.586 9
  21958499.203    21958500.628   -17096926.785 9  -8591048.123 9
 89 11 22 11  4 29.0800000  0  4G 2G 6G11G 9
  25764452.875    25764456.235    15393408.578 9  11805969.865 8
  20718744.048    20718746.440    -6435309.845 9  -6815726.335 9
  21057172.248    21057174.499   -14897461.306 9 -13344564.130 8
  21944099.648    21944100.388   -17172600.589 9  -8650014.740 8
 89 11 22 11  4 59.0800000  0  4G 2G 6G11G 9
                                 -34197301.146 1  11918524.653 1
  20717182.193    20717184.396    -6443517.447 9  -6822121.850 7
  21049945.172    21049948.152   -14935437.657 9 -13374156.080 7
  21929739.987    21929740.975   -17248054.984 9  -8708810.385 8
 89 11 22 11  5 29.0800000  0  4G 2G 6G11G 9
                                 -34362747.788 1  12146519.653 1
  20715703.954    20715705.949    -6451288.514 9  -6828177.224 8
  21042822.583    21042825.516   -14972868.187 9 -13403322.718 8
  21915424.689    21915425.995   -17323287.375 9  -8767433.043 8
 89 11 22 11  5 59.0800000  0  4G 2G 6G11G 9
                                 -34480222.807 1  12374514.653 1
  20714307.501    20714311.257    -6458621.299 9  -6833891.084 8
  21035804.947    21035806.421   -15009752.926 8 -13432064.051 8
  21901150.984    21901152.548   -17398295.328 9  -8825880.804 8
 89 11 22 11  6 29.0800000  0  4G13G 6G11G 9
                                 -34719781.364 8  12602509.653 1
  20712996.988    20712999.148    -6465514.353 9  -6839262.317 8
  21028888.811    21028891.241   -15046091.188 9 -13460379.574 8
  21886920.720    21886922.816   -17473076.537 9  -8884151.898 8
 89 11 22 11  6 59.0800000  0  4G13G 6G11G 9
  23689056.304    23689061.676   -34829605.286 9  43976707.520 9
  20711768.986    20711770.821    -6471965.849 9  -6844289.456 8
  21022076.906    21022079.704   -15081882.721 9 -13488269.058 8
  21872733.612    21872735.655   -17547628.379 8  -8942244.250 8
 89 11 22 11  7 29.0800000  0  4G13G 6G11G 9
  23668203.738    23668206.863   -34939192.448 9  43891314.963 8
  20710625.103    20710627.974    -6477973.938 9  -6848971.086 9
  21015370.939    21015374.645   -15117126.964 9 -13515732.104 8
  21858591.175    21858592.648   -17621948.615 9  -9000156.091 8
 89 11 22 11  7 59.0800000  0  4G13G 6G11G 9
  23647396.356    23647400.388   -35048540.496 9  43806108.691 9
  20709566.504    20709569.210    -6483537.013 9  -6853305.955 8
  21008767.948    21008771.086   -15151823.520 9 -13542768.361 8
  21844493.380    21844493.326   -17696034.716 9  -9057885.534 9
 89 11 22 11  8 29.0800000  0  4G13G 6G11G 9
  23626634.001    23626636.492   -35157646.947 9  43721090.666 8
  20708593.936    20708595.582    -6488653.441 9  -6857292.785 8
  21002270.519    21002273.287   -15185972.259 9 -13569377.756 8
  21830439.182    21830442.274   -17769884.046 8  -9115430.453 8
 89 11 22 11  8 59.0800000  0  4G13G 6G11G 9
  23605918.212    23605920.931   -35266509.944 9  43636262.337 7
  20707703.777    20707707.529    -6493321.762 8  -6860930.460 9
  20995877.051    20995879.419   -15219572.704 9 -13595559.903 7
  21816431.922    21816433.014   -17843494.487 8  -9172789.233 7
 89 11 22 11  9 29.0800000  0  4G13G 6G11G 9
  23585248.491    23585252.297   -35375127.077 9  43551625.580 7
  20706903.147    20706904.530    -6497540.078 8  -6864217.466 8
  20989586.855    20989590.257   -15252624.623 9 -13621314.640 7
  21802469.967    21802471.140   -17916863.270 9  -9229959.699 8
 89 11 22 11  9 59.0800000  0  4G13G 6G11G 9
  23564628.542    23564632.390   -35483495.000 8  43467183.048 7
  20706186.129    20706187.815    -6501306.736 9  -6867152.526 8
  20983401.041    20983404.043   -15285127.441 8 -13646641.510 7
  21788555.623    21788557.828   -17989987.849 9  -9286939.879 8
 89 11 22 11 10 29.0800000  0  4G13G 6G11G 9
  23544053.073    23544056.574   -35591611.508 8  43382936.433 7
  20705555.538    20705556.444    -6504620.087 8  -6869734.366 9
  20977321.321    20977323.865   -15317081.135 8 -13671540.477 8
  21774687.480    21774689.076   -18062865.746 9  -9343727.852 9
 89 11 22 11 10 59.0800000  0  4G13G 6G11G 9
  23523526.717    23523530.780   -35699474.719 9  43298887.198 8
  20705010.461    20705012.664    -6507478.623 9  -6871961.819 8
  20971344.219    20971349.305   -15348485.614 9 -13696011.494 9
  21760866.376    21760868.082   -18135494.477 9  -9400321.680 7
 89 11 22 11 11 29.0800000  0  4G13G 6G11G 9
  23503050.119    23503053.815   -35807082.476 9  43215036.988 8
  20704554.237    20704556.357    -6509880.733 8  -6873833.608 8
  20965473.802    20965476.255   -15379340.322 8 -13720054.104 8
  21747093.665    21747094.956   -18207871.749 9  -9456719.573 8
 89 11 22 11 11 59.0800000  0  4G13G 6G11G 9
  23482622.429    23482625.601   -35914432.061 9  43131387.956 9
  20704182.898    20704186.615    -6511825.030 8  -6875348.655 7
  20959706.955    20959710.453   -15409645.265 9 -13743668.348 7
  21733367.980    21733370.899   -18279994.804 9  -9512919.339 8
 89 11 22 11 12 29.0800000  0  4G13G 6G11G 9
  23462244.919    23462247.772   -36021521.452 9  43047941.679 9
  20703901.180    20703902.645    -6513309.785 9  -6876505.598 8
  20954044.258    20954046.497   -15439400.599 9 -13766854.312 8
  21719693.443    21719694.823   -18351861.260 9  -9568919.154 8
 89 11 22 11 12 59.0800000  0  4G13G 6G11G 9
  23441915.953    23441918.199   -36128348.386 9  42964699.908 8
  20703705.529    20703708.905    -6514333.364 8  -6877303.212 8
  20948486.879    20948489.945   -15468605.868 9 -13789611.658 7
  21706066.874    21706069.128   -18423468.534 9  -9624717.028 8
 89 11 22 11 13 29.0800000  0  4G13G 6G11G 9
  23421637.669    23421641.522   -36234909.714 9  42881665.119 8
  20703598.921    20703601.711    -6514894.121 9  -6877740.172 7
  20943033.216    20943035.913   -15497260.836 9 -13811940.187 8
  21692490.368    21692491.317   -18494814.043 9  -9680310.902 8
 89 11 22 11 13 59.0800000  0  4G13G 6G11G 9
  23401410.354    23401413.453   -36341203.244 8  42798838.980 8
  20703581.890    20703583.547    -6514990.705 9  -6877815.454 9
  20937685.449    20937688.369   -15525365.228 8 -13833839.698 7
  21678964.306    21678965.408   -18565895.113 9  -9735698.740 8
 89 11 22 11 14 29.0800000  0  4G13G 6G11G 9
  23381233.259    23381238.002   -36447227.561 8  42716222.640 8
  20703652.105    20703654.365    -6514621.671 8  -6877527.894 8
  20932441.798    20932443.574   -15552919.343 9 -13855310.431 7
  21665488.239    21665490.250   -18636709.483 9  -9790878.771 8
 89 11 22 11 14 59.0800000  0  4G13G 6G11G 9
  23361110.717    23361114.542   -36552979.310 9  42633818.711 8
  20703810.140    20703813.288    -6513784.978 9  -6876875.938 8
  20927303.228    20927304.364   -15579922.863 9 -13876352.128 7
  21652063.930    21652066.364   -18707253.985 9  -9845848.491 8
 89 11 22 11 15 29.0800000  0  4G13G 6G11G 9
  23341039.683    23341042.745   -36658456.388 9  42551628.801 8
  20704059.322    20704061.256    -6512479.450 9  -6875858.650 6
  20922269.051    20922271.255   -15606375.806 9 -13896964.812 7
  21638691.270    21638693.053   -18777526.599 9  -9900606.386 9
 89 11 22 11 15 59.0800000  0  4G13G 6G11G 9
  23321020.161    23321024.499   -36763656.838 9  42469654.432 9
  20704397.212    20704399.454    -6510703.866 8  -6874475.072 8
  20917340.795    20917342.855   -15632278.228 9 -13917148.496 7
  21625371.759    21625372.931   -18847524.633 8  -9955150.304 8
 89 11 22 11 16 29.0800000  0  4G13G 6G11G 9
  23301055.344    23301058.130   -36868578.435 9  42387897.361 7
  20704823.933    20704827.827    -6508456.599 9  -6872723.973 8
  20912516.826    20912519.479   -15657630.429 9 -13936903.460 7
  21612103.618    21612104.455   -18917245.706 9 -10009478.387 8
 89 11 22 11 16 59.0800000  0  4G13G 6G11G 9
  23281143.031    23281145.978   -36973218.281 9  42306359.819 8
  20705342.948    20705344.778    -6505736.205 8  -6870604.203 8
  20907796.181    20907798.614   -15682432.497 9 -13956229.747 7
  21598889.811    21598891.014   -18986687.157 8 -10063588.616 8
 89 11 22 11 17 29.0800000  0  4G13G 6G11G 9
  23261283.703    23261286.211   -37077574.424 9  42225043.357 7
  20705950.800    20705952.418    -6502541.362 8  -6868114.733 8
  20903182.446    20903184.604   -15706683.989 9 -13975127.005 7
  21585729.256    21585730.298   -19055846.573 8 -10117479.067 9
 89 11 22 11 17 59.0800000  0  4G13G 6G11G 9
  23241479.510    23241483.825   -37181645.089 9  42143949.328 8
  20706649.131    20706651.782    -6498870.404 9  -6865254.266 8
  20898670.892    20898674.797   -15730385.258 9 -13993595.517 7
  21572622.861    21572624.594   -19124721.041 9 -10171147.475 8
 89 11 22 11 18 29.0800000  0  4G13G 6G11G 9
  23221730.498    23221733.918   -37285427.797 9  42063079.701 9
  20707437.816    20707440.288    -6494722.127 9  -6862021.842 8
  20894266.558    20894267.522   -15753536.300 8 -14011635.283 7
  21559571.767    21559573.022   -19193308.183 9 -10224591.982 8
 89 11 22 11 18 59.0800000  0  4G13G 6G11G 9
  23202037.063    23202040.272   -37388920.089 9  41982436.375 8
  20708319.164    20708321.434    -6490094.964 9  -6858416.257 8
  20889964.891    20889967.431   -15776137.410 8 -14029246.529 7
  21546574.311    21546576.093   -19261605.421 8 -10277810.592 8
 89 11 22 11 19 29.0800000  0  4G13G 6G11G 9
  23182398.698    23182401.836   -37492120.011 9  41902020.844 8
  20709290.182    20709292.397    -6484987.699 8  -6854436.591 8
  20885769.032    20885771.717   -15798188.991 9 -14046429.579 8
  21533633.544    21533635.074   -19329610.060 8 -10330801.210 8
 89 11 22 11 19 59.0800000  0  4G13G 6G11G 9
  23162816.776    23162819.626   -37595025.002 9  41821835.117 8
  20710353.425    20710356.703    -6479398.901 9  -6850081.699 7
  20881676.643    20881679.425   -15819690.849 9 -14063184.267 7
  21520749.004    21520751.284   -19397319.397 8 -10383561.713 7
 89 11 22 11 20 29.0800000  0  4G13G 6G11G 9
  23143290.921    23143295.033   -37697633.129 9  41741880.731 7
  20711509.584    20711511.501    -6473327.176 9  -6845350.496 8
  20877689.887    20877692.919   -15840643.350 9 -14079510.883 8
  21507921.312    21507922.202   -19464731.087 8 -10436090.295 8
 89 11 22 11 20 59.0800000  0  4G13G 6G11G 9
  23123821.092    23123825.036   -37799941.823 9  41662159.677 9
  20712757.531    20712759.859    -6466771.090 8  -6840241.854 8
  20873807.102    20873809.984   -15861046.656 9 -14095409.551 8
  21495149.360    21495152.633   -19531842.227 9 -10488384.687 9
 89 11 22 11 21 29.0800000  0  4G13G 6G11G 9
  23104409.612    23104413.376   -37901948.967 9  41582673.593 8
  20714097.310    20714098.652    -6459729.402 8  -6834754.819 9
  20870029.552    20870033.247   -15880901.131 9 -14110880.563 7
  21482437.360    21482439.357   -19598650.360 9 -10540442.962 7
 89 11 22 11 21 59.0800000  0  4G13G 6G11G 9
  23085056.167    23085060.503   -38003652.296 9  41503424.268 8
  20715529.887    20715531.421    -6452200.933 9  -6828888.494 7
  20866355.311    20866358.997   -15900206.942 9 -14125924.039 7
  21469781.085    21469783.110   -19665153.017 9 -10592263.197 7
 89 11 22 11 22 29.0800000  0  4G13G 6G11G 9
  23065760.249    23065765.428   -38105049.738 8  41424413.301 8
  20717055.003    20717057.982    -6444184.362 9  -6822641.818 8
  20862786.118    20862789.106   -15918964.428 8 -14140540.232 8
  21457185.628    21457187.678   -19731347.434 9 -10643843.260 8
 89 11 22 11 22 59.0800000  0  4G13G 6G11G 9
  23046524.558    23046528.428   -38206139.498 9  41345642.107 9
  20718675.303    20718676.715    -6435678.280 9  -6816013.706 8
  20859320.319    20859323.265   -15937173.679 9 -14154729.253 7
  21444647.782    21444649.528   -19797231.012 9 -10695181.098 8
 89 11 22 11 23 29.0800000  0  4G13G 6G11G 9
  23027348.500    23027351.039   -38306918.941 9  41267112.679 8
  20720385.605    20720389.156    -6426681.443 9  -6809003.176 7
  20855960.615    20855963.075   -15954835.221 8 -14168491.492 8
  21432170.170    21432173.889   -19862801.018 9 -10746274.629 8
 89 11 22 11 23 59.0800000  0  4G13G 6G11G 9
  23008229.292    23008232.326   -38407385.988 9  41188826.686 8
  20722190.946    20722193.449    -6417192.653 8  -6801609.327 8
  20852703.009    20852705.303   -15971949.412 9 -14181827.207 8
  21419753.665    21419755.472   -19928054.994 9 -10797121.862 7
 89 11 22 11 24 29.0800000  0  4G13G 6G11G 9
  22989170.730    22989173.596   -38507538.690 9  41110785.641 9
  20724091.777    20724094.740    -6407210.662 8  -6793831.184 8
  20849551.491    20849552.522   -15988516.739 9 -14194736.797 8
  21407396.971    21407398.413   -19992990.042 9 -10847720.594 9
 89 11 22 11 24 59.0800000  0  4G13G 6G11G 9
  22970172.870    22970175.994   -38607374.792 9  41032991.279 8
  20726084.093    20726087.685    -6396734.182 8  -6785667.704 8
  20846502.096    20846505.246   -16004537.425 9 -14207220.449 7
  21395101.718    21395102.211   -20057603.712 9 -10898068.912 9
 89 11 22 11 25 29.0800000  0  4G13G 6G11G 9
  22951235.335    22951238.380   -38706892.484 9  40955444.999 7
  20728173.041    20728174.972    -6385762.098 7  -6777118.028 9
  20843557.073    20843559.778   -16020011.760 9 -14219278.354 7
  21382866.919    21382868.286   -20121893.439 9 -10948164.787 8
 89 11 22 11 25 59.0800000  0  4G13G 6G11G 9
  22932357.870    22932361.198   -38806089.193 9  40878148.860 9
  20730355.521    20730357.985    -6374293.267 8  -6768181.302 8
  20840715.746    20840719.450   -16034940.356 9 -14230911.009 8
  21370696.278    21370696.590   -20185856.606 9 -10998006.209 8
 89 11 22 11 26 29.0800000  0  4G13G 6G11G 9
  22913543.588    22913546.653   -38904962.791 9  40801104.510 8
  20732630.847    20732635.570    -6362326.550 8  -6758856.603 8
  20837979.185    20837983.101   -16049323.833 9 -14242118.904 8
  21358586.534    21358587.472   -20249490.432 9 -11047591.007 8
 89 11 22 11 26 59.0800000  0  4G13G 6G11G 9
  22894790.823    22894793.138   -39003511.214 9  40724313.525 8
  20735004.857    20735006.808    -6349860.850 9  -6749143.075 8
  20835345.565    20835349.406   -16063162.628 9 -14252902.378 8
  21346540.276    21346542.291   -20312792.304 9 -11096917.122 8
 89 11 22 11 27 29.0800000  0  4G13G 6G11G 9
  22876099.673    22876102.729   -39101732.653 9  40647777.305 7
  20737472.523    20737475.290    -6336894.982 9  -6739039.827 7
  20832815.939    20832818.279   -16076457.142 9 -14263261.722 8
  21334557.587    21334560.024   -20375759.728 8 -11145982.641 7
 89 11 22 11 27 59.0800000  0  4G13G 6G11G 9
  22857471.200    22857473.112   -39199625.171 9  40571497.407 8
  20740034.565    20740037.150    -6323427.977 8  -6728546.049 8
  20830389.246    20830392.326   -16089207.957 9 -14273197.407 8
  21322639.678    21322642.487   -20438390.305 9 -11194785.663 8
 89 11 22 11 28 29.0800000  0  4G13G 6G11G 9
  22838906.070    22838909.562   -39297186.467 9  40495475.613 8
  20742691.664    20742694.879    -6309458.671 8  -6717660.881 8
  20828066.278    20828070.026   -16101415.697 9 -14282709.923 7
  21310786.322    21310787.942   -20500681.111 9 -11243323.940 9
 89 11 22 11 28 59.0800000  0  4G13G 6G11G 9
  22820404.075    22820406.584   -39394414.764 9  40419713.283 8
  20745447.146    20745450.686    -6294985.930 8  -6706383.440 7
  20825846.577    20825850.260   -16113080.990 9 -14291799.751 8
  21298997.194    21298999.276   -20562629.470 9 -11291595.366 8
 89 11 22 11 29 29.0800000  0  4G13G 6G11G 9
  22801964.927    22801968.944   -39491307.422 9  40344212.501 7
  20748296.944    20748299.600    -6280008.849 9  -6694712.990 8
  20823729.541    20823732.610   -16124204.536 9 -14300467.442 7
  21287273.777    21287276.926   -20624232.961 9 -11339598.082 8
 89 11 22 11 29 59.0800000  0  4G13G 6G11G 9
  22783590.123    22783596.066   -39587862.590 8  40268974.726 7
  20751243.246    20751245.092    -6264526.134 9  -6682648.535 8
  20821716.689    20821719.809   -16134786.818 8 -14308713.364 8
  21275618.748    21275620.719   -20685488.466 9 -11387329.625 7
 89 11 22 11 30 29.0800000  0  4G13G 6G11G 9
  22765282.415    22765286.600   -39684078.175 8  40194001.574 7
  20754284.993    20754288.003    -6248537.022 9  -6670189.507 7
  20819804.908    20819808.265   -16144828.633 9 -14316538.145 8
  21264028.724    21264030.279   -20746393.749 9 -11434788.281 8
 89 11 22 11 30 59.0800000  0  4G13G 6G11G 9
  22747038.445    22747040.825   -39779953.009 9  40119293.935 8
  20757424.782    20757427.586    -6232040.159 8  -6657334.810 8
  20817999.051    20818000.385   -16154330.539 9 -14323942.204 8
  21252505.145    21252505.833   -20806946.083 8 -11481971.900 8
 89 11 22 11 31 29.0800000  0  4G13G 6G11G 9
  22728858.891    22728862.507   -39875484.187 9  40044854.064 7
  20760660.552    20760663.412    -6215034.677 9  -6644083.789 8
  20816291.642    20816294.620   -16163293.093 9 -14330926.014 8
  21241050.122    21241052.163   -20867142.364 9 -11528878.085 8
 89 11 22 11 31 59.0800000  0  4G13G 6G11G 9
  22710746.678    22710748.539   -39970669.743 9  39970683.518 8
  20763994.409    20763996.572    -6197519.746 9  -6630435.806 8
  20814689.957    20814690.522   -16171717.028 9 -14337490.098 8
  21229664.270    21229666.407   -20926980.596 9 -11575505.275 8
 89 11 22 11 32 29.0800000  0  4G13G 6G11G 9
  22692698.994    22692702.491   -40065508.378 9  39896783.274 9
  20767424.685    20767427.634    -6179494.527 9  -6616390.208 7
  20813188.195    20813191.462   -16179603.311 8 -14343635.254 7
  21218347.211    21218346.729   -20986457.906 9 -11621851.228 8
 89 11 22 11 32 59.0800000  0  4G13G 6G11G 9
  22674717.827    22674721.977   -40159997.688 9  39823155.232 9
  20770951.078    20770954.059    -6160957.966 8  -6601946.130 9
  20811789.511    20811791.819   -16186952.685 8 -14349362.022 8
  21207097.530    21207098.263   -21045571.871 9 -11667914.068 8
 89 11 22 11 33 29.0800000  0  4G13G 6G11G 9
  22656804.108    22656807.808   -40254135.709 9  39749800.946 8
  20774575.790    20774578.719    -6141909.065 9  -6587102.845 7
  20810492.523    20810495.771   -16193765.690 9 -14354670.871 8
  21195917.587    21195919.333   -21104319.553 9 -11713691.463 7
 89 11 22 11 33 59.0800000  0  4G13G 6G11G 9
  22638957.535    22638960.036   -40347920.857 9  39676721.602 9
  20778299.241    20778301.216    -6122347.288 9  -6571859.903 7
  20809298.492    20809300.507   -16200043.430 9 -14359562.583 8
  21184808.851    21184809.141   -21162698.633 9 -11759181.651 7
 89 11 22 11 34 29.0800000  0  4G13G 6G11G 9
  22621178.730    22621182.488   -40441350.799 9  39603919.032 8
  20782120.461    20782121.143    -6102271.428 9  -6556216.388 7
  20808205.370    20808207.732   -16205786.500 9 -14364037.712 8
  21173771.154    21173770.252   -21220706.310 9 -11804382.426 7
 89 11 22 11 34 59.0800000  0  4G13G 6G11G 9
  22603466.439    22603469.515   -40534424.163 9  39531394.324 8
  20786036.874    20786040.783    -6081680.983 9  -6540171.898 8
  20807214.113    20807215.980   -16210995.997 9 -14368097.042 7
  21162803.310    21162803.444   -21278340.026 8 -11849291.823 8
 89 11 22 11 35 29.0800000  0  4G13G 6G11G 9
  22585824.590    22585828.229   -40627139.173 9  39459148.862 8
  20790054.371    20790057.241    -6060574.826 9  -6523725.563 8
  20806323.542    20806325.847   -16215672.555 9 -14371741.103 8
  21151907.379    21151908.015   -21335597.109 9 -11893907.707 8
 89 11 22 11 35 59.0800000  0  4G13G 6G11G 9
  22568250.685    22568252.602   -40719493.509 9  39387184.442 8
  20794168.677    20794171.802    -6038952.228 9  -6506876.807 8
  20805535.223    20805536.982   -16219816.994 9 -14374970.514 7
  21141083.912    21141085.139   -21392474.952 9 -11938228.102 8
 89 11 22 11 36 29.0800000  0  4G13G 6G11G 9
  22550743.593    22550747.624   -40811485.581 9  39315502.289 8
  20798381.626    20798384.375    -6016812.625 9  -6489625.199 8
  20804846.305    20804849.704   -16223430.481 9 -14377786.212 7
  21130333.330    21130335.544   -21448971.113 9 -11982251.087 8
 89 11 22 11 36 59.0800000  0  4G13G 6G11G 9
  22533307.435    22533310.546   -40903113.149 8  39244104.203 7
  20802694.563    20802695.516    -5994154.978 9  -6471969.881 8
  20804260.252    20804264.441   -16226513.902 9 -14380188.881 8
  21119655.552    21119657.416   -21505082.634 9 -12025974.333 8
 89 11 22 11 37 29.0800000  0  4G13G 6G11G 9
  22515941.652    22515943.823   -40994374.369 8  39172991.569 8
  20807104.489    20807105.424    -5970978.896 9  -6453910.610 7
  20803774.928    20803777.283   -16229068.508 9 -14382179.458 8
  21109050.607    21109052.940   -21560807.446 9 -12069396.258 9
 89 11 22 11 37 59.0800000  0  4G13G 6G11G 9
  22498645.410    22498647.862   -41085267.507 9  39102165.743 8
  20811612.470    20811614.290    -5947283.503 9  -6435446.675 8
  20803388.949    20803391.263   -16231095.143 9 -14383758.653 7
  21098519.855    21098522.203   -21616142.625 9 -12112514.575 8
 89 11 22 11 38 29.0800000  0  4G13G 6G11G 9
  22481419.648    22481422.338   -41175791.337 9  39031627.696 7
  20816220.843    20816223.743    -5923067.957 9  -6416577.440 8
  20803103.834    20803106.935   -16232594.520 9 -14384926.999 8
  21088065.183    21088066.989   -21671085.542 9 -12155327.221 8
 89 11 22 11 38 59.0800000  0  4G13G 6G11G 9
  22464264.644    22464267.301   -41265943.457 9  38961379.266 8
  20820927.990    20820930.538    -5898331.715 9  -6397302.477 8
  20802918.987    20802920.262   -16233567.934 8 -14385685.501 8
  21077685.829    21077686.773   -21725633.520 9 -12197832.150 8
 89 11 22 11 39 29.0800000  0  4G13G 6G11G 9
  22447179.289    22447182.470   -41355722.421 9  38891421.608 7
  20825735.230    20825736.660    -5873074.065 9  -6377621.190 8
  20802834.203    20802836.665   -16234016.514 9 -14386035.035 7
  21067381.052    21067382.335   -21779784.221 9 -12240027.487 8
 89 11 22 11 39 59.0800000  0  4G13G 6G11G 9
  22430165.443    22430170.021   -41445125.965 9  38821756.526 8
  20830640.616    20830643.033    -5847294.066 9  -6357532.888 8
  20802847.854    20802849.873   -16233940.466 9 -14385975.757 7
  21057152.535    21057153.592   -21833534.481 9 -12281910.795 7
 89 11 22 11 40 29.0800000  0  4G13G 6G11G 9
  22413225.938    22413227.726   -41534153.131 9  38752384.717 8
  20835645.831    20835647.805    -5820991.483 9  -6337037.367 8
  20802961.597    20802964.029   -16233341.616 9 -14385509.111 7
  21047000.789    21047003.103   -21886882.276 9 -12323480.502 8
 89 11 22 11 40 59.0800000  0  4G13G 6G11G 9
  22396356.149    22396358.891   -41622801.844 9  38683307.778 8
  20840749.314    20840751.019    -5794165.711 9  -6316134.187 8
  20803175.323    20803176.456   -16232220.801 8 -14384635.740 8
  21036926.736    21036928.115   -21939824.945 9 -12364734.516 8
 89 11 22 11 41 29.0800000  0  4G13G 6G11G 9
  22379558.320    22379560.129   -41711070.246 9  38614527.205 8
  20845953.857    20845957.352    -5766815.868 9  -6294822.630 8
  20803487.828    20803490.161   -16230578.918 8 -14383356.358 7
  21026928.563    21026930.586   -21992359.592 9 -12405670.592 7
 89 11 22 11 41 59.0800000  0  4G13G 6G11G 9
  22362834.973    22362837.459   -41798956.576 9  38546044.364 9
  20851259.456    20851262.115    -5738941.622 9  -6273102.459 8
  20803897.978    20803901.514   -16228417.588 9 -14381672.182 8
  21017010.415    21017011.176   -22044483.727 8 -12446286.793 7
 89 11 22 11 42 29.0800000  0  4G13G 6G11G 9
  22346183.877    22346186.252   -41886459.197 9  38477860.499 7
  20856663.724    20856665.314    -5710542.314 9  -6250973.119 9
  20804409.014    20804411.627   -16225737.734 9 -14379583.986 7
  21007169.253    21007171.828   -22096194.900 9 -12486581.210 7
 89 11 22 11 42 59.0800000  0  4G13G 6G11G 9
  22329604.756    22329608.891   -41973576.738 9  38409976.682 8
  20862166.941    20862169.557    -5681617.663 9  -6228434.439 8
  20805017.368    20805020.527   -16222540.775 8 -14377092.828 7
  20997408.095    20997410.205   -22147490.695 9 -12526551.934 8
 89 11 22 11 43 29.0800000  0  4G13G 6G11G 9
  22313100.298    22313102.664   -42060307.716 9  38342394.135 8
  20867771.355    20867774.108    -5652166.868 9  -6205485.795 8
  20805724.707    20805725.637   -16218827.667 9 -14374199.482 8
  20987727.749    20987728.146   -22198368.322 9 -12566196.824 9
 89 11 22 11 43 59.0800000  0  4G13G 6G11G 9
  22296670.286    22296673.503   -42146649.678 9  38275114.700 8
  20873474.944    20873476.250    -5622189.509 9  -6182126.837 8
  20806527.713    20806532.028   -16214599.334 9 -14370904.676 7
  20978125.909    20978126.792   -22248825.097 9 -12605513.786 8
 89 11 22 11 44 29.0800000  0  4G13G 6G11G 9
  22280314.064    22280316.898   -42232601.039 9  38208139.606 7
  20879281.448    20879282.305    -5591685.200 9  -6158357.257 8
  20807430.328    20807434.020   -16209857.420 8 -14367209.682 7
  20968604.361    20968604.632   -22298858.667 8 -12644500.980 7
 89 11 22 11 44 59.0800000  0  4G13G 6G11G 9
  22264033.463    22264036.250   -42318160.059 9  38141470.266 9
  20885187.348    20885188.092    -5560653.415 9  -6134176.643 8
  20808429.878    20808433.537   -16204602.709 9 -14363115.074 8
  20959164.471    20959165.349   -22348466.330 9 -12683156.293 8
 89 11 22 11 45 29.0800000  0  4G13G 6G11G 9
  22247828.411    22247831.604   -42403325.368 9  38075107.688 8
  20891191.901    20891193.077    -5529093.859 9  -6109584.783 8
  20809526.959    20809530.713   -16198836.884 8 -14358622.221 8
  20949805.844    20949806.546   -22397645.538 9 -12721477.740 7
 89 11 22 11 45 59.0800000  0  4G13G 6G11G 9
  22231695.860    22231698.865   -42488095.793 9  38009052.811 8
  20897297.735    20897299.532    -5497006.172 9  -6084581.420 8
  20810721.733    20810724.187   -16192561.266 8 -14353732.116 8
  20940529.948    20940530.844   -22446394.050 9 -12759463.602 7
 89 11 22 11 46 29.0800000  0  4G13G 6G11G 9
  22215640.151    22215643.324   -42572469.712 9  37943306.909 8
  20903503.484    20903507.137    -5464389.793 9  -6059166.085 8
  20812012.987    20812016.268   -16185777.085 9 -14348445.737 8
  20931335.431    20931336.207   -22494709.043 9 -12797111.641 7
 89 11 22 11 46 59.0800000  0  4G13G 6G11G 9
  22199660.368    22199663.176   -42656445.127 9  37877871.508 8
  20909811.956    20909813.416    -5431244.325 9  -6033338.453 7
  20813400.192    20813403.454   -16178485.324 8 -14342763.827 7
  20922224.314    20922225.019   -22542587.865 9 -12834419.806 8
 89 11 22 11 47 29.0800000  0  4G13G 6G11G 9
  22183755.824    22183759.429   -42740020.766 9  37812747.627 8
  20916220.984    20916222.407    -5397569.501 9  -6007098.325 8
  20814884.544    20814886.054   -16170687.263 7 -14336687.421 7
  20913197.325    20913196.835   -22590028.224 9 -12871386.331 8
 89 11 22 11 47 59.0800000  0  4G13G 6G11G 9
  22167928.157    22167930.772   -42823194.902 9  37747936.635 8
  20922730.183    20922728.354    -5363365.114 9  -5980445.546 8
  20816463.710    20816467.666   -16162384.889 9 -14330218.018 8
  20904253.600    20904253.359   -22637027.429 9 -12908009.076 7
 89 11 22 11 48 29.0800000  0  4G13G 6G11G 9
  22152177.826    22152181.150   -42905966.677 9  37683439.159 8
  20929339.696    20929339.837    -5328630.703 9  -5953379.780 8
  20818139.784    20818143.010   -16153579.214 7 -14323356.447 7
  20895392.631    20895394.837   -22683583.127 8 -12944286.234 8
 89 11 22 11 48 59.0800000  0  4G13G 6G11G 9
  22136502.821    22136507.896   -42988333.524 9  37619257.172 8
  20936048.624    20936051.242    -5293365.991 9  -5925900.789 9
  20819909.823    20819914.244   -16144271.412 8 -14316103.599 8
  20886619.138    20886621.335   -22729692.753 9 -12980215.809 7
 89 11 22 11 49 29.0800000  0  4G13G 6G11G 9
  22120906.848    22120910.639   -43070294.431 9  37555391.558 8
  20942860.901    20942863.513    -5257570.986 8  -5898008.594 8
  20821776.673    20821781.522   -16134463.261 8 -14308460.884 8
  20877930.523    20877932.538   -22775353.861 9 -13015795.888 7
 89 11 22 11 49 59.0800000  0  4G13G 6G11G 9
  22105388.564    22105391.415   -43151847.685 9  37491843.577 9
  20949774.045    20949775.935    -5221245.190 9  -5869702.785 8
  20823738.745    20823742.579   -16124155.813 9 -14300429.109 8
  20869328.000    20869327.809   -22820563.957 9 -13051024.521 7
 89 11 22 11 50 29.0800000  0  4G13G 6G11G 9
  22089946.389    22089949.882   -43232991.986 9  37428614.233 7
  20956787.625    20956789.630    -5184388.498 9  -5840983.283 7
  20825794.931    20825797.912   -16113350.548 9 -14292009.404 7
  20860810.259    20860811.503   -22865320.428 9 -13085899.698 8
 89 11 22 11 50 59.0800000  0  4G13G 6G11G 9
  22074583.717    22074587.257   -43313726.237 9  37365704.439 8
  20963903.114    20963904.001    -5147000.582 9  -5811849.858 8
  20827944.665    20827948.926   -16102048.843 9 -14283202.861 9
  20852380.073    20852380.517   -22909620.741 9 -13120419.423 7
 89 11 22 11 51 29.0800000  0  4G13G 6G11G 9
  22059298.557    22059302.498   -43394048.448 9  37303115.695 8
  20971118.357    20971119.157    -5109081.396 9  -5782302.446 8
  20830189.088    20830193.717   -16090252.226 7 -14274010.705 6
  20844037.106    20844038.758   -22953462.428 9 -13154581.778 7
 89 11 22 11 51 59.0800000  0  4G13G 6G11G 9
  22044092.212    22044095.653   -43473957.534 9  37240848.874 8
  20978435.078    20978435.889    -5070630.701 9  -5752340.876 8
  20832529.825    20832532.341   -16077962.308 7 -14264434.120 6
  20835782.712    20835782.833   -22996843.322 8 -13188385.039 7
 89 11 22 11 52 29.0800000  0  4G13G 6G11G 9
  22028964.907    22028966.981   -43553451.760 9  37178905.331 8
  20985851.448    20985855.128    -5031648.433 9  -5721965.098 8
  20834961.611    20834965.798   -16065180.352 8 -14254474.152 7
  20827615.717    20827616.297   -23039760.822 8 -13221827.248 7
 89 11 22 11 52 59.0800000  0  4G13G 6G11G 9
  22013917.331    22013920.614   -43632530.182 9  37117285.778 8
  20993372.071    20993373.289    -4992134.825 9  -5691175.285 8
  20837487.327    20837490.054   -16051908.279 9 -14244132.267 8
  20819535.616    20819538.587   -23082212.801 9 -13254906.721 7
 89 11 22 11 53 29.0800000  0  4G13G 6G11G 9
  21998948.093    21998951.526   -43711191.644 9  37055991.145 8
  21000992.631    21000993.349    -4952089.622 9  -5659971.239 8
  20840105.157    20840108.583   -16038147.890 9 -14233409.880 8
  20811546.892    20811548.720   -23124196.543 9 -13287621.321 7
 89 11 22 11 53 59.0800000  0  4G13G 6G11G 9
  21984059.034    21984060.580   -43789434.503 8  36995022.706 7
  21008714.359    21008714.517    -4911512.517 9  -5628352.719 8
  20842817.021    20842819.505   -16023900.113 8 -14222307.714 7
  20803648.357    20803648.680   -23165709.477 9 -13319969.052 8
 89 11 22 11 54 29.0800000  0  4G13G 6G11G 9
  21969250.853    21969253.536   -43867257.623 8  36934381.301 7
  21016536.758    21016537.591    -4870403.678 9  -5596319.873 8
  20845620.297    20845624.442   -16009166.613 9 -14210827.056 7
  20795838.914    20795839.925   -23206749.530 8 -13351948.296 7
 89 11 22 11 54 59.0800000  0  4G13G 6G11G 9
  21954520.067    21954524.888   -43944659.317 9  36874068.293 9
  21024460.299    21024463.034    -4828763.091 8  -5563872.692 8
  20848516.047    20848518.288   -15993948.597 9 -14198968.851 8
  20788118.670    20788119.851   -23247314.179 9 -13383557.098 8
 89 11 22 11 55 29.0800000  0  4G13G 6G11G 9
  21939873.126    21939875.551   -44021638.433 9  36814084.610 7
  21032486.183    21032487.644    -4786590.642 9  -5531011.048 8
  20851504.086    20851506.406   -15978248.117 8 -14186734.708 7
  20780490.518    20780491.960   -23287400.874 9 -13414793.480 8
 89 11 22 11 55 59.0800000  0  4G13G 6G11G 9
  21925304.608    21925308.121   -44098193.735 9  36754431.125 7
  21040611.752    21040613.701    -4743886.750 9  -5497735.314 8
  20854582.338    20854588.104   -15962067.084 8 -14174126.114 8
  20772952.640    20772955.982   -23327007.623 8 -13445655.879 7
 89 11 22 11 56 29.0800000  0  4G13G 6G11G 9
  21910816.377    21910821.392   -44174323.789 9  36695109.009 8
  21048839.804    21048842.183    -4700650.971 9  -5464045.111 9
  20857753.925    20857755.752   -15945406.611 9 -14161143.897 7
  20765509.048    20765510.225   -23366131.672 9 -13476142.144 8
 89 11 22 11 56 59.0800000  0  4G13G 6G11G 9
  21896411.883    21896415.089   -44250027.337 9  36636119.265 8
  21057168.372    21057169.376    -4656883.613 9  -5429940.682 8
  20861014.979    20861017.457   -15928268.341 9 -14147789.397 8
  20758155.383    20758157.404   -23404770.826 9 -13506250.575 7
 89 11 22 11 57 29.0800000  0  4G13G 6G11G 9
  21882087.604    21882089.720   -44325303.452 9  36577462.563 8
  21065598.950    21065599.653    -4612584.964 9  -5395422.261 8
  20864365.874    20864369.138   -15910654.292 8 -14134064.151 7
  20750895.592    20750896.566   -23442922.896 9 -13535979.451 7
 89 11 22 11 57 59.0800000  0  4G13G 6G11G 9
  21867844.114    21867846.032   -44400151.169 9  36519139.656 8
  21074128.683    21074131.518    -4567754.950 9  -5360489.806 9
  20867808.290    20867812.278   -15892565.996 9 -14119969.375 8
  20743728.526    20743729.958   -23480585.421 9 -13565326.861 7
 89 11 22 11 58 29.0800000  0  4G13G 6G11G 9
  21853682.542    21853686.005   -44474568.818 9  36461151.888 8
  21082759.354    21082762.661    -4522393.817 9  -5325143.499 9
  20871340.599    20871343.642   -15874004.965 9 -14105506.226 7
  20736655.922    20736657.157   -23517756.169 8 -13594291.074 7
 89 11 22 11 58 59.0800000  0  4G13G 6G11G 9
  21839603.855    21839606.159   -44548555.116 9  36403500.242 8
  21091494.166    21091496.057    -4476501.500 9  -5289383.271 9
  20874962.951    20874965.333   -15854972.978 9 -14090676.103 7
  20729676.769    20729678.117   -23554432.505 9 -13622870.020 8
 89 11 22 11 59 29.0800000  0  4G13G 6G11G 9
  21825605.906    21825609.046   -44622109.267 9  36346185.319 8
  21100328.549    21100330.482    -4430078.427 9  -5253209.455 8
  20878673.938    20878676.626   -15835471.801 9 -14075480.368 7
  20722791.356    20722792.240   -23590612.423 9 -13651062.155 8
 89 11 22 11 59 59.0800000  0  4G13G 6G11G 9
  21811691.786    21811693.854   -44695229.631 9  36289208.406 8
  21109263.002    21109265.351    -4383124.670 9  -5216622.138 9
  20882473.726    20882474.275   -15815503.297 9 -14059920.488 7
  20716000.736    20716002.390   -23626293.641 9 -13678865.724 7
 89 11 22 12  0 29.0800000  0  4G13G 6G11G 9
  21797860.068    21797863.825   -44767915.717 9  36232569.860 8
  21118298.855    21118300.360    -4335640.591 9  -5179621.561 8
  20886361.866    20886365.496   -15795069.003 9 -14043997.662 7
  20709307.471    20709308.158   -23661473.876 9 -13706278.882 7
 89 11 22 12  0 59.0800000  0  4G13G 6G11G 9
  21784111.791    21784113.766   -44840166.297 9  36176270.717 8
  21127435.570    21127438.134    -4287626.389 9  -5142207.916 8
  20890339.852    20890339.826   -15774170.678 9 -14027713.233 7
  20702708.494    20702709.761   -23696150.817 8 -13733299.869 7
 89 11 22 12  1 29.0800000  0  4G13G 6G11G 9
  21770446.307    21770449.090   -44911980.118 9  36120311.895 8
  21136672.738    21136675.445    -4239082.357 9  -5104381.417 9
  20894403.769    20894405.456   -15752810.306 9 -14011068.779 8
  20696205.823    20696207.483   -23730322.247 9 -13759926.964 8
 89 11 22 12  1 59.0800000  0  4G13G 6G11G 9
  21756861.693    21756867.559   -44983355.979 9  36064694.320 7
  21146011.085    21146013.434    -4190008.886 9  -5066142.370 9
  20898556.956    20898558.198   -15730989.595 9 -13994065.631 8
  20689799.180    20689800.518   -23763986.059 8 -13786158.505 8
 89 11 22 12  2 29.0800000  0  4G13G 6G11G 9
  21743364.241    21743367.868   -45054292.885 9  36009418.845 8
  21155450.213    21155453.478    -4140406.117 9  -5027490.876 9
  20902795.537    20902797.457   -15708710.163 9 -13976705.007 7
  20683490.532    20683491.770   -23797139.948 9 -13811992.683 7
 89 11 22 12  2 59.0800000  0  4G13G 6G11G 9
  21729949.981    21729952.842   -45124789.718 9  35954486.243 8
  21164991.263    21164993.340    -4090274.651 9  -4988427.409 9
  20907122.640    20907123.619   -15685973.872 9 -13958988.413 8
  20677278.673    20677280.322   -23829781.756 8 -13837427.861 8
 89 11 22 12  3 29.0800000  0  4G13G 6G11G 9
  21716617.999    21716621.009   -45194845.634 9  35899897.236 7
  21174630.503    21174632.738    -4039614.691 9  -4948952.118 9
  20911535.215    20911537.658   -15662782.651 9 -13940917.328 8
  20671166.125    20671165.957   -23861909.314 8 -13862462.302 8
 89 11 22 12  3 59.0800000  0  4G13G 6G11G 9
  21703372.164    21703374.081   -45264459.269 9  35845652.839 8
  21184372.013    21184374.562    -3988426.626 9  -4909065.326 8
  20916035.628    20916037.670   -15639138.200 9 -13922493.071 8
  20665149.642    20665151.127   -23893520.332 9 -13887094.261 7
 89 11 22 12  4 29.0800000  0  4G13G 6G11G 9
  21690208.540    21690210.636   -45333630.024 9  35791753.561 8
  21194213.140    21194214.917    -3936710.849 9  -4868767.337 9
  20920619.147    20920622.584   -15615042.244 8 -13903716.990 7
  20659233.497    20659234.779   -23924612.669 9 -13911322.052 8
 89 11 22 12  4 59.0800000  0  4G13G 6G11G 9
  21677129.788    21677133.157   -45402357.008 9  35738200.064 8
  21204154.921    21204155.810    -3884467.695 9  -4828058.382 9
  20925290.505    20925293.240   -15590496.596 9 -13884590.500 8
  20653414.493    20653417.290   -23955184.207 8 -13935144.023 7
 89 11 22 12  5 29.0800000  0  4G13G 6G11G 9
  21664137.260    21664140.400   -45470638.902 9  35684993.387 7
  21214195.673    21214198.867    -3831697.747 9  -4786938.972 8
  20930047.171    20930049.255   -15565503.477 9 -13865115.339 8
  20647698.484    20647699.243   -23985232.652 8 -13958558.390 8
 89 11 22 12  5 59.0800000  0  4G13G 6G11G 9
  21651227.406    21651230.782   -45538475.043 9  35632134.063 8
  21224338.228    21224340.491    -3778401.748 9  -4745409.627 8
  20934887.379    20934890.511   -15540064.718 9 -13845292.920 9
  20642080.061    20642081.156   -24014756.304 9 -13981563.836 8
 89 11 22 12  6 29.0800000  0  4G13G 6G11G 9
  21638404.168    21638405.556   -45605864.817 9  35579622.565 9
  21234580.272    21234582.219    -3724580.100 9  -4703470.693 8
  20939812.780    20939815.472   -15514182.114 9 -13825124.651 8
  20636562.430    20636562.573   -24043753.001 9 -14004158.658 7
 89 11 22 12  6 59.0800000  0  4G13G 6G11G 9
  21625665.230    21625669.107   -45672807.025 9  35527459.796 7
  21244922.719    21244923.594    -3670233.155 9  -4661122.436 8
  20944823.250    20944824.709   -15487857.674 9 -13804612.102 8
  20631143.358    20631146.782   -24072220.475 8 -14026341.112 8
 89 11 22 12  7 29.0800000  0  4G13G 6G11G 9
  21613012.178    21613015.439   -45739300.813 9  35475646.458 8
  21255363.485    21255364.561    -3615361.450 9  -4618365.276 8
  20949916.577    20949918.200   -15461093.099 9 -13783756.590 8
  20625828.273    20625828.552   -24100156.706 8 -14048109.597 8
 89 11 22 12  7 59.0800000  0  4G13G 6G11G 9
  21600444.824    21600447.528   -45805345.388 9  35424183.160 8
  21265905.394    21265907.356    -3559965.482 9  -4575199.587 8
  20955092.565    20955093.412   -15433890.557 9 -13762559.797 7
  20620613.552    20620614.862   -24127559.404 9 -14069462.354 8
 89 11 22 12  8 29.0800000  0  4G13G 6G11G 9
  21587961.746    21587965.329   -45870939.631 9  35373070.759 8
  21276546.110    21276547.730    -3504046.053 9  -4531626.024 8
  20960351.113    20960353.604   -15406251.797 9 -13741023.097 7
  20615502.646    20615502.201   -24154426.852 9 -14090398.010 8
 89 11 22 12  8 59.0800000  0  4G13G 6G11G 9
  21575565.740    21575568.487   -45936082.922 9  35322309.770 8
  21287286.990    21287288.165    -3447603.617 9  -4487644.921 8
  20965694.444    20965696.299   -15378178.586 9 -13719147.871 7
  20610490.148    20610492.251   -24180756.970 9 -14110914.998 8
 89 11 22 12  9 29.0800000  0  4G13G 6G11G 9
  21563255.924    21563258.527   -46000774.308 9  35271900.915 8
  21298127.112    21298129.560    -3390639.042 9  -4443256.947 8
  20971118.768    20971120.755   -15349673.057 9 -13696935.763 7
  20605582.765    20605583.287   -24206547.666 8 -14131011.643 7
 89 11 22 12  9 59.0800000  0  4G13G 6G11G 9
  21551031.004    21551033.329   -46065013.244 9  35221844.606 8
  21309066.884    21309068.603    -3333152.936 9  -4398462.591 8
  20976624.580    20976627.427   -15320737.459 9 -13674388.546 8
  20600779.140    20600778.364   -24231796.966 8 -14150686.423 7
 89 11 22 12 10 29.0800000  0  4G13G 6G11G 9
  21538893.266    21538895.540   -46128798.651 9  35172141.698 8
  21320105.168    21320106.601    -3275145.815 9  -4353262.248 8
  20982212.080    20982214.693   -15291373.616 9 -13651507.629 8
  20596076.565    20596078.395   -24256503.017 9 -14169937.887 6
 89 11 22 12 10 59.0800000  0  4G13G 6G11G 9
  21526841.621    21526844.411   -46192129.931 9  35122792.650 8
  21331242.382    21331243.485    -3216618.343 9  -4307656.439 8
  20987880.400    20987882.814   -15261583.227 9 -13628294.333 8
  20591479.755    20591480.457   -24280663.760 9 -14188764.436 7
 89 11 22 12 11 29.0800000  0  4G13G 6G11G 9
  21514875.930    21514879.615   -46255006.318 9  35073798.076 7
  21342478.089    21342480.467    -3157571.319 9  -4261645.781 8
  20993630.868    20993632.001   -15231368.347 9 -13604750.259 8
  20586986.359    20586986.962   -24304277.317 9 -14207164.616 6
 89 11 22 12 11 59.0800000  0  4G13G 6G11G 9
  21502997.279    21502999.976   -46317426.930 9  35025158.640 8
  21353813.049    21353816.243    -3098005.450 9  -4215230.827 9
  20999461.359    20999462.449   -15200731.071 8 -13580877.057 8
  20582597.832    20582597.167   -24327341.823 9 -14225136.958 7
 89 11 22 12 12 29.0800000  0  4G13G 6G11G 9
  21491206.181    21491209.800   -46379391.600 9  34976874.492 8
  21365246.544    21365248.922    -3037921.418 9  -4168412.109 8
  21005371.460    21005373.211   -15169673.319 8 -13556676.208 8
  20578313.069    20578315.012   -24349855.017 9 -14242679.724 7
 89 11 22 12 12 59.0800000  0  4G13G 6G11G 9
  21479502.390    21479504.299   -46440899.136 9  34928946.555 7
  21376778.270    21376780.762    -2977320.238 9  -4121190.423 9
  21011360.113    21011363.113   -15138197.284 8 -13532149.414 8
  20574133.356    20574134.760   -24371815.271 9 -14259791.611 7
 89 11 22 12 13 29.0800000  0  4G13G 6G11G 9
  21467884.945    21467888.264   -46501949.215 9  34881375.069 8
  21388409.804    21388410.392    -2916202.644 9  -4073566.326 9
  21017429.539    21017432.493   -15106305.059 9 -13507298.335 7
  20570061.052    20570061.050   -24393220.914 9 -14276471.331 7
 89 11 22 12 13 59.0800000  0  4G13G 6G11G 9
  21456353.620    21456356.760   -46562540.558 9  34834161.040 8
  21400137.491    21400139.296    -2854569.260 9  -4025540.340 8
  21023577.640    21023580.013   -15073998.110 9 -13482124.082 8
  20566092.207    20566094.948   -24414069.612 8 -14292717.074 7
 89 11 22 12 14 29.0800000  0  4G13G 6G11G 9
  21444912.027    21444914.753   -46622673.291 9  34787304.377 7
  21411963.989    21411966.595    -2792421.184 9  -3977113.280 8
  21029803.619    21029805.503   -15041278.807 9 -13456628.528 8
  20562231.930    20562232.974   -24434359.934 9 -14308527.716 7
 89 11 22 12 14 59.0800000  0  4G13G 6G11G 9
  21433555.775    21433559.266   -46682346.325 9  34740805.924 8
  21423888.439    21423889.357    -2729758.995 9  -3928285.611 8
  21036108.960    21036110.371   -15008148.996 9 -13430813.085 7
  20558477.739    20558479.107   -24454089.738 8 -14323901.589 7
 89 11 22 12 15 29.0800000  0  4G13G 6G11G 9
  21422288.149    21422291.232   -46741559.419 9  34694665.864 8
  21435909.880    21435912.515    -2666583.625 9  -3879058.074 8
  21042489.824    21042492.731   -14974610.980 8 -13404679.565 8
  20554830.057    20554829.275   -24473257.438 8 -14338837.454 7
 89 11 22 12 15 59.0800000  0  4G13G 6G11G 9
  21411108.285    21411110.945   -46800311.568 9  34648884.991 8
  21448029.439    21448032.374    -2602896.241 9  -3829431.552 9
  21048949.119    21048952.677   -14940666.760 8 -13378229.525 8
  20551289.609    20551290.399   -24491861.141 9 -14353333.854 7
 89 11 22 12 16 29.0800000  0  4G13G 6G11G 9
  21400015.386    21400018.884   -46858602.438 9  34603463.530 8
  21460246.003    21460248.766    -2538697.752 9  -3779406.762 8
  21055485.736    21055489.266   -14906318.779 9 -13351464.873 9
  20547856.389    20547858.771   -24509899.489 9 -14367389.699 7
 89 11 22 12 16 59.0800000  0  4G13G 6G11G 9
  21389010.981    21389014.207   -46916431.525 9  34558401.918 7
  21472559.859    21472562.137    -2473988.971 9  -3728984.356 8
  21062096.921    21062102.157   -14871568.854 9 -13324387.021 9
  20544532.964    20544533.902   -24527370.410 8 -14381003.411 6
 89 11 22 12 17 29.0800000  0  4G13G 6G11G 9
  21378094.586    21378097.197   -46973798.303 9  34513700.550 8
  21484971.067    21484972.443    -2408771.026 9  -3678165.194 9
  21068786.549    21068790.053   -14836419.330 9 -13296997.777 7
  20541316.585    20541316.474   -24544272.468 9 -14394173.842 7
 89 11 22 12 17 59.0800000  0  4G13G 6G11G 9
  21367265.528    21367268.770   -47030702.763 9  34469359.419 7
  21497477.444    21497480.738    -2343044.970 9  -3626950.104 9
  21075550.196    21075553.783   -14800872.107 9 -13269298.647 8
  20538209.662    20538210.427   -24560603.675 9 -14406899.465 6
 89 11 22 12 18 29.0800000  0  4G13G 6G11G 9
  21356526.470    21356528.601   -47087144.363 9  34425378.975 7
  21510080.894    21510083.930    -2276811.803 9  -3575339.855 9
  21082389.969    21082394.804   -14764929.380 8 -13241291.316 8
  20535210.130    20535210.874   -24576362.630 8 -14419179.154 8
 89 11 22 12 18 59.0800000  0  4G13G 6G11G 9
  21345873.252    21345876.214   -47143122.400 9  34381759.728 7
  21522781.489    21522784.053    -2210072.591 9  -3523335.303 9
  21089305.031    21089308.779   -14728593.091 9 -13212977.328 8
  20532319.896    20532321.195   -24591547.714 9 -14431011.700 7
 89 11 22 12 19 29.0800000  0  4G13G 6G11G 9
  21335309.527    21335311.737   -47198636.129 9  34338502.299 7
  21535577.715    21535579.334    -2142828.281 9  -3470937.143 7
  21096294.145    21096297.328   -14691865.296 8 -13184358.269 7
  20529540.147    20529540.838   -24606157.005 8 -14442395.555 7
 89 11 22 12 19 59.0800000  0  4G13G 6G11G 9
  21324834.177    21324837.746   -47253685.360 9  34295606.805 7
  21548469.245    21548472.195    -2075079.955 9  -3418146.269 9
  21103357.692    21103359.612   -14654748.382 8 -13155435.997 8
  20526869.697    20526871.694   -24620188.974 8 -14453329.550 7
 89 11 22 12 20 29.0800000  0  4G13G 6G11G 9
  21314446.509    21314451.095   -47308269.658 9  34253073.609 7
  21561457.241    21561459.504    -2006828.781 9  -3364963.540 8
  21110494.878    21110496.605   -14617244.381 9 -13126212.104 8
  20524310.468    20524311.237   -24633642.087 9 -14463812.506 8
 89 11 22 12 20 59.0800000  0  4G13G 6G11G 9
  21304148.569    21304152.175   -47362388.682 9  34210902.955 8
  21574541.492    21574543.626    -1938075.894 9  -3311389.879 9
  21117704.793    21117706.756   -14579355.694 9 -13096688.454 7
  20521860.292    20521859.974   -24646514.855 8 -14473843.225 7
 89 11 22 12 21 29.0800000  0  4G13G 6G11G 9
  21293937.470    21293942.872   -47416041.974 9  34169095.198 7
  21587719.654    21587721.645    -1868822.421 9  -3257426.149 9
  21124986.348    21124989.880   -14541084.165 9 -13066866.481 8
  20519521.434    20519522.744   -24658805.770 9 -14483420.568 7
 89 11 22 12 21 59.0800000  0  4G13G 6G11G 9
  21283816.547    21283821.261   -47469229.333 9  34127650.512 8
  21600993.583    21600995.532    -1799069.350 9  -3203073.130 9
  21132341.975    21132344.921   -14502431.901 8 -13036747.836 7
  20517292.862    20517294.828   -24670513.009 9 -14492543.098 7
 89 11 22 12 22 29.0800000  0  4G13G 6G11G 9
  21273784.868    21273787.650   -47521950.131 9  34086569.401 8
  21614361.467    21614363.975    -1728817.720 9  -3148331.616 9
  21139769.385    21139773.086   -14463400.806 9 -13006333.984 7
  20515177.590    20515177.407   -24681635.068 8 -14501209.619 8
 89 11 22 12 22 59.0800000  0  4G13G 6G11G 9
  21263840.954    21263844.217   -47574203.888 9  34045852.197 8
  21627824.283    21627825.888    -1658068.792 9  -3093202.598 9
  21147268.245    21147272.150   -14423993.029 9 -12975626.635 8
  20513173.552    20513172.190   -24692170.385 9 -14509418.944 8
 89 11 22 12 23 29.0800000  0  4G13G 6G11G 9
  21253986.555    21253990.182   -47625991.121 9  34005498.513 8
  21641381.122    21641384.128    -1586824.200 9  -3037687.346 9
  21154838.822    21154841.504   -14384211.502 9 -12944628.038 8
  20511280.737    20511279.039   -24702117.931 9 -14517170.297 7
 89 11 22 12 23 59.0800000  0  4G13G 6G11G 9
  21244220.439    21244223.257   -47677310.688 9  33965509.243 7
  21655033.312    21655035.432    -1515084.839 9  -2981786.555 8
  21162479.201    21162483.395   -14344057.684 9 -12913339.344 8
  20509498.193    20509499.414   -24711475.853 7 -14524462.188 7
 89 11 22 12 24 29.0800000  0  4G13G 6G11G 9
  21234543.164    21234547.234   -47728162.707 9  33925884.306 8
  21668778.272    21668781.866    -1442852.083 9  -2925501.307 9
  21170191.247    21170195.033   -14303533.987 9 -12881762.436 8
  20507829.274    20507831.370   -24720243.078 8 -14531293.796 7
 89 11 22 12 24 59.0800000  0  4G13G 6G11G 9
  21224955.610    21224959.773   -47778547.293 9  33886623.594 7
  21682617.944    21682620.421    -1370127.374 9  -2868832.716 9
  21177972.069    21177976.740   -14262642.735 8 -12849899.133 8
  20506273.619    20506276.392   -24728418.184 8 -14537664.010 8
 89 11 22 12 25 29.0800000  0  4G13G 6G11G 9
  21215456.855    21215459.653   -47828464.042 9  33847727.454 8
  21696549.910    21696552.101    -1296911.904 9  -2811781.727 8
  21185823.766    21185827.449   -14221386.248 9 -12817751.217 8
  20504831.343    20504832.989   -24735999.631 8 -14543571.632 7
 89 11 22 12 25 59.0800000  0  4G13G 6G11G 9
  21206046.497    21206051.011   -47877912.338 9  33809196.327 8
  21710576.224    21710577.157    -1223206.980 9  -2754349.323 9
  21193743.514    21193745.882   -14179766.455 8 -12785320.195 8
  20503501.967    20503503.865   -24742986.070 9 -14549015.615 8
 89 11 22 12 26 29.0800000  0  4G13G 6G11G 9
  21196725.620    21196728.867   -47926892.547 9  33771029.946 8
  21724694.522    21724696.713    -1149014.120 9  -2696536.732 8
  21201732.805    21201735.361   -14137785.772 8 -12752607.972 8
  20502286.453    20502286.821   -24749376.318 9 -14553995.014 8
 89 11 22 12 26 59.0800000  0  4G13G 6G11G 9
  21187494.540    21187496.664   -47975404.768 9  33733228.238 7
  21738905.387    21738907.908    -1074334.439 9  -2638344.784 9
  21209789.226    21209792.810   -14095446.047 9 -12719615.981 8
  20501184.214    20501185.029   -24755168.919 8 -14558508.737 6
 89 11 22 12 27 29.0800000  0  4G13G 6G11G 9
  21178352.745    21178355.306   -48023448.224 9  33695791.788 8
  21753209.418    21753211.767     -999169.444 9  -2579774.666 9
  21217914.219    21217917.696   -14052749.699 9 -12686346.099 7
  20500195.630    20500197.092   -24760362.776 8 -14562555.895 7
 89 11 22 12 27 59.0800000  0  4G13G 6G11G 9
  21169299.027    21169303.261   -48071023.108 9  33658720.466 7
  21767604.221    21767606.885     -923520.584 9  -2520827.522 9
  21226106.068    21226109.053   -14009699.061 9 -12652800.138 8
  20499321.236    20499320.378   -24764956.569 8 -14566135.474 6
 89 11 22 12 28 29.0800000  0  4G13G 6G11G 9
  21160334.934    21160339.149   -48118129.026 9  33622014.570 8
  21782091.883    21782093.988     -847389.213 9  -2461504.393 8
  21234365.842    21234367.426   -13966296.200 9 -12618979.743 9
  20498561.317    20498561.818   -24768949.177 8 -14569246.604 7
 89 11 22 12 28 59.0800000  0  4G13G 6G11G 9
  21151459.677    21151464.714   -48164766.161 9  33585673.955 8
  21796670.942    21796673.005     -770776.859 9  -2401806.470 9
  21242691.730    21242694.480   -13922543.478 9 -12584886.693 8
  20497916.751    20497918.962   -24772339.173 8 -14571888.167 7
 89 11 22 12 29 29.0800000  0  4G13G 6G11G 9
  21142675.162    21142678.144   -48210934.577 9  33549698.577 7
  21811340.398    21811343.462     -693684.939 9  -2341734.859 9
  21251084.092    21251086.694   -13878443.022 9 -12550522.707 7
  20497386.852    20497387.693   -24775125.420 8 -14574059.283 7
 89 11 22 12 29 59.0800000  0  4G13G 6G11G 9
  21133978.710    21133981.637   -48256634.448 9  33514088.300 8
  21826101.589    21826103.780     -616114.945 9  -2281290.720 7
  21259542.580    21259542.432   -13833996.964 9 -12515889.415 7
  20496970.311    20496971.338   -24777306.975 9 -14575759.207 7
 89 11 22 12 30 29.0800000  0  4G13G 6G11G 9
  21125371.304    21125374.216   -48301865.404 8  33478843.410 7
  21840953.276    21840955.555     -538068.217 9  -2220475.113 9
  21268065.158    21268067.804   -13789207.760 9 -12480988.736 7
  20496670.598    20496673.331   -24778882.450 8 -14576986.848 6
 89 11 22 12 30 59.0800000  0  4G13G 6G11G 9
  21116853.439    21116857.882   -48346627.326 9  33443963.996 8
  21855895.837    21855898.544     -459546.359 9  -2159289.257 8
  21276653.516    21276654.441   -13744077.290 9 -12445822.141 8
  20496486.743    20496488.611   -24779850.776 9 -14577741.381 7
 89 11 22 12 31 29.0800000  0  4G13G 6G11G 9
  21108424.834    21108428.296   -48390919.733 9  33409450.442 7
  21870928.272    21870930.793     -380550.937 9  -2097734.393 9
  21285305.566    21285307.193   -13698607.941 9 -12410391.475 7
  20496418.323    20496419.897   -24780210.925 9 -14578022.026 7
 89 11 22 12 31 59.0800000  0  4G13G 6G11G 9
  21100086.224    21100088.542   -48434742.815 9  33375302.597 7
  21886050.382    21886051.958     -301083.169 9  -2035811.470 8
  21294023.020    21294023.931   -13652801.612 9 -12374698.235 8
  20496465.653    20496465.176   -24779961.689 9 -14577827.813 7
 89 11 22 12 32 29.0800000  0  4G13G 6G11G 9
  21091835.706    21091839.218   -48478097.160 9  33341520.012 8
  21901262.389    21901263.923     -221144.837 9  -1973521.877 9
  21302801.461    21302803.127   -13606660.820 9 -12338744.373 8
  20496629.270    20496630.652   -24779101.894 8 -14577157.853 7
 89 11 22 12 32 59.0800000  0  4G13G 6G11G 9
  21083674.650    21083676.823   -48520982.561 9  33308102.838 7
  21916563.023    21916564.985     -140737.793 9  -1910867.035 8
  21311644.941    21311648.706   -13560188.137 9 -12302531.894 7
  20496909.733    20496910.753   -24777630.960 9 -14576011.684 6
 89 11 22 12 33 29.0800000  0  4G13G 6G11G 9
  21075604.275    21075604.654   -48563399.488 9  33275050.692 8
  21931953.249    21931955.784      -59863.531 9  -1847848.151 9
  21320551.400    21320554.139   -13513385.721 8 -12266062.476 7
  20497304.562    20497305.946   -24775547.897 8 -14574388.520 7
 89 11 22 12 33 59.0800000  0  4G13G 6G11G 9
  21067620.793    21067624.542   -48605347.844 9  33242363.663 6
  21947431.354    21947434.361       21476.070 9  -1784466.668 9
  21329521.076    21329522.506   -13466255.869 8 -12229337.927 8
  20497818.047    20497822.023   -24772851.672 8 -14572287.586 7
 89 11 22 12 34 29.0800000  0  4G13G 6G11G 9
  21059727.567    21059730.057   -48646827.594 9  33210041.805 7
  21962998.431    21963000.651      103280.005 9  -1720723.359 8
  21338551.062    21338554.277   -13418800.663 9 -12192359.848 9
  20498449.185    20498450.852   -24769541.172 8 -14569707.965 8
 89 11 22 12 34 59.0800000  0  4G13G 6G11G 9
  21051923.137    21051926.300   -48687838.642 9  33178085.159 7
  21978653.403    21978655.595      185546.404 9  -1656619.694 9
  21347642.258    21347646.071   -13371022.123 9 -12155129.827 7
  20499195.800    20499196.685   -24765615.384 8 -14566648.921 7
 89 11 22 12 35 29.0800000  0  4G13G 6G11G 9
  21044208.034    21044210.409   -48728381.553 9  33146493.300 8
  21994395.249    21994397.713      268273.352 9  -1592157.150 9
  21356795.991    21356798.850   -13322922.594 9 -12117649.665 8
  20500060.776    20500061.757   -24761073.527 8 -14563109.813 7
 89 11 22 12 35 59.0800000  0  4G13G 6G11G 9
  21036581.882    21036584.221   -48768456.602 9  33115266.001 7
  22010225.186    22010227.349      351459.348 9  -1527336.912 9
  21366009.695    21366012.041   -13274504.173 9 -12079921.026 8
  20501042.478    20501042.150   -24755914.718 7 -14559089.963 6
 89 11 22 12 36 29.0800000  0  4G13G 6G11G 9
  21029044.949    21029049.299   -48808063.468 9  33084403.519 8
  22026141.840    22026145.332      435102.619 9  -1462160.350 8
  21375282.955    21375285.861   -13225769.298 9 -12041945.805 8
  20502141.017    20502142.184   -24750138.292 9 -14554588.853 7
 89 11 22 12 36 59.0800000  0  4G13G 6G11G 9
  21021597.362    21021600.166   -48847202.775 9  33053905.377 7
  22042145.321    22042147.584      519201.338 9  -1396628.901 8
  21384616.075    21384621.600   -13176720.259 9 -12003725.782 8
  20503357.410    20503358.763   -24743743.303 8 -14549605.758 8
 89 11 22 12 37 29.0800000  0  4G13G 6G11G 9
  21014238.844    21014240.509   -48885874.616 9  33023771.483 8
  22058235.365    22058237.900      603753.764 9  -1330743.917 8
  21394010.018    21394012.497   -13127359.701 9 -11965263.004 8
  20504692.218    20504694.304   -24736729.166 8 -14544140.186 7
 89 11 22 12 37 59.0800000  0  4G13G 6G11G 9
  21006968.380    21006970.669   -48924079.199 9  32994001.689 7
  22074411.005    22074412.610      688758.073 9  -1264506.814 8
  21403462.140    21403464.188   -13077689.769 9 -11926559.160 9
  20506145.236    20506145.867   -24729095.080 8 -14538191.563 7
 89 11 22 12 38 29.0800000  0  4G13G 6G11G 9
  20999787.227    20999789.259   -48961816.996 9  32964595.626 8
  22090672.645    22090674.864      774212.642 9  -1197918.856 9
  21412971.886    21412974.689   -13027712.348 9 -11887615.734 8
  20507716.000    20507717.722   -24720840.176 9 -14531759.183 7
 89 11 22 12 38 59.0800000  0  4G13G 6G11G 9
  20992694.360    20992698.172   -48999088.051 9  32935553.238 8
  22107019.837    22107021.255      860115.441 9  -1130981.627 8
  21422540.790    21422544.470   -12977429.842 9 -11848434.568 8
  20509405.815    20509404.864   -24711963.942 9 -14524842.635 7
 89 11 22 12 39 29.0800000  0  4G13G 6G11G 9
  20985691.255    20985693.751   -49035892.878 9  32906874.159 8
  22123450.934    22123453.469      946464.795 9  -1063696.436 8
  21432166.354    21432170.491   -12926844.333 9 -11809017.294 8
  20511212.510    20511213.688   -24702465.726 8 -14517441.440 7
 89 11 22 12 39 59.0800000  0  4G13G 6G11G 9
  20978775.976    20978777.994   -49072231.612 9  32878558.278 8
  22139967.832    22139969.480     1033258.995 8   -996064.601 8
  21441850.184    21441853.320   -12875958.077 9 -11769365.672 8
  20513138.114    20513140.698   -24692344.512 8 -14509554.788 6
 89 11 22 12 40 29.0800000  0  4G13G 6G11G 9
  20971949.522    20971952.869   -49108104.581 9  32850605.335 8
  22156567.955    22156570.111     1120495.976 9   -928087.746 9
  21451589.616    21451592.395   -12824773.198 9 -11729481.364 8
  20515184.073    20515185.303   -24681600.030 7 -14501182.465 7
 89 11 22 12 40 59.0800000  0  4G13G 6G11G 9
  20965210.956    20965212.944   -49143512.517 9  32823014.738 6
  22173252.232    22173255.168     1208174.080 9   -859767.171 8
  21461386.911    21461389.657   -12773292.477 9 -11689366.510 8
  20517346.798    20517348.075   -24670231.600 8 -14492323.971 7
 89 11 22 12 41 29.0800000  0  4G13G 6G11G 9
  20958561.515    20958564.246   -49178455.597 9  32795786.375 7
  22190020.887    22190023.100     1296291.252 9   -791104.467 9
  21471238.908    21471242.234   -12721518.143 8 -11649022.874 8
  20519630.948    20519629.715   -24658238.665 8 -14482978.823 7
 89 11 22 12 41 59.0800000  0  4G13G 6G11G 9
  20952000.468    20952004.359   -49212934.424 9  32768919.754 8
  22206871.782    22206874.898     1384845.372 9   -722101.274 8
  21481147.364    21481148.687   -12669452.455 8 -11608452.201 8
  20522029.795    20522031.065   -24645620.657 8 -14473146.612 7
 89 11 22 12 42 29.0800000  0  4G13G 6G11G 9
  20945528.081    20945532.030   -49246948.692 9  32742415.130 8
  22223806.110    22223808.889     1473834.771 9   -652758.903 8
  21491110.255    21491111.946   -12617097.381 9 -11567656.031 8
  20524549.808    20524549.935   -24632377.147 8 -14462826.997 7
 89 11 22 12 42 59.0800000  0  4G13G 6G11G 9
  20939143.897    20939145.929   -49280499.614 9  32716271.562 8
  22240823.551    22240825.092     1563257.400 9   -583078.952 8
  21501127.718    21501128.955   -12564455.648 9 -11526636.506 8
  20527190.079    20527189.739   -24618507.769 8 -14452019.699 7
 89 11 22 12 43 29.0800000  0  4G13G 6G11G 9
  20932847.403    20932849.778   -49313587.350 9  32690488.936 8
  22257921.469    22257923.939     1653111.242 9   -513062.996 8
  21511198.785    21511201.245   -12511529.153 9 -11485395.076 8
  20529949.460    20529948.323   -24604011.996 8 -14440724.292 7
 89 11 22 12 43 59.0800000  0  4G13G 6G11G 9
  20926638.815    20926640.948   -49346211.826 9  32665067.278 8
  22275101.898    22275104.692     1743394.651 9   -442712.321 8
  21521324.709    21521326.679   -12458320.268 9 -11443933.600 9
  20532825.634    20532825.984   -24588889.016 7 -14428940.166 7
 89 11 22 12 44 29.0800000  0  4G13G 6G11G 9
  20920517.985    20920521.504   -49378373.885 9  32640005.948 7
  22292363.686    22292366.299     1834105.629 9   -372028.444 9
  21531503.178    21531504.615   -12404830.876 9 -11402253.551 9
  20535822.682    20535824.175   -24573138.677 8 -14416667.179 7
 89 11 22 12 44 59.0800000  0  4G13G 6G11G 9
  20914486.520    20914489.797   -49410074.631 9  32615304.073 7
  22309707.043    22309708.907     1925241.980 9   -301013.130 8
  21541735.037    21541736.656   -12351063.385 9 -11360356.805 8
  20538938.411    20538940.293   -24556760.658 8 -14403905.095 7
 89 11 22 12 45 29.0800000  0  4G13G 6G11G 9
  20908540.856    20908544.547   -49441314.111 9  32590961.624 8
  22327129.275    22327131.782     2016801.757 9   -229667.864 8
  21552019.990    21552021.061   -12297020.433 9 -11318245.418 9
  20542175.059    20542177.120   -24539754.548 7 -14390653.585 6
 89 11 22 12 45 59.0800000  0  4G13G 6G11G 9
  20902683.707    20902686.998   -49472092.880 9  32566978.190 7
  22344632.719    22344635.440     2108782.634 9   -157994.469 9
  21562354.676    21562356.656   -12242704.031 9 -11275920.939 8
  20545532.495    20545532.317   -24522120.277 8 -14376912.609 8
 89 11 22 12 46 29.0800000  0  4G13G 6G11G 9
  20896914.874    20896917.278   -49502411.350 9  32543353.424 7
  22362215.850    22362218.184     2201182.910 9    -85994.267 8
  21572742.439    21572744.691   -12188116.215 9 -11233384.988 8
  20549007.719    20549008.861   -24503857.149 8 -14362681.609 7
 89 11 22 12 46 59.0800000  0  4G13G 6G11G 9
  20891232.443    20891236.105   -49532270.031 9  32520086.946 9
  22379879.223    22379880.707     2294000.573 9    -13668.842 9
  21583181.712    21583183.342   -12133259.293 9 -11190639.340 9
  20552601.806    20552602.827   -24484965.035 8 -14347960.502 7
 89 11 22 12 47 29.0800000  0  4G13G 6G11G 9
  20885639.126    20885641.043   -49561669.758 9  32497178.096 7
  22397621.043    22397621.718     2387233.399 9     58980.108 8
  21593670.817    21593674.079   -12078135.771 8 -11147685.957 8
  20556317.697    20556317.541   -24465443.573 8 -14332748.965 8
 89 11 22 12 47 59.0800000  0  4G13G 6G11G 9
  20880130.270    20880133.874   -49590610.916 9  32474626.577 8
  22415440.832    22415443.575     2480879.299 9    131950.916 8
  21604211.493    21604212.621   -12022748.191 8 -11104526.801 8
  20560150.440    20560153.453   -24445292.865 8 -14317047.134 8
 89 11 22 12 48 29.0800000  0  4G13G 6G11G 9
  20874710.493    20874713.553   -49619094.660 9  32452431.455 8
  22433339.649    22433341.677     2574936.190 9    205241.983 8
  21614799.803    21614803.051   -11967098.552 9 -11061163.443 8
  20564105.250    20564106.238   -24424512.770 7 -14300854.846 7
 89 11 22 12 48 59.0800000  0  4G13G 6G11G 9
  20869377.770    20869379.673   -49647121.120 9  32430592.676 8
  22451314.999    22451316.982     2669401.978 9    278851.672 8
  21625439.361    21625442.597   -11911188.904 9 -11017597.485 8
  20568179.807    20568181.829   -24403102.883 8 -14284171.837 8
 89 11 22 12 49 29.0800000  0  4G13G 6G11G 9
  20864131.763    20864134.052   -49674690.867 9  32409109.769 8
  22469369.303    22469370.686     2764274.734 9    352778.477 9
  21636127.901    21636130.593   -11855021.186 9 -10973830.407 9
  20572372.795    20572375.324   -24381062.886 7 -14266997.814 7
 89 11 22 12 49 59.0800000  0  4G13G 6G11G 9
  20858971.330    20858974.535   -49701804.709 9  32387982.117 7
  22487499.425    22487502.003     2859551.968 9    427020.452 8
  21646864.219    21646865.963   -11798597.997 8 -10929864.287 9
  20576687.791    20576688.571   -24358393.085 8 -14249333.030 7
 89 11 22 12 50 29.0800000  0  4G13G 6G11G 9
  20853898.523    20853901.527   -49728463.719 9  32367208.880 7
  22505707.452    22505709.472     2955231.885 9    501576.210 9
  21657649.955    21657652.326   -11741921.354 9 -10885700.682 9
  20581121.848    20581122.732   -24335093.088 8 -14231177.205 7
 89 11 22 12 50 59.0800000  0  4G13G 6G11G 9
  20848911.909    20848914.127   -49754667.772 9  32346790.163 7
  22523990.558    22523992.792     3051312.125 9    576443.916 9
  21668483.051    21668486.048   -11684993.366 9 -10841341.209 8
  20585673.710    20585677.513   -24311162.765 7 -14212530.211 7
 89 11 22 12 51 29.0800000  0  4G13G 6G11G 9
  20844011.699    20844014.762   -49780417.864 9  32326725.174 8
  22542349.314    22542351.012     3147790.365 9    651621.740 9
  21679363.241    21679367.143   -11627816.377 9 -10796787.713 9
  20590349.627    20590349.799   -24286602.443 8 -14193392.286 7
 89 11 22 12 51 59.0800000  0  4G13G 6G11G 9
  20839198.488    20839201.379   -49805714.795 8  32307013.280 8
  22560783.388    22560786.596     3244664.615 9    727108.144 9
  21690291.851    21690293.957   -11570392.964 9 -10752042.196 9
  20595141.985    20595144.157   -24261412.158 7 -14173763.490 6
 89 11 22 12 52 29.0800000  0  4G13G 6G11G 9
  20834470.679    20834474.212   -49830559.199 9  32287654.017 7
  22579293.756    22579295.684     3341932.554 9    802901.315 9
  21701265.062    21701266.853   -11512725.093 9 -10707106.195 8
  20600055.572    20600056.936   -24235591.735 9 -14153643.702 7
 89 11 22 12 52 59.0800000  0  4G13G 6G11G 9
  20829828.428    20829830.575   -49854952.210 9  32268646.491 7
  22597877.072    22597880.422     3439591.992 9    878999.557 8
  21712285.792    21712287.332   -11454814.784 9 -10661981.282 7
  20605089.022    20605090.160   -24209141.165 8 -14133032.879 6
 89 11 22 12 53 29.0800000  0  4G13G 6G11G 9
  20825272.422    20825275.153   -49878894.527 9  32249990.159 7
  22616536.256    22616538.069     3537640.659 9    955401.085 9
  21723350.489    21723352.916   -11396664.540 8 -10616669.399 8
  20610241.942    20610244.751   -24182060.762 7 -14111931.271 7
 89 11 22 12 53 59.0800000  0  4G13G 6G11G 9
  20820802.105    20820804.251   -49902386.736 9  32231684.545 8
  22635267.308    22635269.829     3636076.330 9   1032104.181 9
  21734460.918    21734463.396   -11338276.520 9 -10571172.254 8
  20615514.678    20615516.441   -24154350.624 8 -14090338.964 7
 89 11 22 12 54 29.0800000  0  4G13G 6G11G 9
  20816417.083    20816420.617   -49925429.441 9  32213729.206 8
  22654072.615    22654074.427     3734896.875 9   1109107.183 9
  21745617.504    21745619.445   -11279653.093 9 -10525491.662 8
  20620909.729    20620909.408   -24126010.831 8 -14068256.013 7
 89 11 22 12 54 59.0800000  0  4G13G 6G11G 9
  20812117.799    20812121.089   -49948023.533 9  32196123.424 8
  22672950.527    22672951.095     3834099.722 9   1186408.075 8
  21756818.031    21756819.733   -11220796.330 9 -10479629.250 9
  20626421.777    20626424.321   -24097041.497 8 -14045682.515 7
 89 11 22 12 55 29.0800000  0  4G13G 6G11G 9
  20807904.170    20807905.070   -49970170.014 9  32178866.459 7
  22691900.309    22691902.114     3933682.857 9   1264005.314 9
  21768061.442    21768064.342   -11161707.929 9 -10433586.350 9
  20632053.253    20632055.558   -24067442.892 9 -14022618.673 8
 89 11 22 12 55 59.0800000  0  4G13G 6G11G 9
  20803773.698    20803775.086   -49991869.720 9  32161957.604 8
  22710922.085    22710924.011     4033643.821 9   1341896.956 8
  21779349.605    21779351.510   -11102390.169 9 -10387364.723 8
  20637805.036    20637808.617   -24037215.237 8 -13999064.669 7
 89 11 22 12 56 29.0800000  0  4G13G 6G 3G 9
  20799729.804    20799731.751   -50013123.418 9  32145396.301 7
  22730015.188    22730018.703     4133980.469 9   1420081.325 9
  24193515.905    24193515.905   -74290413.585 9  94148329.177 8
  20643676.434    20643677.937   -24006358.668 8 -13975020.596 8
 89 11 22 12 56 59.0800000  0  4G13G 6G 3G 9
  20795770.021    20795772.310   -50033932.174 9  32129181.695 8
  22749179.515    22749182.347     4234690.448 9   1498556.604 8
  24177114.851    24177115.517   -74376605.503 9  94081166.199 8
  20649668.820    20649671.325   -23974873.581 8 -13950486.768 7
 89 11 22 12 57 29.0800000  0  4G13G 6G 3G 9
  20791894.801    20791896.933   -50054296.595 9  32113313.338 8
  22768414.540    22768418.102     4335771.589 9   1577321.108 8
  24160757.554    24160759.837   -74462559.400 9  94014189.148 8
  20655780.307    20655781.514   -23942760.005 8 -13925463.211 8
 89 11 22 12 57 59.0800000  0  4G13G 6G 3G 9
  20788104.351    20788106.225   -50074217.614 9  32097790.479 7
  22787720.369    22787722.371     4437221.110 9   1656372.667 9
  24144447.506    24144449.509   -74548274.582 9  93947398.117 8
  20662010.261    20662012.605   -23910018.981 8 -13899950.719 7
 89 11 22 12 58 29.0800000  0  4G13G 6G 3G 9
  20784397.833    20784398.892   -50093696.135 9  32082612.425 7
  22807095.363    22807097.261     4539036.842 9   1735709.585 8
  24128181.207    24128183.425   -74633750.424 9  93880793.564 8
  20668360.405    20668362.204   -23876650.419 8 -13873949.262 7
 89 11 22 12 58 59.0800000  0  4G13G 6G 3G 9
  20780774.604    20780776.448   -50112733.079 9  32067778.464 7
  22826540.254    22826541.544     4641216.437 9   1815330.025 9
  24111961.284    24111963.188   -74718985.652 9  93814376.502 7
  20674829.735    20674831.664   -23842654.640 8 -13847459.054 7
 89 11 22 12 59 29.0800000  0  4G13G 6G 3G 9
  20777235.962    20777238.207   -50131329.684 9  32053287.613 8
  22846052.272    22846054.746     4743757.499 9   1895232.125 9
  24095787.207    24095789.153   -74803979.714 9  93748147.341 7
  20681417.736    20681418.638   -23808032.263 8 -13820480.576 7
 89 11 22 12 59 59.0800000  0  4G13G 6G 3G 9
  20773780.392    20773782.797   -50149487.075 9  32039139.002 8
  22865634.466    22865636.246     4846657.428 9   1975413.852 8
  24079660.261    24079661.463   -74888732.282 9  93682106.346 7
  20688124.994    20688125.219   -23772783.929 8 -13793014.348 8
 89 11 22 13  0 29.0800000  0  4G13G 6G 3G 9
  20770408.858    20770412.164   -50167206.114 9  32025331.972 8
  22885282.789    22885284.960     4949914.132 9   2055873.589 9
  24063577.376    24063578.578   -74973241.810 9  93616254.766 7
  20694953.210    20694952.713   -23736909.825 8 -13765060.506 6
 89 11 22 13  0 59.0800000  0  4G13G 6G 3G 9
  20767120.540    20767123.202   -50184487.276 9  32011866.146 7
  22904999.154    22905000.852     5053525.159 9   2136609.444 9
  24047543.725    24047545.600   -75057507.840 8  93550592.938 8
  20701897.936    20701898.771   -23700410.341 8 -13736619.364 6
 89 11 22 13  1 29.0800000  0  4G13G 6G 3G 9
  20763914.619    20763918.696   -50201332.296 9  31998740.177 8
  22924783.116    22924785.822     5157487.785 9   2217619.258 9
  24031553.724    24031556.314   -75141529.754 9  93485121.333 8
  20708961.453    20708964.222   -23663286.484 8 -13707691.697 7
 89 11 22 13  1 59.0800000  0  4G13G 6G 3G 9
  20760792.712    20760793.371   -50217742.035 9  31985953.381 8
  22944632.497    22944636.027     5261799.690 9   2298901.232 9
  24015612.112    24015613.143   -75225306.653 9  93419840.643 8
  20716145.706    20716147.006   -23625538.547 9 -13678277.729 8
 89 11 22 13  2 29.0800000  0  4G13G 6G 3G 9
  20757751.807    20757755.454   -50233717.444 9  31973505.016 8
  22964549.207    22964551.849     5366458.534 9   2380453.553 9
  23999715.903    23999718.134   -75308837.788 9  93354751.468 8
  20723446.674    20723449.318   -23587167.285 8 -13648378.062 7
 89 11 22 13  2 59.0800000  0  4G13G 6G 3G 9
  20754793.851    20754797.471   -50249259.309 9  31961394.471 7
  22984529.933    22984532.886     5471461.831 9   2462274.277 9
  23983867.624    23983868.660   -75392122.419 8  93289854.355 8
  20730868.778    20730868.191   -23548173.259 9 -13617993.090 7
 89 11 22 13  3 29.0800000  0  4G13G 6G 3G 9
  20751918.637    20751922.530   -50264368.833 9  31949620.822 8
  23004576.148    23004578.772     5576807.177 9   2544361.525 9
  23968066.892    23968068.473   -75475159.812 9  93225149.897 8
  20738406.588    20738407.110   -23508556.963 9 -13587123.258 8
 89 11 22 13  3 59.0800000  0  4G13G 6G 3G 9
  20749125.448    20749129.569   -50279047.265 9  31938183.091 7
  23024687.404    23024690.496     5682492.087 9   2626713.370 8
  23952311.582    23952314.465   -75557949.027 9  93160638.818 8
  20746064.244    20746064.187   -23468318.826 9 -13555768.874 7
 89 11 22 13  4 29.0800000  0  4G13G 6G 3G 9
  20746413.958    20746418.609   -50293295.694 9  31927080.444 8
  23044863.642    23044865.654     5788513.967 8   2709327.798 9
  23936605.294    23936607.297   -75640489.766 9  93096321.377 9
  20753839.496    20753839.905   -23427460.088 9 -13523930.920 6
 89 11 22 13  4 59.0800000  0  4G13G 6G 3G 9
  20743783.290    20743787.897   -50307115.459 9  31916311.809 7
  23065101.765    23065104.644     5894870.387 8   2792202.903 8
  23920945.666    23920948.048   -75722781.217 9  93032198.172 8
  20761731.766    20761732.373   -23385981.439 8 -13491609.896 7
 89 11 22 13  5 29.0800000  0  4G13G 6G 3G 9
  20741235.498    20741239.704   -50320507.372 9  31905876.575 7
  23085404.416    23085407.306     6001558.773 9   2875336.672 8
  23905333.141    23905335.324   -75804822.600 8  92968269.831 8
  20769743.082    20769743.725   -23343883.357 8 -13458806.214 7
 89 11 22 13  5 59.0800000  0  4G13G 6G 3G 9
  20738768.604    20738773.241   -50333472.200 9  31895774.102 8
  23105768.269    23105771.626     6108576.659 9   2958727.211 9
  23889768.298    23889771.418   -75886613.429 8  92904536.739 8
  20777871.987    20777873.447   -23301166.587 9 -13425520.442 7
 89 11 22 13  6 29.0800000  0  4G13G 6G 3G 9
  20736382.763    20736386.684   -50346011.123 9  31886003.542 7
  23126196.170    23126198.849     6215921.628 8   3042372.612 9
  23874251.203    23874254.258   -75968152.693 7  92840999.668 8
  20786118.604    20786120.283   -23257832.127 8 -13391753.340 8
 89 11 22 13  6 59.0800000  0  4G13G 6G 3G 9
  20734076.939    20734080.273   -50358125.726 9  31876563.605 8
  23146684.744    23146687.669     6323591.099 9   3126270.869 9
  23858783.454    23858786.195   -76049439.894 7  92777659.009 8
  20794482.058    20794481.887   -23213880.716 9 -13357505.510 8
 89 11 22 13  7 29.0800000  0  4G13G 6G 3G 9
  20731852.303    20731855.565   -50369816.864 9  31867453.640 7
  23167234.681    23167237.463     6431582.591 9   3210420.047 8
  23843364.869    23843365.557   -76130474.479 9  92714515.198 8
  20802961.726    20802964.471   -23169313.189 9 -13322777.583 8
 89 11 22 13  7 59.0800000  0  4G13G 6G 3G 9
  20729708.434    20729711.080   -50381085.651 9  31858672.773 8
  23187845.503    23187848.907     6539893.293 9   3294817.961 9
  23827991.833    23827994.386   -76211255.656 9  92651568.841 8
  20811561.494    20811561.273   -23124130.577 8 -13287570.334 7
 89 11 22 13  8 29.0800000  0  4G13G 6G 3G 9
  20727644.371    20727646.187   -50391933.590 9  31850219.853 8
  23208517.709    23208520.623     6648520.869 9   3379462.800 9
  23812668.208    23812669.654   -76291782.972 9  92588820.292 9
  20820276.073    20820277.182   -23078333.683 8 -13251884.459 8
 89 11 22 13  8 59.0800000  0  4G13G 6G 3G 9
  20725659.757    20725662.475   -50402361.688 9  31842094.083 7
  23229248.683    23229251.022     6757462.564 9   3464352.414 9
  23797392.943    23797394.031   -76372055.782 8  92526270.058 8
  20829107.130    20829108.320   -23031923.540 9 -13215720.726 8
 89 11 22 13  9 29.0800000  0  4G13G 6G 3G 9
  20723755.784    20723757.257   -50412370.985 9  31834294.643 8
  23250038.931    23250040.966     6866715.727 9   3549484.725 9
  23782166.090    23782167.756   -76452073.542 9  92463918.565 8
  20838054.548    20838056.792   -22984901.411 9 -13179080.127 8
 89 11 22 13  9 59.0800000  0  4G13G 6G 3G 9
  20721929.941    20721931.501   -50421963.003 9  31826820.347 7
  23270887.391    23270890.001     6976277.786 9   3634857.745 8
  23766988.109    23766990.456   -76531835.731 9  92401766.186 7
  20847118.766    20847120.286   -22937268.131 9 -13141963.279 7
 89 11 22 13 10 29.0800000  0  4G13G 6G 3G 9
  20720183.173    20720185.763   -50431139.466 9  31819669.868 7
  23291794.695    23291797.363     7086146.232 9   3720469.497 8
  23751857.903    23751859.820   -76611341.693 9  92339813.480 9
  20856300.037    20856302.670   -22889024.508 9 -13104370.862 8
 89 11 22 13 10 59.0800000  0  4G13G 6G 3G 9
  20718516.477    20718517.364   -50439901.260 9  31812842.500 7
  23312760.313    23312762.522     7196318.609 9   3806318.075 9
  23736777.472    23736780.613   -76690591.067 9  92278060.711 9
  20865595.648    20865597.767   -22840171.689 9 -13066303.757 7
 89 11 22 13 11 29.0800000  0  4G13G 6G 3G 9
  20716926.966    20716929.226   -50448249.496 9  31806337.391 8
  23333782.417    23333784.720     7306792.013 9   3892401.204 8
  23721745.625    23721747.450   -76769583.053 9  92216508.505 8
  20875007.492    20875009.499   -22790710.904 8 -13027762.898 8
 89 11 22 13 11 59.0800000  0  4G13G 6G 3G 9
  20715415.953    20715420.645   -50456185.412 9  31800153.567 8
  23354861.339    23354864.593     7417563.841 9   3978716.884 8
  23706763.934    23706764.442   -76848317.254 9  92155157.199 8
  20884535.759    20884537.584   -22740643.212 8 -12988749.128 7
 89 11 22 13 12 29.0800000  0  4G13G 6G 3G 9
  20713984.837    20713989.172   -50463710.134 9  31794290.163 7
  23375995.976    23375999.599     7528631.647 9   4065263.200 9
  23691830.452    23691831.462   -76926792.770 9  92094007.436 8
  20894179.249    20894179.246   -22689969.607 9 -12949263.222 8
 89 11 22 13 12 59.0800000  0  4G13G 6G 3G 9
  20712630.654    20712635.032   -50470825.276 8  31788745.893 7
  23397188.179    23397190.653     7639992.806 9   4152038.105 9
  23676945.285    23676948.132   -77005009.607 9  92033059.241 7
  20903936.923    20903938.480   -22638691.392 9 -12909306.191 7
 89 11 22 13 13 29.0800000  0  4G13G 6G 3G 9
  20711353.937    20711357.900   -50477531.950 9  31783519.932 7
  23418434.742    23418437.575     7751644.658 9   4239039.508 8
  23662110.848    23662112.386   -77082966.748 9  91972313.408 8
  20913810.051    20913811.560   -22586809.711 9 -12868878.916 8
 89 11 22 13 13 59.0800000  0  4G13G 6G 3G 9
  20710155.834    20710160.169   -50483831.554 9  31778611.151 7
  23439736.989    23439739.156     7863584.262 9   4326265.148 9
  23647325.904    23647327.386   -77160664.043 9  91911770.057 8
  20923795.496    20923797.767   -22534325.881 9 -12827982.425 8
 89 11 22 13 14 29.0800000  0  4G13G 6G 3G 9
  20709034.285    20709039.980   -50489725.168 9  31774018.734 6
  23461091.180    23461094.767     7975809.206 8   4413713.107 7
  23632589.323    23632591.262   -77238100.828 9  91851429.692 8
  20933898.128    20933900.557   -22481240.996 9 -12786617.613 7
 89 11 22 13 14 59.0800000  0  4G13G 6G 3G 9
  20707990.031    20707993.837   -50495214.270 9  31769741.517 7
  23482501.034    23482504.971     8088316.956 9   4501381.443 9
  23617903.565    23617905.740   -77315276.666 9  91791292.676 8
  20944114.183    20944116.691   -22427556.226 8 -12744785.338 8
 89 11 22 13 15 29.0800000  0  4G13G 6G 3G 9
  20707021.220    20707025.454   -50500300.888 9  31765777.926 7
  23503963.399    23503968.182     8201104.550 8   4589267.832 9
  23603267.063    23603269.553   -77392191.093 9  91731359.360 8
  20954444.105    20954445.891   -22373273.094 8 -12702486.809 8
 89 11 22 13 15 59.0800000  0  4G13G 6G 3G 9
  20706130.533    20706134.753   -50504985.992 9  31762127.196 7
  23525478.726    23525483.124     8314169.326 9   4677370.223 8
  23588681.290    23588683.264   -77468843.749 9  91671630.025 8
  20964887.445    20964888.973   -22318393.005 9 -12659723.121 8
 89 11 22 13 16 29.0800000  0  4G13G 6G 3G 9
  20705314.738    20705317.127   -50509270.472 8  31758788.658 8
  23547047.815    23547050.815     8427508.699 9   4765686.562 8
  23574143.812    23574146.694   -77545234.086 8  91612105.096 9
  20975443.158    20975446.718   -22262917.048 9 -12616495.114 7
 89 11 22 13 16 59.0800000  0  4G13G 6G 3G 9
  20704576.044    20704578.476   -50513156.244 9  31755760.809 8
  23568667.988    23568669.131     8541119.908 9   4854214.747 8
  23559656.079    23559659.320   -77621361.431 9  91552785.117 9
  20986113.604    20986116.270   -22206846.697 9 -12572803.945 7
 89 11 22 13 17 29.0800000  0  4G13G 6G 3G 9
  20703911.558    20703916.402   -50516644.486 9  31753042.672 7
  23590338.294    23590340.693     8655000.439 9   4942952.762 9
  23545220.446    23545223.430   -77697225.590 8  91493670.211 9
  20996896.074    20996899.796   -22150183.150 9 -12528650.552 9
 89 11 22 13 17 59.0800000  0  4G13G 6G 3G 9
  20703323.682    20703327.047   -50519736.756 9  31750633.123 6
  23612059.193    23612062.101     8769147.332 9   5031898.374 9
  23530834.732    23530837.479   -77772826.241 9  91434760.642 8
  21007791.107    21007793.755   -22092928.167 8 -12484036.289 8
 89 11 22 13 18 29.0800000  0  4G13G 6G 3G 9
  20702809.675    20702813.495   -50522434.044 9  31748531.363 8
  23633831.229    23633833.928     8883557.998 9   5121049.512 8
  23516499.532    23516500.320   -77848162.870 9  91376056.786 8
  21018799.038    21018800.542   -22035082.955 9 -12438962.124 8
 89 11 22 13 18 59.0800000  0  4G13G 6G 3G 9
  20702371.112    20702374.843   -50524738.061 9  31746736.018 7
  23655653.134    23655654.849     8998229.621 9   5210403.996 8
  23502213.757    23502214.644   -77923234.995 9  91317559.037 8
  21029919.328    21029920.358   -21976649.143 8 -12393429.284 8
 89 11 22 13 19 29.0800000  0  4G13G 6G 3G 9
  20702006.283    20702010.818   -50526650.365 9  31745245.930 8
  23677522.897    23677526.012     9113159.660 9   5299959.854 9
  23487977.452    23487979.771   -77998042.187 9  91259267.727 8
  21041150.364    21041153.227   -21917627.998 9 -12347438.789 8
 89 11 22 13 19 59.0800000  0  4G13G 6G 3G 9
  20701717.956    20701722.156   -50528172.253 8  31744060.042 8
  23699442.024    23699443.854     9228345.145 9   5389714.746 8
  23473793.319    23473795.429   -78072584.211 9  91201183.041 8
  21052492.730    21052495.678   -21858021.174 9 -12300991.938 8
 89 11 22 13 20 29.0800000  0  4G13G 6G 3G 9
  20701503.200    20701505.392   -50529304.836 9  31743177.525 6
  23721409.499    23721412.575     9343783.629 9   5479666.768 9
  23459658.782    23459659.870   -78146860.652 9  91143305.268 7
  21063946.960    21063948.435   -21797830.208 9 -12254089.887 8
 89 11 22 13 20 59.0800000  0  4G13G 6G 3G 9
  20701360.488    20701363.765   -50530050.130 9  31742596.789 7
  23743424.413    23743426.651     9459472.230 9   5569813.705 9
  23445574.569    23445577.087   -78220870.865 9  91085634.964 7
  21075512.860    21075514.692   -21737056.630 8 -12206733.870 8
 89 11 22 13 21 29.0800000  0  4G13G 6G 3G 9
  20701292.144    20701296.009   -50530408.836 8  31742317.288 7
  23765485.858    23765488.529     9575408.358 9   5660153.483 8
  23431540.689    23431543.136   -78294614.751 8  91028172.206 8
  21087187.052    21087190.029   -21675701.880 9 -12158924.996 8
 89 11 22 13 21 59.0800000  0  4G13G 6G 3G 9
  20701297.698    20701299.476   -50530383.356 8  31742337.163 7
  23787594.284    23787597.466     9691588.568 8   5750683.476 9
  23417558.015    23417561.140   -78368092.533 9  90970916.798 8
  21098974.199    21098974.944   -21613768.344 9 -12110665.112 8
 89 11 22 13 22 29.0800000  0  4G13G 6G 3G 9
  20701374.741    20701378.848   -50529974.514 8  31742655.738 8
  23809749.600    23809750.711     9808010.849 9   5841402.084 7
  23403627.730    23403628.804   -78441302.983 9  90913869.685 7
  21110869.265    21110870.854   -21551256.676 9 -12061954.738 7
 89 11 22 13 22 59.0800000  0  4G13G 6G 3G 9
  20701524.088    20701527.504   -50529184.249 9  31743271.536 8
  23831948.284    23831952.111     9924671.947 8   5932306.759 9
  23389746.594    23389748.783   -78514246.393 9  90857030.643 7
  21122872.962    21122875.367   -21488169.138 9 -12012795.628 8
 89 11 22 13 23 29.0800000  0  4G13G 6G 3G 9
  20701747.524    20701750.628   -50528013.865 8  31744183.528 7
  23854194.366    23854197.112    10041569.525 8   6023395.745 8
  23375917.467    23375919.986   -78586922.254 9  90800400.086 7
  21134987.994    21134990.084   -21424507.223 9 -11963188.954 8
 89 11 22 13 23 59.0800000  0  4G13G 6G 3G 9
  20702042.829    20702046.860   -50526464.845 8  31745390.561 8
  23876483.572    23876486.400    10158700.860 9   6114666.847 9
  23362138.331    23362139.904   -78659329.953 9  90743978.522 8
  21147211.883    21147213.229   -21360272.399 9 -11913135.853 8
 89 11 22 13 24 29.0800000  0  4G13G 6G 3G 9
  20702410.392    20702412.788   -50524538.731 9  31746891.435 8
  23898815.716    23898819.707    10276062.786 9   6206117.655 8
  23348411.621    23348412.381   -78731469.532 9  90687765.849 8
  21159544.091    21159545.537   -21295466.533 9 -11862637.779 8
 89 11 22 13 24 59.0800000  0  4G13G 6G 3G 9
  20702847.947    20702851.221   -50522236.891 9  31748685.080 7
  23921192.877    23921196.139    10393652.690 9   6297746.088 9
  23334734.267    23334735.755   -78803340.668 9  90631762.350 7
  21171984.701    21171985.661   -21230091.704 8 -11811696.368 8
 89 11 22 13 25 29.0800000  0  4G13G 6G 3G 9
  20703357.209    20703360.654   -50519560.892 9  31750770.291 7
  23943612.912    23943615.483    10511467.779 9   6389550.005 9
  23321108.264    23321110.360   -78874943.096 9  90575968.245 7
  21184532.297    21184533.885   -21164149.277 9 -11760312.666 8
 89 11 22 13 25 59.0800000  0  4G13G 6G 3G 9
  20703936.349    20703941.381   -50516512.300 9  31753145.829 7
  23966074.286    23966077.940    10629505.258 9   6481527.183 9
  23307534.015    23307535.418   -78946276.450 8  90520383.802 8
  21197189.004    21197191.065   -21097641.376 9 -11708488.354 7
 89 11 22 13 26 29.0800000  0  4G13G 6G 3G 9
  20704587.339    20704590.511   -50513092.513 9  31755810.597 7
  23988578.108    23988580.500    10747762.261 9   6573675.452 9
  23294011.176    23294014.781   -79017340.486 8  90465009.230 8
  21209953.260    21209953.976   -21030569.612 9 -11656224.648 7
 89 11 22 13 26 59.0800000  0  4G13G 6G 3G 9
  20705307.889    20705311.971   -50509303.142 9  31758763.367 7
  24011122.860    24011126.769    10866236.234 9   6665992.770 9
  23280540.109    23280542.326   -79088134.923 9  90409844.732 8
  21222822.760    21222823.892   -20962935.576 9 -11603522.821 8
 89 11 22 13 27 29.0800000  0  4G13G 6G 3G 9
  20706099.304    20706103.203   -50505145.894 9  31762002.795 7
  24033708.513    24033711.620    10984924.213 9   6758476.858 9
  23267119.161    23267121.379   -79158659.760 9  90354890.330 8
  21235799.738    21235800.453   -20894741.591 9 -11550384.666 8
 89 11 22 13 27 59.0800000  0  4G13G 6G 3G 9
  20706960.429    20706963.033   -50500622.493 9  31765527.533 8
  24056334.952    24056337.902    11103823.394 9   6851125.532 8
  23253750.428    23253753.468   -79228914.390 9  90300146.480 8
  21248883.459    21248884.346   -20825989.146 8 -11496811.349 7
 89 11 22 13 28 29.0800000  0  4G13G 6G 3G 9
  20707891.368    20707894.466   -50495734.007 9  31769336.738 8
  24079000.072    24079002.707    11222930.926 9   6943936.537 7
  23240433.636    23240434.544   -79298898.877 9  90245613.119 9
  21262071.363    21262072.440   -20756680.449 8 -11442804.590 8
 89 11 22 13 28 59.0800000  0  4G13G 6G 3G 9
  20708890.108    20708894.569   -50490482.141 9  31773429.105 8
  24101704.875    24101707.353    11342243.950 9   7036907.693 8
  23227167.121    23227169.046   -79368612.875 9  90191290.503 9
  21275365.372    21275366.421   -20686817.387 8 -11388365.846 7
 89 11 22 13 29 29.0800000  0  4G13G 6G 3G 9
  20709958.475    20709961.119   -50484869.184 9  31777802.852 7
  24124447.289    24124449.109    11461759.618 9   7130036.756 8
  23213952.277    23213953.793   -79438056.801 9  90137178.363 9
  21288764.999    21288767.535   -20616402.054 9 -11333496.775 7
 89 11 22 13 29 59.0800000  0  4G13G 6G 3G 9
  20711095.438    20711098.915   -50478896.330 9  31782457.028 8
  24147228.996    24147230.673    11581475.247 8   7223321.625 7
  23200788.197    23200790.701   -79507229.684 9  90083277.420 9
  21302270.165    21302272.326   -20545436.226 9 -11278198.743 8
 89 11 22 13 30 59.0800000  0  4G13G 6G 3G 9
  20713572.406    20713577.206   -50465876.494 9  31792602.357 7
  24192900.559    24192905.727    11821495.399 7   7410350.167 8
  23174617.999    23174619.115   -79644762.190 8  89976109.251 8
  21329592.315    21329592.286   -20401860.852 9 -11166321.860 8
 89 11 22 13 31 29.0800000  0  4G13G 6G 3G 9
  20714912.824    20714917.520   -50458832.305 9  31798091.353 7
  24215793.849    24215798.130    11941794.116 7   7504089.349 8
  23161609.483    23161610.363   -79713121.784 9  89922842.018 9
  21343407.808    21343409.339   -20329255.475 9 -11109746.252 8
 89 11 22 13 31 59.0800000  0  4G13G 6G 3G 9
  20716321.345    20716323.914   -50451434.280 9  31803856.052 7
  24238722.794    24238726.101    12062281.392 8   7597975.415 8
  23148651.605    23148654.116   -79781209.996 9  89869786.270 8
  21357327.894    21357328.908   -20256107.767 9 -11052748.070 8
 89 11 22 13 32 29.0800000  0  4G13G 6G 3G 9
  20717795.594    20717798.713   -50443684.485 9  31809894.864 9
  24261686.694    24261689.443    12182954.367 9   7692006.227 9
  23135747.461    23135748.799   -79849026.838 9  89816941.988 9
  21371349.779    21371350.852   -20182419.860 9 -10995328.932 8
 89 11 22 13 32 59.0800000  0  4G13G 6G 3G 9
  20719337.528    20719341.739   -50435584.061 9  31816206.874 8
  24284684.090    24284688.013    12303810.197 9   7786179.536 9
  23122894.247    23122895.548   -79916572.001 9  89764309.399 9
  21385474.993    21385475.949   -20108193.870 9 -10937490.518 7
 89 11 22 13 33 29.0800000  0  4G13G 6G 3G 9
  20720944.641    20720948.615   -50427135.338 9  31822790.317 5
  24307717.387    24307720.323    12424845.946 9   7880493.019 7
  23110091.474    23110094.837   -79983845.537 9  89711888.437 6
  21399701.068    21399704.009   -20033431.870 9 -10879234.438 5
 89 11 22 13 33 59.0800000  0  4G13G 6G 3G 9
  20722617.580    20722622.931   -50418339.143 9  31829644.495 8
  24330783.347    24330786.855    12546058.766 9   7974944.509 9
  23097341.422    23097343.690   -80050847.449 9  89659679.149 8
  21414030.039    21414030.745   -19958136.178 9 -10820562.472 8
 89 11 22 13 34 29.0800000  0  4G13G 6G 3G 9
  20724358.168    20724361.036   -50409197.557 9  31836767.818 7
  24353883.322    24353884.727    12667445.793 9   8069531.752 8
  23084642.685    23084645.683   -80117577.655 9  89607681.592 7
  21428458.846    21428460.678   -19882308.942 9 -10761476.315 7
 89 11 22 13 34 59.0800000  0  4G13G 6G 3G 9
  20726162.149    20726166.603   -50399712.322 9  31844158.914 7
  24377014.794    24377017.200    12789004.412 9   8164252.683 9
  23071996.426    23071998.831   -80184035.938 9  89555895.926 9
  21442989.396    21442991.025   -19805952.147 9 -10701977.529 7
 89 11 22 13 35 29.0800000  0  4G13G 6G 3G 9
  20728032.478    20728037.167   -50389884.904 8  31851816.653 8
  24400179.059    24400181.150    12910731.624 9   8259104.995 9
  23059401.218    23059404.660   -80250222.038 9  89504322.351 9
  21457620.186    21457621.265   -19729067.840 9 -10642067.685 8
 89 11 22 13 35 59.0800000  0  4G13G 6G 3G 9
  20729968.148    20729971.113   -50379717.406 9  31859739.391 7
  24423374.582    24423377.403    13032624.525 9   8354086.405 9
  23046858.198    23046860.472   -80316136.101 9  89452960.753 8
  21472349.936    21472352.176   -19651658.552 9 -10581748.789 8
 89 11 22 13 36 29.0800000  0  4G13G12G 3G 9
  20731967.204    20731969.913   -50369210.640 9  31867926.473 8
  20851349.437    20851349.984   -88660824.657 9 112384465.312 7
  23034367.366    23034369.505   -80381778.175 9  89401811.101 8
  21487180.257    21487182.318   -19573726.527 9 -10521022.558 8
 89 11 22 13 36 59.0800000  0  4G13G12G 3G 9
  20734030.079    20734033.760   -50358367.128 9  31876375.986 8
  20846257.704    20846259.757   -88687585.685 9 112363612.484 9
  23021928.526    23021930.551   -80447148.009 8  89350873.566 8
  21502109.569    21502110.506   -19495273.966 9 -10459890.700 9
 89 11 22 13 37 29.0800000  0  4G13G12G 3G 9
  20736158.340    20736159.846   -50347188.062 9  31885086.939 7
  20841276.365    20841279.176   -88713760.902 9 112343216.200 8
  23009539.826    23009541.557   -80512245.609 9  89300148.157 8
  21517137.581    21517139.732   -19416302.999 9 -10398354.887 9
 89 11 22 13 37 59.0800000  0  4G13G12G 3G 9
  20738349.307    20738351.557   -50335674.972 9  31894058.197 8
  20836406.081    20836410.198   -88739348.470 9 112323277.834 9
  22997205.294    22997206.839   -80577071.061 9  89249634.827 8
  21532262.969    21532264.446   -19336815.809 8 -10336416.839 8
 89 11 22 13 38 29.0800000  0  4G13G12G 3G 9
  20740604.140    20740606.090   -50323829.309 9  31903288.580 7
  20831650.736    20831652.827   -88764347.006 9 112303798.456 9
  22984920.787    22984922.161   -80641624.164 9  89199333.700 8
  21547487.187    21547489.191   -19256815.003 9 -10274078.566 8
 89 11 22 13 38 59.0800000  0  4G13G12G 3G 9
  20742919.682    20742924.522   -50311653.356 8  31912776.342 7
  20827004.937    20827007.574   -88788754.924 9 112284779.298 8
  22972688.839    22972690.848   -80705904.990 9  89149244.730 8
  21562808.468    21562810.425   -19176302.831 9 -10211341.823 8
 89 11 22 13 39 29.0800000  0  4G13G12G 3G 9
  20745299.037    20745302.059   -50299148.251 9  31922520.584 8
  20822473.099    20822475.707   -88812571.175 9 112266221.179 8
  22960508.256    22960509.959   -80769913.635 9  89099367.850 9
  21578225.031    21578227.886   -19095281.659 8 -10148208.464 8
 89 11 22 13 39 59.0800000  0  4G13G12G 3G 9
  20747742.038    20747745.161   -50286316.096 8  31932519.677 7
  20818053.080    20818057.229   -88835793.751 8 112248125.664 8
  22948379.444    22948381.725   -80833649.895 8  89049703.249 9
  21593739.223    21593742.351   -19013753.716 9 -10084680.232 9
 89 11 22 13 40 29.0800000  0  4G13G12G 3G 9
  20750246.285    20750249.365   -50273157.961 9  31942772.764 8
  20813747.770    20813750.713   -88858421.197 9 112230493.891 8
  22936302.763    22936303.886   -80897113.828 9  89000250.844 8
  21609350.396    21609351.087   -18931721.336 9 -10020758.924 8
 89 11 22 13 40 59.0800000  0  4G13G12G 3G 9
  20752810.976    20752814.426   -50259675.773 9  31953278.376 8
  20809554.422    20809558.926   -88880451.942 9 112213327.069 9
  22924277.026    22924280.231   -80960305.479 9  88951010.572 7
  21625055.744    21625058.904   -18849186.999 9  -9956446.483 9
 89 11 22 13 41 29.0800000  0  4G13G12G 3G 9
  20755438.383    20755442.151   -50245871.184 9  31964035.189 7
  20805476.132    20805480.024   -88901884.655 9 112196626.254 8
  22912304.327    22912308.176   -81023224.808 9  88901982.508 9
  21640856.770    21640859.242   -18766153.135 9  -9891744.795 9
 89 11 22 13 41 59.0800000  0  4G13G12G 3G 9
  20758125.698    20758129.365   -50231746.253 9  31975041.641 8
  20801512.536    20801516.170   -88922717.678 9 112180392.727 8
  22900383.076    22900385.766   -81085872.037 9  88853166.507 9
  21656752.270    21656752.935   -18682622.165 9  -9826655.735 9
 89 11 22 13 42 29.0800000  0  4G13G12G 3G 9
  20760874.482    20760877.563   -50217302.453 9  31986296.552 7
  20797662.860    20797665.414   -88942949.784 9 112164627.452 9
  22888513.549    22888515.775   -81148247.018 9  88804562.634 8
  21672741.667    21672744.090   -18598596.344 9  -9761181.087 8
 89 11 22 13 42 59.0800000  0  4G13G12G 3G 9
  20763683.742    20763686.021   -50202541.730 9  31997798.427 8
  20793927.187    20793930.250   -88962579.655 9 112149331.440 8
  22876695.147    22876697.688   -81210350.047 9  88756170.657 8
  21688824.611    21688826.819   -18514078.543 9  -9695323.089 9
 89 11 22 13 43 29.0800000  0  4G13G12G 3G 9
  20766553.385    20766555.977   -50187465.390 9  32009546.229 6
  20790306.343    20790309.435   -88981606.204 8 112134505.549 8
  22864928.954    22864931.916   -81272181.405 9  88707990.366 9
  21705000.304    21705003.920   -18429070.970 8  -9629083.451 8
 89 11 22 13 43 59.0800000  0  4G13G12G 3G 9
  20769481.629    20769484.265   -50172075.174 9  32021538.601 8
  20786802.157    20786804.471   -89000027.879 9 112120151.005 8
  22853214.474    22853218.453   -81333740.806 8  88660022.019 9
  21721269.834    21721272.994   -18343576.262 9  -9562464.232 8
 89 11 22 13 44 29.0800000  0  4G13G12G 3G 9
  20772469.344    20772473.855   -50156372.682 9  32033774.299 8
  20783411.420    20783415.209   -89017843.283 9 112106268.857 9
  22841552.782    22841555.851   -81395028.018 9  88612265.747 8
  21737631.766    21737633.659   -18257596.882 9  -9495467.325 8
 89 11 22 13 44 59.0800000  0  4G13G12G 3G 9
  20775516.820    20775519.771   -50140359.975 9  32046251.745 7
  20780136.333    20780139.495   -89035051.122 9 112092860.159 8
  22829941.845    22829944.657   -81456043.552 9  88564721.180 9
  21754085.141    21754086.007   -18171135.112 9  -9428094.523 8
 89 11 22 13 45 29.0800000  0  4G13G12G 3G 9
  20778621.979    20778626.133   -50124039.103 9  32058969.310 7
  20776978.015    20776980.992   -89051650.513 9 112079925.553 9
  22818382.130    22818385.143   -81516787.642 9  88517388.126 8
  21770629.580    21770630.550   -18084193.963 9  -9360348.178 8
 89 11 22 13 45 59.0800000  0  4G13G12G 3G 9
  20781786.328    20781790.924   -50107411.057 9  32071926.232 8
  20773935.178    20773937.902   -89067640.108 8 112067466.141 9
  22806874.832    22806876.857   -81577260.138 9  88470266.708 8
  21787264.872    21787265.713   -17996775.643 8  -9292230.029 8
 89 11 22 13 46 29.0800000  0  4G13G12G 3G 9
  20785008.345    20785011.023   -50090477.791 9  32085121.002 8
  20771008.656    20771011.530   -89083018.572 8 112055482.898 9
  22795418.387    22795421.220   -81637461.228 9  88423356.743 8
  21803990.471    21803990.658   -17908882.865 9  -9223742.172 8
 89 11 22 13 46 59.0800000  0  4G13G12G 3G 9
  20788288.760    20788291.626   -50073240.685 9  32098552.501 7
  20768197.773    20768200.521   -89097785.018 9 112043976.570 8
  22784014.933    22784017.309   -81697391.219 8  88376658.055 8
  21820805.315    21820806.395   -17820518.213 9  -9154886.606 8
 89 11 22 13 47 29.0800000  0  4G13G12G 3G 9
  20791626.224    20791629.203   -50055701.426 9  32112219.468 8
  20765504.411    20765507.856   -89111938.227 8 112032948.091 8
  22772662.278    22772663.908   -81757050.099 9  88330170.643 9
  21837709.519    21837711.837   -17731684.421 9  -9085665.499 8
 89 11 22 13 47 59.0800000  0  4G13G12G 3G 9
  20795020.658    20795024.081   -50037862.674 9  32126119.792 7
  20762928.525    20762931.132   -89125477.190 9 112022398.249 8
  22761360.954    22761363.673   -81816438.410 9  88283894.021 8
  21854702.993    21854704.647   -17642384.244 9  -9016080.980 7
 89 11 22 13 48 29.0800000  0  4G13G12G 3G 9
  20798472.697    20798476.765   -50019725.810 9  32140252.406 7
  20760468.488    20760472.955   -89138400.934 9 112012327.785 8
  22750110.449    22750113.884   -81875556.302 9  88237828.114 8
  21871784.838    21871785.433   -17552620.359 9  -8946135.115 8
 89 11 22 13 48 59.0800000  0  4G13G12G 3G 9
  20801980.402    20801983.039   -50001292.406 9  32154616.093 8
  20758127.492    20758131.284   -89150708.408 9 112002737.538 9
  22738912.287    22738915.314   -81934403.527 9  88191973.155 9
  21888954.189    21888954.348   -17462395.055 9  -8875829.702 9
 89 11 22 13 49 29.0800000  0  4G13G12G 3G 9
  20805544.458    20805546.722   -49982564.178 9  32169209.526 8
  20755903.434    20755907.483   -89162398.095 9 111993628.691 7
  22727765.979    22727768.133   -81992980.244 9  88146328.970 9
  21906210.734    21906212.159   -17371711.147 9  -8805166.920 7
 89 11 22 13 49 59.0800000  0  4G13G12G 3G 9
  20809164.201    20809166.694   -49963542.686 9  32184031.459 8
  20753796.816    20753799.208   -89173469.087 9 111985001.943 8
  22716670.844    22716673.011   -82051286.936 9  88100895.170 8
  21923554.294    21923554.934   -17280571.202 9  -8734148.807 9
 89 11 22 13 50 29.0800000  0  4G13G12G 3G 9
  20812839.352    20812841.201   -49944229.574 9  32199080.650 8
  20751808.418    20751811.048   -89183920.541 9 111976857.937 9
  22705625.041    22705627.737   -82109323.803 9  88055671.641 7
  21940984.111    21940985.453   -17188978.089 9  -8662777.573 9
 89 11 22 13 50 59.0800000  0  4G13G12G 3G 9
  20816568.186    20816571.867   -49924626.279 9  32214355.948 7
  20749938.555    20749940.958   -89193751.357 8 111969197.556 7
  22694633.631    22694635.061   -82167090.750 9  88010658.447 8
  21958498.836    21958500.035   -17096934.454 9  -8591055.283 9
 89 11 22 13 51 29.0800000  0  4G13G12G 3G 9
  20820353.049    20820357.246   -49904734.881 9  32229855.723 8
  20748184.560    20748187.794   -89202960.907 8 111962021.271 8
  22683692.641    22683695.274   -82224588.277 9  87965855.167 9
  21976100.301    21976101.035   -17004443.132 9  -8518984.156 8
 89 11 22 13 51 59.0800000  0  4G13G12G 3G 9
  20824193.472    20824197.368   -49884557.457 9  32245578.410 8
  20746550.598    20746553.539   -89211548.365 9 111955329.728 9
  22672802.459    22672804.512   -82281816.380 9  87921261.869 9
  21993785.174    21993785.827   -16911506.794 9  -8446566.269 8
 89 11 22 13 52 29.0800000  0  4G13G12G 3G 9
  20828087.718    20828090.198   -49864095.314 9  32261522.946 7
  20745034.270    20745039.117   -89219512.675 8 111949123.761 8
  22661963.979    22661965.538   -82338775.266 9  87876878.318 7
  22011553.886    22011556.120   -16818127.951 9  -8373803.566 8
 89 11 22 13 52 59.0800000  0  4G13G12G 3G 9
  20832035.912    20832038.706   -49843350.180 9  32277687.979 8
  20743637.870    20743640.854   -89226853.016 8 111943404.017 8
  22651175.967    22651177.141   -82395465.509 9  87832704.086 7
  22029406.916    22029408.626   -16724309.690 9  -8300698.457 9
 89 11 22 13 53 29.0800000  0  4G13G12G 3G 9
  20836036.302    20836038.209   -49822323.668 9  32294072.289 7
  20742359.403    20742364.097   -89233568.300 9 111938171.309 8
  22640440.048    22640440.963   -82451886.953 9  87788739.322 9
  22047343.964    22047344.709   -16630054.549 9  -8227252.918 9
 89 11 22 13 53 59.0800000  0  4G13G12G 3G 9
  20840091.328    20840093.621   -49801017.408 9  32310674.573 7
  20741199.972    20741203.732   -89239657.944 9 111933426.121 8
  22629753.033    22629755.724   -82508039.798 9  87744983.856 7
  22065361.942    22065363.877   -16535365.286 9  -8153469.114 8
 89 11 22 13 54 29.0800000  0  4G13G12G 3G 9
  20844198.495    20844200.859   -49779433.849 9  32327492.933 8
  20740160.326    20740163.392   -89245120.913 8 111929169.252 9
  22619120.101    22619120.566   -82563924.454 9  87701437.365 8
  22083462.724    22083465.447   -16440244.875 9  -8079349.360 9
 89 11 22 13 54 59.0800000  0  4G13G12G 3G 9
  20848358.517    20848360.338   -49757574.169 9  32344526.440 7
  20739241.076    20739243.970   -89249956.827 9 111925401.007 8
  22608534.476    22608536.980   -82619541.291 9  87658099.551 8
  22101644.667    22101647.675   -16344696.056 9  -8004895.763 8
 89 11 22 13 55 29.0800000  0  4G13G12G 3G 9
  20852570.478    20852573.229   -49735439.953 9  32361773.882 8
  20738440.558    20738442.285   -89254165.076 9 111922121.859 8
  22598002.698    22598006.962   -82674890.820 9  87614970.052 7
  22119908.152    22119911.382   -16248721.846 8  -7930110.704 9
 89 11 22 13 55 59.0800000  0  4G13G12G 3G 9
  20856834.755    20856835.660   -49713033.104 9  32379233.761 8
  20737758.732    20737762.671   -89257744.865 9 111919332.392 8
  22587521.212    22587522.579   -82729973.141 9  87572048.761 8
  22138252.181    22138252.883   -16152324.971 9  -7854996.305 8
 89 11 22 13 56 29.0800000  0  4G13G12G 3G 9
  20861150.488    20861151.665   -49690355.336 9  32396904.745 8
  20737198.594    20737200.085   -89260695.711 9 111917033.030 8
  22577090.256    22577091.243   -82784788.462 9  87529335.524 8
  22156675.878    22156678.346   -16055508.167 9  -7779554.683 9
 89 11 22 13 56 59.0800000  0  4G13G12G 3G 9
  20865515.414    20865517.191   -49667408.112 9  32414785.689 7
  20736755.830    20736758.609   -89263016.643 9 111915224.492 8
  22566708.846    22566711.694   -82839337.008 8  87486830.148 8
  22175178.665    22175182.010   -15958274.420 8  -7703788.174 9
 89 11 22 13 57 29.0800000  0  4G13G12G 3G 9
  20869934.232    20869936.023   -49644193.231 9  32432875.212 7
  20736434.771    20736438.201   -89264707.367 9 111913907.038 9
  22556380.430    22556382.069   -82893619.166 9  87444532.377 8
  22193760.602    22193762.559   -15860626.474 8  -7627698.904 8
 89 11 22 13 57 59.0800000  0  4G13G12G 3G 9
  20874402.748    20874404.612   -49620712.493 9  32451171.885 8
  20736233.623    20736235.369   -89265766.841 9 111913081.462 8
  22546102.115    22546104.977   -82947635.033 9  87402442.067 8
  22212421.097    22212422.871   -15762567.173 9  -7551289.091 8
 89 11 22 13 58 29.0800000  0  4G13G12G 3G 9
  20878920.900    20878924.480   -49596968.157 9  32469673.955 8
  20736152.154    20736155.224   -89266194.866 8 111912747.928 8
  22535872.216    22535875.478   -83001385.384 9  87360558.667 8
  22231158.254    22231160.279   -15664099.750 9  -7474561.275 8
 89 11 22 13 58 59.0800000  0  4G13G12G 3G 9
  20883489.209    20883490.773   -49572961.366 9  32488380.547 8
  20736190.629    20736193.743   -89265990.632 9 111912907.061 8
  22525696.354    22525697.599   -83054870.219 9  87318882.169 9
  22249974.062    22249975.430   -15565226.557 9  -7397517.272 9
 89 11 22 13 59 29.0800000  0  4G13G12G 3G 9
  20888107.352    20888108.428   -49548693.638 9  32507290.460 7
  20736349.504    20736353.332   -89265153.943 9 111913559.010 8
  22515568.155    22515568.620   -83108090.156 9  87277412.084 7
  22268864.819    22268867.695   -15465951.186 9  -7320159.889 9
 89 11 22 13 59 59.0800000  0  4G13G12G 3G 9
  20892774.371    20892776.677   -49524166.684 9  32526402.375 8
  20736629.023    20736632.983   -89263684.455 9 111914704.054 9
  22505490.610    22505493.444   -83161045.240 9  87236148.369 8
  22287832.072    22287833.561   -15366276.200 9  -7242491.107 9
 89 11 22 14  0 29.0800000  0  4G13G12G 3G 9
  20897491.435    20897492.626   -49499382.401 9  32545714.789 8
  20737028.815    20737033.379   -89261581.729 8 111916342.528 9
  22495464.526    22495466.264   -83213735.930 9  87195090.700 8
  22306875.470    22306878.006   -15266204.451 9  -7164513.168 7
 89 11 22 14  0 59.0800000  0  4G13G12G 3G 9
  20902255.521    20902258.130   -49474342.560 9  32565226.345 8
  20737549.742    20737553.398   -89258845.236 9 111918474.854 9
  22485488.069    22485490.108   -83266162.628 9  87154238.708 9
  22325994.211    22325995.203   -15165739.170 9  -7086228.576 9
 89 11 22 14  1 29.0800000  0  4G13G12G 3G 9
  20907068.470    20907071.033   -49449048.596 9  32584935.921 8
  20738190.283    20738194.359   -89255474.500 8 111921101.383 8
  22475562.059    22475562.867   -83318325.585 9  87113592.239 7
  22345186.826    22345189.176   -15064883.037 9  -7007639.425 8
 89 11 22 14  1 59.0800000  0  4G13G12G 3G 9
  20911930.055    20911933.707   -49423502.408 9  32604842.035 8
  20738953.208    20738956.529   -89251469.618 9 111924222.063 8
  22465686.397    22465686.997   -83370225.262 9  87073150.926 8
  22364451.935    22364454.342   -14963639.311 9  -6928748.233 9
 89 11 22 14  2 29.0800000  0  4G13G12G 3G 9
  20916839.632    20916841.210   -49397705.455 9  32624943.541 8
  20739836.366    20739839.088   -89246829.970 9 111927837.365 8
  22455859.716    22455862.285   -83421862.001 9  87032914.480 8
  22383792.687    22383792.591   -14862010.440 9  -6849556.944 9
 89 11 22 14  2 59.0800000  0  4G13G12G 3G 9
  20921794.496    20921798.676   -49371659.890 8  32645238.767 7
  20740839.940    20740843.110   -89241555.046 9 111931947.685 8
  22446082.814    22446084.732   -83473236.468 9  86992882.407 8
  22403203.924    22403204.497   -14759999.745 9  -6770068.135 8
 89 11 22 14  3 29.0800000  0  4G13G12G 3G 9
  20926797.571    20926802.210   -49345366.726 9  32665726.937 8
  20741964.666    20741969.005   -89235644.647 9 111936553.167 9
  22436356.459    22436359.307   -83524348.591 9  86953054.759 8
  22422687.642    22422688.612   -14657610.263 9  -6690284.169 8
 89 11 22 14  3 59.0800000  0  4G13G12G 3G 9
  20931848.032    20931853.101   -49318827.920 9  32686406.495 7
  20743210.378    20743214.672   -89229098.863 8 111941653.762 8
  22426680.571    22426681.958   -83575199.148 9  86913430.950 8
  22442243.953    22442245.034   -14554845.012 9  -6610207.397 8
 89 11 22 14  4 29.0800000  0  4G13G12G 3G 9
  20936945.148    20936947.870   -49292045.718 9  32707275.757 7
  20744577.469    20744579.554   -89221917.440 9 111947249.669 8
  22417052.804    22417055.315   -83625788.549 9  86874010.618 8
  22461870.739    22461871.498   -14451707.121 8  -6529840.256 8
 89 11 22 14  4 59.0800000  0  4G13G12G 3G 9
  20942087.740    20942091.091   -49265021.639 9  32728333.460 7
  20746065.306    20746068.863   -89214099.979 9 111953341.170 9
  22407475.847    22407478.687   -83676117.133 9  86834793.540 8
  22481566.263    22481568.088   -14348199.513 9  -6449185.031 8
 89 11 22 14  5 29.0800000  0  4G13G12G 3G 9
  20947275.776    20947279.327   -49237757.125 9  32749578.520 7
  20747673.485    20747677.453   -89205646.531 9 111959928.261 8
  22397948.824    22397950.347   -83726185.290 9  86795779.378 8
  22501333.152    22501335.686   -14244325.163 8  -6368244.030 8
 89 11 22 14  5 59.0800000  0  4G13G12G 3G 9
  20952508.825    20952512.019   -49210253.862 9  32771009.635 7
  20749403.498    20749406.113   -89196557.083 9 111967010.934 8
  22388470.693    22388471.580   -83775993.471 9  86756967.808 8
  22521168.692    22521170.692   -14140087.279 8  -6287019.750 8
 89 11 22 14  6 29.0800000  0  4G13G12G 3G 9
  20957788.978    20957791.442   -49182513.194 9  32792625.716 9
  20751253.531    20751257.237   -89186831.407 9 111974589.368 8
  22379041.777    22379043.379   -83825541.928 9  86718358.603 8
  22541073.616    22541075.162   -14035488.601 8  -6205514.345 8
 89 11 22 14  6 59.0800000  0  4G13G12G 3G 9
  20963113.373    20963115.566   -49154536.666 9  32814425.606 8
  20753226.170    20753229.651   -89176469.476 9 111982663.576 8
  22369662.896    22369664.979   -83874831.202 9  86679951.362 8
  22561045.409    22561048.810   -13930532.391 8  -6123730.369 9
 89 11 22 14  7 29.0800000  0  4G13G12G 3G 9
  20968480.871    20968483.765   -49126326.481 9  32836407.554 8
  20755316.998    20755322.364   -89165471.294 8 111991233.567 8
  22360332.376    22360334.478   -83923861.869 9  86641745.633 8
  22581085.930    22581088.156   -13825221.438 9  -6041669.959 9
 89 11 22 14  7 59.0800000  0  4G13G12G 3G 9
  20973892.927    20973896.736   -49097883.736 9  32858570.731 7
  20757533.009    20757536.794   -89153836.757 9 112000299.416 9
  22351051.168    22351052.570   -83972634.202 9  86603741.212 8
  22601191.846    22601194.507   -13719559.179 8  -5959335.792 9
 89 11 22 14  8 29.0800000  0  4G13G12G 3G 9
  20979348.966    20979353.762   -49069210.224 9  32880913.720 7
  20759867.426    20759870.707   -89141565.928 8 112009861.098 8
  22341818.870    22341820.551   -84021148.919 9  86565937.534 8
  22621366.267    22621368.301   -13613548.418 9  -5876730.075 9
 89 11 22 14  8 59.0800000  0  4G13G12G 3G 9
  20984849.933    20984851.926   -49040307.672 9  32903435.175 8
  20762323.793    20762327.045   -89128659.000 9 112019918.415 8
  22332635.670    22332636.843   -84069406.071 9  86528334.558 8
  22641604.730    22641607.552   -13507192.245 9  -5793855.197 9
 89 11 22 14  9 29.0800000  0  4G13G12G 3G 9
  20990392.775    20990396.012   -49011178.082 9  32926133.534 8
  20764901.288    20764904.536   -89115116.251 8 112030471.188 8
  22323501.490    22323502.077   -84117406.501 9  86490931.619 8
  22661909.966    22661911.722   -13400493.915 9  -5710713.693 9
 89 11 22 14  9 59.0800000  0  4G13G12G 3G 9
  20995978.599    20995981.992   -48981822.853 9  32949007.720 8
  20767598.382    20767603.225   -89100937.734 9 112041519.367 8
  22314416.126    22314418.681   -84165150.629 9  86453728.377 9
  22682277.533    22682280.395   -13293456.366 9  -5627307.886 9
 89 11 22 14 10 29.0800000  0  4G13G12G 3G 9
  21001608.060    21001609.437   -48952243.454 9  32972056.598 7
  20770418.573    20770420.337   -89086123.314 9 112053063.046 7
  22305379.353    22305380.932   -84212638.738 9  86416724.656 8
  22702710.071    22702713.657   -13186082.733 9  -5543640.197 9
 89 11 22 14 10 59.0800000  0  4G13G12G 3G 9
  21007279.394    21007282.072   -48922441.444 9  32995278.926 8
  20773358.538    20773361.815   -89070673.025 9 112065102.206 8
  22296391.958    22296393.217   -84259871.283 9  86379920.061 8
  22723206.534    22723208.391   -13078376.122 9  -5459713.026 8
 89 11 22 14 11 29.0800000  0  4G13G12G 3G 9
  21012992.330    21012993.822   -48892418.847 9  33018673.144 8
  20776419.308    20776422.789   -89054587.619 9 112077636.257 8
  22287452.058    22287454.083   -84306848.904 9  86343314.101 8
  22743764.850    22743768.177   -12970339.718 9  -5375528.892 8
 89 11 22 14 11 59.0800000  0  4G13G12G 3G 9
  21018746.682    21018748.918   -48862177.059 9  33042238.155 8
  20779601.166    20779604.440   -89037867.025 9 112090665.270 8
  22278560.925    22278562.821   -84353572.205 9  86306906.323 8
  22764385.073    22764388.364   -12861976.686 9  -5291090.227 9
 89 11 22 14 12 29.0800000  0  4G13G12G 3G 9
  21024543.476    21024546.398   -48831717.290 9  33065973.040 8
  20782903.308    20782906.985   -89020511.563 9 112104188.992 8
  22269718.168    22269719.649   -84400041.357 9  86270696.580 8
  22785068.862    22785070.963   -12753290.093 8  -5206399.443 8
 89 11 22 14 12 59.0800000  0  4G13G12G 3G 9
  21030381.105    21030383.241   -48801041.635 9  33089876.133 9
  20786325.980    20786330.910   -89002521.878 9 112118206.894 8
  22260923.527    22260925.523   -84446257.174 9  86234684.249 8
  22805812.492    22805814.871   -12644283.111 8  -5121459.008 8
 89 11 22 14 13 29.0800000  0  4G13G12G 3G 9
  21036258.433    21036260.754   -48770151.477 9  33113946.377 7
  20789870.336    20789874.474   -88983898.238 9 112132718.811 8
  22252176.706    22252177.249   -84492220.341 9  86198868.781 8
  22826615.741    22826619.036   -12534958.864 9  -5036271.375 9
 89 11 22 14 13 59.0800000  0  4G13G12G 3G 9
  21042177.446    21042180.798   -48739048.625 9  33138182.345 9
  20793535.386    20793538.752   -88964640.470 9 112147724.841 8
  22243479.199    22243479.478   -84537931.125 9  86163249.983 9
  22847478.530    22847482.383   -12425320.409 9  -4950838.896 8
 89 11 22 14 14 29.0800000  0  4G13G12G 3G 9
  21048136.707    21048138.484   -48707734.679 9  33162582.814 8
  20797320.918    20797325.107   -88944749.073 9 112163224.598 8
  22234828.000    22234828.200   -84583389.847 8  86127827.586 8
  22868401.432    22868404.949   -12315370.903 8  -4865164.051 9
 89 11 22 14 14 59.0800000  0  4G13G12G 3G 9
  21054135.566    21054137.902   -48676211.249 9  33187146.508 8
  20801226.971    20801229.747   -88924224.685 9 112179217.598 7
  22226225.620    22226226.049   -84628597.358 9  86092600.939 8
  22889383.412    22889385.566   -12205113.512 9  -4779249.281 9
 89 11 22 14 15 29.0800000  0  4G13G12G 3G 9
  21060173.466    21060175.444   -48644479.510 9  33211872.525 8
  20805253.110    20805256.641   -88903067.818 9 112195703.447 8
  22217669.835    22217671.875   -84673553.694 9  86057570.013 8
  22910422.633    22910424.966   -12094551.291 9  -4693096.993 9
 89 11 22 14 15 59.0800000  0  4G13G12G 3G 9
  21066250.796    21066254.320   -48612540.834 9  33236759.766 8
  20809399.276    20809402.581   -88881279.035 9 112212681.692 8
  22209162.566    22209164.705   -84718259.928 9  86022733.988 8
  22931519.421    22931521.904   -11983687.531 9  -4606709.740 9
 89 11 22 14 16 29.0800000  0  4G13G12G 3G 9
  21072368.423    21072371.059   -48580397.583 9  33261806.435 8
  20813666.066    20813668.301   -88858858.216 9 112230152.440 8
  22200702.952    22200704.598   -84762716.421 9  85988092.537 7
  22952672.928    22952674.520   -11872525.506 9  -4520090.052 8
 89 11 22 14 16 59.0800000  0  4G13G12G 3G 9
  21078523.083    21078525.747   -48548051.395 9  33287011.243 9
  20818053.083    20818055.401   -88835806.325 9 112248114.927 8
  22192291.852    22192291.931   -84806923.824 9  85953645.199 8
  22973882.728    22973885.233   -11761068.234 9  -4433240.315 9
 89 11 22 14 17 29.0800000  0  4G13G12G 3G 9
  21084716.750    21084718.670   -48515503.340 9  33312373.347 8
  20822559.876    20822560.691   -88812123.462 9 112266569.074 8
  22183926.342    22183928.574   -84850882.426 9  85919391.732 8
  22995148.574    22995150.538   -11649318.879 9  -4346162.976 9
 89 11 22 14 17 59.0800000  0  4G13G12G 3G 9
  21090949.074    21090952.182   -48482755.012 9  33337891.500 7
  20827186.224    20827188.123   -88787810.730 9 112285514.035 8
  22175607.724    22175608.476   -84894593.263 9  85885331.305 8
  23016467.977    23016470.556   -11537280.609 8  -4258860.508 8
 89 11 22 14 18 29.0800000  0  4G13G12G 3G 9
  21097218.576    21097220.554   -48449808.168 8  33363564.340 7
  20831932.035    20831934.099   -88762868.525 9 112304949.499 8
  22167337.374    22167339.298   -84938056.415 9  85851463.899 7
  23037843.300    23037844.539   -11424956.767 9  -4171335.508 8
 89 11 22 14 18 59.0800000  0  4G13G12G 3G 9
  21103524.592    21103528.473   -48416664.398 9  33389390.626 7
  20836797.664    20836799.928   -88737298.252 9 112324874.357 8
  22159112.644    22159115.478   -84981272.998 9  85817788.607 8
  23059271.189    23059273.740   -11312350.642 9  -4083590.589 9
 89 11 22 14 19 29.0800000  0  4G13G12G 3G 9
  21109869.218    21109871.868   -48383325.133 9  33415369.254 8
  20841783.114    20841787.423   -88711100.057 9 112345288.493 8
  22150936.506    22150939.926   -85024243.327 9  85784305.212 9
  23080752.331    23080754.695   -11199465.321 8  -3995628.073 8
 89 11 22 14 19 59.0800000  0  4G13G12G 3G 9
  21116251.501    21116254.036   -48349791.312 9  33441499.473 9
  20846887.588    20846891.079   -88684274.545 9 112366191.465 7
  22142806.385    22142807.594   -85066967.612 9  85751013.539 8
  23102286.270    23102289.812   -11086303.697 8  -3907450.323 8
 89 11 22 14 20 29.0800000  0  4G13G12G 3G 9
  21122669.039    21122670.645   -48316065.177 9  33467779.557 7
  20852111.849    20852113.703   -88656822.649 9 112387582.522 8
  22134722.019    22134726.191   -85109446.862 9  85717912.786 9
  23123871.924    23123874.714   -10972869.305 9  -3819059.993 8
 89 11 22 14 20 59.0800000  0  4G13G12G 3G 9
  21129123.530    21129125.722   -48282148.356 9  33494208.214 8
  20857453.800    20857456.888   -88628745.107 9 112409461.088 8
  22126684.808    22126687.940   -85151681.724 9  85685002.483 8
  23145509.631    23145511.789   -10859165.562 8  -3730459.767 9
 89 11 22 14 21 29.0800000  0  4G13G12G 3G 9
  21135612.467    21135616.792   -48248041.976 9  33520784.578 8
  20862917.250    20862919.865   -88600042.892 9 112431826.423 8
  22118695.359    22118697.348   -85193672.574 9  85652282.315 8
  23167197.645    23167200.396   -10745195.272 9  -3641651.855 8
 89 11 22 14 21 59.0800000  0  4G13G12G 3G 9
  21142139.045    21142141.194   -48213747.998 9  33547507.137 8
  20868497.472    20868500.195   -88570716.836 9 112454677.852 8
  22110751.004    22110753.093   -85235420.111 9  85619751.740 7
  23188935.786    23188938.032   -10630961.771 8  -3552638.823 8
 89 11 22 14 22 29.0800000  0  4G13G12G 3G 9
  21148700.419    21148703.784   -48179267.418 9  33574375.079 8
  20874196.980    20874199.202   -88540767.371 9 112478015.065 8
  22102852.304    22102855.488   -85276924.649 9  85587410.513 9
  23210723.233    23210725.469   -10516467.898 9  -3463422.920 9
 89 11 22 14 22 59.0800000  0  4G13G12G 3G 9
  21155297.306    21155300.242   -48144601.160 9  33601387.720 7
  20880014.583    20880016.654   -88510195.342 9 112501837.380 8
  22095000.660    22095003.600   -85318186.789 9  85555258.183 9
  23232559.079    23232561.884   -10401717.236 9  -3374006.915 9
 89 11 22 14 23 29.0800000  0  4G13G12G 3G 9
  21161928.879    21161932.674   -48109751.365 9  33628543.368 8
  20885950.577    20885952.942   -88479001.842 9 112526143.974 7
  22087194.477    22087197.187   -85359207.754 9  85523293.784 8
  23254442.884    23254446.769   -10286713.007 8  -3284393.355 9
 89 11 22 14 23 59.0800000  0  4G13G12G 3G 9
  21168596.230    21168597.463   -48074719.885 9  33655840.594 7
  20892003.881    20892007.394   -88447187.524 9 112550934.308 7
  22079434.654    22079436.056   -85399987.443 9  85491517.383 8
  23276376.289    23276378.690   -10171458.358 8  -3194584.630 9
 89 11 22 14 24 29.0800000  0  4G13G12G 3G 9
  21175296.738    21175297.257   -48039507.711 9  33683278.621 8
  20898177.302    20898179.205   -88414753.776 8 112576207.322 8
  22071720.307    22071722.496   -85440527.042 9  85459928.063 8
  23298355.126    23298359.327   -10055956.653 9  -3104583.426 9
 89 11 22 14 24 59.0800000  0  4G13G12G 3G 9
  21182030.625    21182033.933   -48004116.193 9  33710856.401 8
  20904465.822    20904469.829   -88381701.177 9 112601962.544 8
  22064051.457    22064053.640   -85480826.454 9  85428525.909 8
  23320380.981    23320384.177    -9940210.755 9  -3014391.958 9
 89 11 22 14 25 29.0800000  0  4G13G12G 3G 9
  21188799.501    21188802.366   -47968547.312 8  33738572.370 8
  20910873.774    20910876.454   -88348031.080 9 112628198.957 8
  22056429.164    22056430.680   -85520886.768 9  85397310.076 9
  23342454.214    23342455.431    -9824224.317 9  -2924013.011 9
 89 11 22 14 25 59.0800000  0  4G13G12G 3G 9
  21195601.122    21195604.860   -47932802.005 9  33766425.805 8
  20917397.494    20917400.982   -88313744.650 9 112654915.610 7
  22048850.962    22048852.271   -85560708.630 9  85366280.038 9
  23364569.127    23364573.079    -9708000.188 9  -2833448.888 9
 89 11 22 14 26 29.0800000  0  4G13G12G 3G 9
  21202436.770    21202439.864   -47896881.940 9  33794415.445 8
  20924039.276    20924042.682   -88278842.667 9 112682111.912 8
  22041317.184    22041320.919   -85600292.548 9  85335435.410 9
  23386732.051    23386734.408    -9591541.757 9  -2742702.184 9
 89 11 22 14 26 59.0800000  0  4G13G12G 3G 9
  21209304.701    21209307.480   -47860788.892 9  33822539.853 8
  20930799.499    20930801.756   -88243326.242 9 112709787.010 8
  22033829.003    22033833.052   -85639639.136 9  85304775.712 8
  23408936.528    23408940.395    -9474852.273 9  -2651775.440 9
 89 11 22 14 27 29.0800000  0  4G13G12G 3G 9
  21216205.763    21216209.902   -47824523.558 9  33850798.519 8
  20937673.235    20937675.867   -88207197.052 9 112737939.587 8
  22026388.112    22026391.339   -85678749.007 9  85274300.480 9
  23431185.665    23431188.648    -9357934.896 9  -2560671.115 9
 89 11 22 14 27 59.0800000  0  4G13G12G 3G 9
  21223140.454    21223142.075   -47788087.914 9  33879189.875 7
  20944665.276    20944667.283   -88170455.734 9 112766569.135 8
  22018990.472    22018993.907   -85717622.844 9  85244009.188 8
  23453477.038    23453480.019    -9240792.960 7  -2469391.816 9
 89 11 22 14 28 29.0800000  0  4G13G12G 3G 9
  21230105.367    21230108.863   -47751483.037 9  33907713.111 7
  20951772.184    20951776.316   -88133103.515 9 112795674.722 8
  22011638.137    22011641.063   -85756261.340 9  85213901.255 8
  23475808.816    23475812.061    -9123429.633 8  -2377940.029 8
 89 11 22 14 28 59.0800000  0  4G13G12G 3G 9
  21237102.622    21237105.916   -47714710.224 9  33936367.213 8
  20958996.895    20959000.745   -88095141.809 9 112825255.212 8
  22004330.561    22004332.743   -85794665.141 9  85183976.208 9
  23498183.891    23498188.707    -9005848.154 8  -2286318.235 8
 89 11 22 14 29 29.0800000  0  4G13G12G 3G 9
  21244132.408    21244136.103   -47677771.102 8  33965150.916 7
  20966336.704    20966340.059   -88056571.685 9 112855309.827 8
  21997066.892    21997069.567   -85832834.800 9  85154233.607 9
  23520601.077    23520603.885    -8888051.788 8  -2194528.975 8
 89 11 22 14 29 59.0800000  0  4G13G12G 3G 9
  21251193.453    21251195.745   -47640667.419 9  33994062.829 7
  20973791.846    20973795.513   -88017394.335 9 112885837.579 9
  21989848.227    21989849.657   -85870771.091 9  85124672.859 8
  23543057.305    23543061.519    -8770043.812 9  -2102574.856 9
 89 11 22 14 30 29.0800000  0  4G13G12G 3G 9
  21258285.342    21258287.849   -47603400.176 9  34023102.202 8
  20981363.181    20981365.391   -87977610.920 9 112916837.597 9
  21982673.261    21982675.888   -85908474.585 9  85095293.482 9
  23565554.484    23565557.547    -8651827.285 8  -2010458.182 9
 89 11 22 14 30 59.0800000  0  4G13G12G 3G 9
  21265408.022    21265411.188   -47565971.101 9  34052267.663 8
  20989047.731    20989051.595   -87937222.996 9 112948308.648 7
  21975542.763    21975544.207   -85945946.024 9  85066094.957 8
  23588088.906    23588092.324    -8533405.734 9  -1918181.781 8
 89 11 22 14 31 29.0800000  0  4G13G12G 3G 9
  21272560.957    21272562.777   -47528381.359 9  34081558.333 7
  20996848.076    20996850.888   -87896231.776 9 112980249.813 7
  21968456.084    21968457.372   -85983185.884 9  85037076.865 8
  23610662.229    23610665.782    -8414782.210 9  -1825747.989 8
 89 11 22 14 31 59.0800000  0  4G13G12G 3G 9
  21279743.395    21279747.232   -47490632.198 9  34110973.202 7
  21004762.122    21004766.154   -87854639.067 9 113012659.662 8
  21961412.934    21961414.715   -86020195.022 9  85008238.565 8
  23633273.938    23633275.949    -8295960.056 9  -1733159.419 8
 89 11 22 14 32 29.0800000  0  4G13G12G 3G 9
  21286957.365    21286960.344   -47452724.763 9  34140511.404 8
  21012792.290    21012795.102   -87812446.215 9 113045537.159 8
  21954414.615    21954416.117   -86056973.861 9  84979579.715 8
  23655922.121    23655924.994    -8176942.453 8  -1640418.561 9
 89 11 22 14 32 59.0800000  0  4G13G12G 3G 9
  21294201.041    21294203.720   -47414660.513 9  34170171.812 7
  21020935.228    21020938.899   -87769654.557 9 113078881.257 8
  21947459.500    21947461.117   -86093523.144 8  84951099.741 9
  23678607.424    23678609.863    -8057732.420 8  -1547527.784 9
 89 11 22 14 33 29.0800000  0  4G13G12G 3G 9
  21301473.510    21301477.291   -47376441.123 9  34199953.094 8
  21029191.376    21029195.339   -87726265.295 9 113112691.029 8
  21940548.287    21940549.461   -86129843.626 9  84922798.062 8
  23701328.612    23701331.346    -7938333.526 9  -1454489.822 9
 89 11 22 14 33 59.0800000  0  4G13G12G 3G 9
  21308775.003    21308779.026   -47338067.453 8  34229854.614 7
  21037562.845    21037565.534   -87682280.143 9 113146965.115 8
  21933679.605    21933682.102   -86165936.046 9  84894674.075 8
  23724084.392    23724087.308    -7818748.965 8  -1361307.221 9
 89 11 22 14 34 29.0800000  0  4G13G12G 3G 9
  21316107.993    21316110.357   -47299541.344 9  34259874.899 7
  21046046.264    21046049.841   -87637700.724 9 113181702.271 8
  21926855.867    21926857.699   -86201800.826 9  84866727.480 9
  23746875.885    23746879.148    -7698981.836 8  -1267982.376 9
 89 11 22 14 34 59.0800000  0  4G13G12G 3G 9
  21323467.717    21323471.054   -47260864.102 9  34290012.939 6
  21054642.006    21054643.595   -87592528.456 9 113216901.385 8
  21920073.617    21920075.427   -86237439.174 9  84838957.312 8
  23769699.958    23769705.254    -7579035.510 8  -1174517.904 9
 89 11 22 14 35 29.0800000  0  4G13G12G 3G 9
  21330855.572    21330858.236   -47222036.837 9  34320267.897 8
  21063350.173    21063352.431   -87546764.960 9 113252561.182 8
  21913334.622    21913337.490   -86272851.349 9  84811363.410 9
  23792557.328    23792562.513    -7458913.214 7  -1080916.316 8
 89 11 22 14 35 59.0800000  0  4G13G12G 3G 9
  21338273.294    21338276.204   -47183060.911 9  34350638.684 7
  21072170.919    21072173.172   -87500411.677 9 113288680.571 8
  21906638.943    21906640.502   -86308037.967 9  84783945.246 7
  23815451.019    23815453.367    -7338618.111 9   -987180.007 8
 89 11 22 14 36 29.0800000  0  4G13G12G 3G 9
  21345718.792    21345722.043   -47143937.283 9  34381124.565 8
  21081103.792    21081105.927   -87453470.306 9 113325258.206 9
  21899985.967    21899987.126   -86342999.381 9  84756702.566 9
  23838374.143    23838377.212    -7218153.257 9   -893311.455 8
 89 11 22 14 36 59.0800000  0  4G13G12G 3G 9
  21353191.492    21353195.174   -47104667.256 9  34411724.520 7
  21090147.726    21090150.785   -87405942.460 9 113362292.810 8
  21893374.786    21893377.540   -86377736.637 9  84729634.551 8
  23861329.818    23861333.718    -7097521.933 9   -799313.192 7
 89 11 22 14 37 29.0800000  0  4G13G12G 3G 9
  21360691.794    21360694.730   -47065252.184 9  34442437.514 8
  21099303.677    21099306.636   -87357829.903 9 113399783.057 8
  21886807.652    21886810.213   -86412250.482 9  84702740.620 7
  23884316.145    23884319.923    -6976727.598 9   -705187.891 8
 89 11 22 14 37 59.0800000  0  4G13G12G 3G 9
  21368220.041    21368223.579   -47025692.874 9  34473262.895 8
  21108569.674    21108573.139   -87309134.283 9 113437727.627 8
  21880282.365    21880284.432   -86446541.280 9  84676020.505 9
  23907333.789    23907337.257    -6855773.285 9   -610937.935 7
 89 11 22 14 38 29.0800000  0  4G13G12G 3G 9
  21375774.459    21375778.253   -46985991.742 9  34504198.786 8
  21117947.498    21117950.550   -87259857.280 9 113476125.224 9
  21873800.347    21873801.992   -86480610.090 9  84649473.360 8
  23930380.014    23930383.524    -6734662.404 9   -516565.972 9
 89 11 22 14 38 59.0800000  0  4G13G12G 3G 9
  21383356.370    21383360.836   -46946149.684 8  34535244.482 8
  21127434.512    21127437.359   -87210000.317 9 113514974.740 8
  21867359.101    21867360.832   -86514457.712 9  84623098.583 8
  23953456.052    23953459.866    -6613398.052 9   -422074.433 8
 89 11 22 14 39 29.0800000  0  4G13G12G 3G 9
  21390964.635    21390966.684   -46906167.483 9  34566399.385 8
  21137032.410    21137034.549   -87159565.440 9 113554274.569 8
  21860958.828    21860962.026   -86548084.525 9  84596895.839 9
  23976560.510    23976563.785    -6491983.656 9   -327465.971 7
 89 11 22 14 39 59.0800000  0  4G13G12G 3G 9
  21398599.684    21398602.049   -46866046.434 9  34597662.476 8
  21146738.966    21146741.914   -87108554.850 9 113594023.026 8
  21854602.301    21854604.691   -86581491.234 9  84570864.603 8
  23999692.795    23999697.009    -6370422.261 8   -232742.971 8
 89 11 22 14 40 29.0800000  0  4G13G12G 3G 9
  21406260.670    21406263.950   -46825787.860 9  34629032.730 8
  21156555.643    21156558.347   -87056969.899 8 113634219.031 8
  21848287.238    21848290.543   -86614678.673 9  84545004.236 9
  24022853.796    24022856.283    -6248717.074 8   -137907.955 8
 89 11 22 14 40 59.0800000  0  4G13G12G 3G 9
  21413947.208    21413951.261   -46785393.031 9  34660509.162 8
  21166481.355    21166483.545   -87004812.419 9 113674861.145 9
  21842013.614    21842015.761   -86647647.432 9  84519314.267 8
  24046039.061    24046043.222    -6126871.371 7    -42963.452 9
 89 11 22 14 41 29.0800000  0  4G13G12G 3G 9
  21421660.790    21421665.673   -46744862.964 9  34692090.961 8
  21176514.605    21176517.606   -86952084.239 9 113715947.984 8
  21835781.317    21835783.006   -86680398.082 9  84493794.251 9
  24069251.580    24069256.789    -6004888.241 8     52088.104 8
 89 11 22 14 41 59.0800000  0  4G13G12G 3G 9
  21429399.095    21429402.075   -46704199.101 9  34723777.033 8
  21186656.512    21186660.222   -86898787.321 9 113757477.976 9
  21829590.275    21829593.037   -86712931.391 9  84468443.608 8
  24092490.875    24092495.554    -5882771.082 8    147244.118 8
 89 11 22 14 42 29.0800000  0  4G13G12G 3G 9
  21437161.932    21437164.425   -46663402.550 9  34755566.502 8
  21196907.058    21196909.470   -86844923.472 9 113799449.733 9
  21823441.022    21823442.610   -86745247.973 9  84443261.824 9
  24115754.074    24115758.207    -5760523.026 9    242502.167 8
 89 11 22 14 42 59.0800000  0  4G13G12G 3G 9
  21444950.373    21444953.739   -46622474.415 9  34787458.472 7
  21207264.062    21207267.118   -86790494.732 9 113841861.665 8
  21817332.730    21817334.568   -86777348.422 9  84418248.457 9
  24139040.827    24139045.303    -5638147.286 9    337859.670 8
 89 11 22 14 43 29.0800000  0  4G13G12G 3G 9
  21452763.459    21452766.939   -46581416.246 9  34819451.784 8
  21217728.357    21217731.641   -86735503.099 9 113884712.226 8
  21811263.825    21811266.352   -86809233.535 9  84393402.876 8
  24162352.604    24162356.944    -5515646.896 9    433314.308 8
 89 11 22 14 43 59.0800000  0  4G13G12G 3G 9
  21460601.247    21460603.295   -46540228.832 8  34851545.821 8
  21228299.612    21228302.294   -86679951.056 9 113927999.463 9
  21805238.720    21805239.485   -86840904.272 9  84368724.366 8
  24185686.179    24185690.862    -5393025.405 9    528863.340 7
 89 11 22 14 44 29.0800000  0  4G13G12G 3G 9
  21468462.406    21468466.974   -46498913.043 9  34883739.856 7
  21238977.417    21238980.368   -86623839.872 9 113971722.400 9
  21799252.389    21799254.135   -86872361.090 9  84344212.522 8
  24209043.428    24209047.167    -5270285.878 9    624504.338 8
 89 11 22 14 44 59.0800000  0  4G13G12G 3G 9
  21476349.177    21476353.688   -46457470.474 9  34916032.693 8
  21249760.798    21249764.661   -86567171.723 9 114015879.329 9
  21793306.750    21793309.040   -86903604.348 9  84319867.091 9
  24232422.442    24232425.304    -5147431.383 9    720234.916 7
 89 11 22 14 45 29.0800000  0  4G13G12G 3G 9
  21484259.420    21484263.001   -46415901.989 9  34948423.664 8
  21260651.032    21260654.602   -86509949.003 9 114060468.392 8
  21787401.645    21787404.765   -86934635.304 9  84295687.101 8
  24255822.145    24255826.062    -5024465.462 9    816052.313 8
 89 11 22 14 45 59.0800000  0  4G13G12G 3G 9
  21492192.786    21492197.097   -46374209.197 9  34980911.482 8
  21271644.969    21271648.951   -86452173.642 9 114105488.084 9
  21781536.446    21781539.896   -86965454.210 9  84271672.342 8
  24279242.861    24279246.056    -4901390.987 9    911954.296 7
 89 11 22 14 46 29.0800000  0  4G13G12G 3G 9
  21500151.482    21500155.534   -46332392.229 9  35013496.068 8
  21282744.777    21282746.974   -86393847.698 8 114150936.809 8
  21775712.749    21775715.596   -86996061.883 9  84247822.194 8
  24302683.018    24302686.957    -4778211.119 9   1007938.402 7
 89 11 22 14 46 59.0800000  0  4G13G12G 3G 9
  21508131.925    21508135.819   -46290452.808 9  35046176.059 7
  21293947.199    21293951.932   -86334973.390 9 114196812.811 9
  21769928.714    21769929.708   -87026459.272 9  84224135.884 8
  24326142.583    24326146.734    -4654929.209 8   1104001.995 8
 89 11 22 14 47 29.0800000  0  4G13G12G 3G 9
  21516135.802    21516138.724   -46248392.133 9  35078950.537 8
  21305255.229    21305257.890   -86275552.473 9 114243114.769 8
  21764184.557    21764185.430   -87056646.846 9  84200613.075 8
  24349622.477    24349626.169    -4531548.392 7   1200142.649 8
 89 11 22 14 47 59.0800000  0  4G13G12G 3G 9
  21524163.263    21524167.358   -46206211.321 9  35111818.622 7
  21316666.941    21316670.036   -86215587.266 9 114289840.820 8
  21758480.167    21758481.899   -87086625.173 9  84177253.304 9
  24373118.166    24373123.765    -4408071.784 8   1296357.926 8
 89 11 22 14 48 29.0800000  0  4G13G12G 3G 9
  21532211.179    21532214.932   -46163911.422 9  35144779.507 7
  21328180.536    21328183.226   -86155079.953 9 114336989.300 9
  21752814.128    21752817.025   -87116395.190 9  84154055.857 9
  24396632.170    24396638.918    -4284502.714 8   1392645.252 8
 89 11 22 14 48 59.0800000  0  4G13G12G 3G 9
  21540283.914    21540288.139   -46121493.777 9  35177832.134 8
  21339797.343    21339801.228   -86094032.895 9 114384558.354 8
  21747188.556    21747190.408   -87145957.293 9  84131020.430 8
  24420164.057    24420169.703    -4160844.482 9   1489002.077 8
 89 11 22 14 49 29.0800000  0  4G13G12G 3G 9
  21548378.427    21548383.210   -46078959.170 9  35210975.896 8
  21351516.617    21351520.731   -86032448.583 9 114432546.049 8
  21741601.945    21741604.907   -87175312.611 9  84108146.115 8
  24443712.416    24443717.750    -4037100.109 9   1585426.028 9
 89 11 22 14 49 59.0800000  0  4G13G12G 3G 9
  21556494.742    21556498.567   -46036308.328 9  35244210.239 7
  21363338.139    21363341.820   -85970328.870 9 114480950.943 8
  21736055.072    21736057.834   -87204461.560 9  84085432.621 9
  24467275.982    24467281.094    -3913272.620 9   1681914.715 9
 89 11 22 14 50 29.0800000  0  4G13G12G 3G 9
  21564632.500    21564636.023   -45993542.518 9  35277534.160 8
  21375260.117    21375263.486   -85907676.022 9 114529771.264 8
  21730548.386    21730550.031   -87233404.845 9  84062879.383 8
  24490855.161    24490860.527    -3789365.442 8   1778465.494 8
 89 11 22 14 50 59.0800000  0  4G13G12G 3G 9
  21572792.514    21572795.193   -45950662.567 9  35310947.012 8
  21387283.173    21387286.644   -85844492.603 9 114579005.024 9
  21725079.686    21725081.983   -87262143.332 9  84040485.717 9
  24514448.381    24514453.360    -3665381.737 9   1875075.908 8
 89 11 22 14 51 29.0800000  0  4G13G12G 3G 9
  21580973.597    21580977.578   -45907669.871 9  35344447.743 8
  21399407.186    21399411.478   -85780780.714 9 114628650.574 8
  21719649.545    21719652.120   -87290677.325 9  84018251.407 8
  24538056.542    24538062.027    -3541324.425 9   1971743.682 8
 89 11 22 14 51 59.0800000  0  4G13G12G 3G 9
  21589176.342    21589179.950   -45864565.302 9  35378035.624 8
  21411631.854    21411635.205   -85716542.765 9 114678706.039 8
  21714258.022    21714261.478   -87319007.624 9  83996175.797 9
  24561677.401    24561682.232    -3417196.880 9   2068466.171 8
 89 11 22 14 52 29.0800000  0  4G13G12G 3G 9
  21597400.577    21597403.527   -45821349.620 9  35411710.083 8
  21423955.374    21423958.691   -85651780.939 9 114729169.726 8
  21708905.999    21708908.969   -87347135.069 9  83974258.266 9
  24585310.787    24585316.558    -3293001.925 9   2165241.191 9
 89 11 22 14 52 59.0800000  0  4G13G12G 3G 9
  21605644.590    21605649.229   -45778024.037 9  35445470.185 8
  21436378.619    21436382.229   -85586497.779 9 114780039.637 9
  21703592.518    21703594.894   -87375060.291 9  83952498.299 8
  24608957.073    24608961.664    -3168743.000 9   2262066.058 8
 89 11 22 14 53 29.0800000  0  4G13G12G 3G 9
  21613910.404    21613915.129   -45734589.539 9  35479315.142 7
  21448900.282    21448904.285   -85520695.591 9 114831313.993 9
  21698316.453    21698318.807   -87402783.661 9  83930895.638 9
  24632615.351    24632619.336    -3044423.083 9   2358938.471 8
 89 11 22 14 53 59.0800000  0  4G13G12G 3G 9
  21622195.881    21622199.690   -45691047.026 9  35513244.288 7
  21461519.842    21461524.675   -85454376.761 9 114882990.918 9
  21693078.785    21693082.018   -87430306.057 9  83909449.561 9
  24656283.137    24656288.894    -2920045.365 9   2455855.920 8
 89 11 22 14 54 29.0800000  0  4G13G12G 3G 9
  21630501.852    21630507.535   -45647397.672 9  35547256.670 8
  21474238.701    21474243.606   -85387543.924 9 114935068.356 9
  21687879.527    21687881.259   -87457628.128 8  83888159.579 8
  24679963.255    24679968.166    -2795612.834 7   2552816.047 7
 89 11 22 14 54 59.0800000  0  4G13G12G 3G 9
  21638829.365    21638832.416   -45603642.075 8  35581351.855 7
  21487052.545    21487056.762   -85320199.454 9 114987544.479 8
  21682718.603    21682721.173   -87484750.804 9  83867024.973 9
  24703650.713    24703656.055    -2671128.836 7   2649816.251 8
 89 11 22 14 55 29.0800000  0  4G13G12G 3G 9
  21647174.856    21647179.710   -45559781.557 8  35615528.780 7
  21499965.797    21499970.684   -85252345.867 9 115040417.315 8
  21677595.518    21677597.385   -87511674.474 9  83846045.446 8
  24727348.190    24727354.444    -2546596.602 7   2746854.037 7
 89 11 22 14 55 59.0800000  0  4G13G12G 3G 9
  21655542.066    21655545.703   -45515816.828 9  35649786.929 8
  21512974.159    21512978.277   -85183985.192 9 115093685.280 8
  21672509.369    21672513.061   -87538399.929 9  83825220.347 8
  24751055.217    24751059.860    -2422019.086 8   2843927.119 8
 89 11 22 14 56 29.0800000  0  4G13G12G 3G 9
  21663927.478    21663931.873   -45471749.188 9  35684125.264 7
  21526079.145    21526081.935   -85115120.462 9 115147346.033 8
  21667461.517    21667463.670   -87564927.758 9  83804549.267 8
  24774769.121    24774774.988    -2297399.568 8   2941032.929 7
 89 11 22 14 56 59.0800000  0  4G13G12G 3G 9
  21672332.804    21672336.956   -45427579.170 9  35718543.364 8
  21539278.903    21539283.267   -85045754.261 9 115201397.536 9
  21662451.175    21662453.536   -87591258.845 9  83784031.481 8
  24798491.410    24798498.043    -2172741.178 9   3038169.042 8
 89 11 22 14 57 29.0800000  0  4G13G12G 3G 9
  21680757.934    21680760.212   -45383307.763 9  35753040.476 7
  21552573.634    21552576.461   -84975888.775 9 115255838.074 8
  21657477.908    21657480.254   -87617393.750 9  83763666.565 7
  24822220.031    24822226.368    -2048047.007 9   3135333.038 7
 89 11 22 14 57 59.0800000  0  4G13G12G 3G 9
  21689200.956    21689205.595   -45338935.910 9  35787615.857 6
  21565963.126    21565966.403   -84905526.687 8 115310665.595 7
  21652541.771    21652545.298   -87643333.099 8  83743454.047 8
  24845954.735    24845960.784    -1923319.951 9   3232522.653 8
 89 11 22 14 58 29.0800000  0  4G13G12G 3G 9
  21697663.889    21697669.115   -45294464.370 9  35822268.902 8
  21579447.149    21579451.860   -84834670.511 9 115365878.088 9
  21647642.305    21647644.688   -87669077.406 9  83723393.482 9
  24869696.809    24869702.026    -1798563.155 8   3329735.427 8
 89 11 22 14 58 59.0800000  0  4G13G12G 3G 9
  21706146.024    21706148.846   -45249893.919 9  35856999.048 8
  21593024.580    21593028.401   -84763322.889 9 115421473.548 9
  21642781.486    21642783.933   -87694627.354 9  83703484.378 8
  24893440.478    24893447.734    -1673779.504 8   3426969.111 8
 89 11 22 14 59 29.0800000  0  4G13G12G 3G 9
  21714645.593    21714649.259   -45205225.803 9  35891805.289 8
  21606693.707    21606698.125   -84691486.578 9 115477449.806 9
  21637955.323    21637958.300   -87719983.704 9  83683726.129 8
  24917191.337    24917197.429    -1548972.355 8   3524221.101 8
 89 11 22 14 59 59.0800000  0  4G13G12G 3G 9
  21723163.846    21723169.373   -45160460.484 9  35926687.256 8
  21620457.083    21620461.190   -84619164.402 9 115533804.647 9
  21633167.669    21633169.307   -87745146.976 9  83664118.335 8
  24940946.399    24940952.522    -1424144.723 8   3621489.040 8
 89 11 22 15  0 29.0800000  0  4G13G12G 3G 9
  21731701.390    21731705.357   -45115598.765 9  35961644.362 7
  21634311.255    21634316.320   -84546358.809 9 115590536.167 9
  21628416.153    21628417.907   -87770117.917 9  83644660.408 8
  24964703.638    24964710.584    -1299299.713 9   3718770.495 9
 89 11 22 15  0 59.0800000  0  4G13G12G 3G 9
  21740255.589    21740260.986   -45070641.805 9  35996675.668 7
  21648257.316    21648261.216   -84473072.530 9 115647642.271 9
  21623699.535    21623702.533   -87794897.414 9  83625351.648 8
  24988463.567    24988470.536    -1174440.633 9   3816062.924 9
 89 11 22 15  1 29.0800000  0  4G13G12G 3G 9
  21748829.127    21748834.311   -45025590.143 9  36031780.772 8
  21662295.337    21662299.461   -84399307.605 9 115705121.346 9
  21619021.357    21619024.011   -87819485.594 9  83606191.976 8
  25012225.837    25012233.542    -1049569.979 9   3913364.343 9
 89 11 22 15  1 59.0800000  0  4G13G12G 3G 9
  21757420.557    21757425.597   -44980445.000 9  36066958.729 7
  21676422.147    21676425.889   -84325066.865 9 115762971.175 9
  21614378.669    21614381.602   -87843883.460 9  83587180.590 8
  25035990.006    25035997.247     -924691.268 9   4010672.047 9
 89 11 22 15  2 29.0800000  0  4G13G12G 3G 9
  21766028.444    21766033.513   -44935207.005 9  36102209.025 7
  21690640.599    21690643.802   -84250353.161 9 115821189.554 8
  21609772.257    21609773.788   -87868091.610 9  83568317.046 7
  25059754.309    25059761.973     -799807.419 8   4107983.757 8
 89 11 22 15  2 59.0800000  0  4G13G12G 3G 9
  21774655.016    21774659.755   -44889876.593 9  36137531.341 8
  21704946.934    21704951.581   -84175169.423 9 115879774.188 8
  21605201.788    21605203.434   -87892110.597 9  83549600.893 8
  25083520.779    25083526.234     -674921.455 8   4205297.127 8
 89 11 22 15  3 29.0800000  0  4G13G12G 3G 9
  21783299.327    21783302.951   -44844455.006 9  36172924.689 8
  21719342.628    21719347.311   -84099518.484 9 115938722.874 9
  21600665.531    21600670.224   -87915941.047 9  83531031.651 8
  25107284.790    25107292.224     -550036.501 6   4302609.669 7
 89 11 22 15  3 59.0800000  0  4G13G12G 3G 9
  21791958.842    21791963.281   -44798942.890 9  36208388.591 8
  21733827.983    21733829.933   -84023403.250 9 115998033.348 8
  21596166.968    21596170.031   -87939583.630 9  83512608.808 8
  25131048.974    25131057.722     -425155.463 7   4399919.105 8
 89 11 22 15  4 29.0800000  0  4G13G12G 3G 9
  21800636.013    21800641.267   -44753341.210 8  36243922.272 8
  21748399.483    21748403.779   -83946826.439 9 116057703.476 9
  21591704.172    21591707.577   -87963039.310 9  83494331.600 8
  25154811.113    25154820.038     -300281.488 8   4497223.080 7
 89 11 22 15  4 59.0800000  0  4G13G12G 3G 9
  21809331.180    21809335.304   -44707650.330 9  36279525.459 8
  21763058.786    21763062.064   -83869791.086 9 116117730.916 8
  21587276.156    21587279.083   -87986308.319 9  83476199.835 9
  25178573.953    25178581.116     -175417.715 8   4594519.122 6
 89 11 22 15  5 29.0800000  0  4G13G12G 3G 9
  21818043.059    21818049.116   -44661871.531 9  36315197.158 8
  21777803.760    21777808.983   -83792299.764 9 116178113.645 9
  21582883.756    21582886.761   -88009391.168 9  83458213.141 8
  25202332.460    25202339.929      -50567.041 9   4691804.977 7
 89 11 22 15  5 59.0800000  0  4G13G12G 3G 9
  21826771.335    21826776.018   -44616005.236 9  36350937.027 8
  21792637.190    21792641.379   -83714355.642 9 116238849.217 8
  21578526.690    21578529.108   -88032288.897 9  83440370.693 8
  25226088.178    25226095.334       74267.502 9   4789078.237 7
 89 11 22 15  6 29.0800000  0  4G13G12G 3G 9
  21835515.967    21835521.621   -44570052.094 8  36386744.585 8
  21807554.228    21807559.118   -83635961.240 8 116299935.662 9
  21574205.552    21574208.177   -88055001.622 9  83422672.396 8
  25249840.195    25249846.828      199082.997 9   4886336.654 8
 89 11 22 15  6 59.0800000  0  4G13G12G 3G 9
  21844276.743    21844281.598   -44524012.902 9  36422619.171 8
  21822557.918    21822562.261   -83557118.990 9 116361371.055 8
  21569917.541    21569919.365   -88077530.312 9  83405117.511 8
  25273588.696    25273595.116      323876.430 9   4983577.843 7
 89 11 22 15  7 29.0800000  0  4G13G12G 3G 9
  21853053.846    21853059.545   -44477888.502 9  36458560.151 7
  21837647.102    21837650.661   -83477831.825 9 116423153.167 8
  21565664.917    21565668.179   -88099875.568 9  83387705.562 8
  25297330.601    25297338.321      448644.805 9   5080799.501 8
 89 11 22 15  7 59.0800000  0  4G13G12G 3G 9
  21861848.150    21861852.475   -44431679.342 9  36494567.186 8
  21852817.426    21852822.423   -83398102.761 9 116485279.585 8
  21561448.421    21561450.710   -88122037.825 9  83370436.216 8
  25321068.166    25321076.973      573385.139 8   5177999.310 8
 89 11 22 15  8 29.0800000  0  4G13G12G 3G 9
  21870657.554    21870662.424   -44385386.563 9  36530639.368 8
  21868073.802    21868076.677   -83317935.206 9 116547747.691 8
  21557265.152    21557268.079   -88144017.827 9  83353308.873 8
  25344800.033    25344808.884      698094.242 9   5275174.753 8
 89 11 22 15  8 59.0800000  0  4G13G12G 3G 9
  21879482.804    21879485.969   -44339009.916 9  36566776.931 7
  21883412.407    21883417.154   -83237331.726 9 116610555.505 8
  21553116.407    21553120.994   -88165816.037 9  83336323.206 8
  25368525.213    25368533.667      822769.302 8   5372323.670 8
 89 11 22 15  9 29.0800000  0  4G13G12G 3G 9
  21888322.886    21888327.755   -44292550.596 8  36602978.871 7
  21898833.358    21898837.904   -83156294.966 9 116673700.896 8
  21549004.011    21549007.582   -88187432.989 9  83319478.767 8
  25392243.538    25392251.480      947407.493 7   5469443.839 8
 89 11 22 15  9 59.0800000  0  4G13G12G 3G 9
  21897180.090    21897184.600   -44246009.897 9  36639244.235 8
  21914336.058    21914340.551   -83074828.452 9 116737181.183 8
  21544924.264    21544927.363   -88208869.817 9  83302774.696 8
  25415954.080    25415962.914     1072005.441 7   5566532.624 7
 89 11 22 15 10 29.0800000  0  4G13G12G 3G 9
  21906052.229    21906056.768   -44199388.147 9  36675572.752 8
  21929919.396    21929923.635   -82992935.074 9 116800994.088 9
  21540879.968    21540883.818   -88230126.761 9  83286210.787 8
  25439654.685    25439665.435     1196560.362 8   5663587.890 8
 89 11 22 15 10 59.0800000  0  4G13G12G 3G 9
  21914939.086    21914943.138   -44152685.884 8  36711964.004 8
  21945585.090    21945589.657   -82910617.550 9 116865137.495 9
  21536869.059    21536872.680   -88251204.320 9  83269786.666 8
  25463350.325    25463358.894     1321069.439 8   5760607.457 8
 89 11 22 15 11 29.0800000  0  4G13G12G 3G 9
  21923842.126    21923846.780   -44105903.646 9  36748417.574 8
  21961329.276    21961335.107   -82827878.865 9 116929609.069 8
  21532891.587    21532894.979   -88272103.101 8  83253501.857 7
  25487034.484    25487042.380     1445529.409 8   5857588.767 7
 89 11 22 15 11 59.0800000  0  4G13G12G 3G 9
  21932758.424    21932763.994   -44059042.327 9  36784932.750 8
  21977153.846    21977156.919   -82744722.030 9 116994406.488 8
  21528949.609    21528951.597   -88292823.975 9  83237355.682 8
  25510708.695    25510718.824     1569937.547 9   5954529.673 7
 89 11 22 15 12 29.0800000  0  4G13G12G 3G 9
  21941691.867    21941696.177   -44012102.198 9  36821509.348 7
  21993057.119    21993061.354   -82661150.164 9 117059527.297 8
  21525039.728    21525042.368   -88313367.049 9  83221348.041 8
  25534372.872    25534382.124     1694290.825 9   6051427.834 8
 89 11 22 15 12 59.0800000  0  4G13G12G 3G 9
  21950639.585    21950642.937   -43965083.528 9  36858147.146 8
  22009037.804    22009043.137   -82577165.906 9 117124969.431 9
  21521164.745    21521168.000   -88333733.147 9  83205478.301 8
  25558025.376    25558035.054     1818586.601 8   6148281.192 8
 89 11 22 15 13 29.0800000  0  4G13G12G 3G 9
  21959601.475    21959605.799   -43917987.414 8  36894845.290 8
  22025098.345    22025102.996   -82492772.593 9 117190730.308 9
  21517322.569    21517326.182   -88353922.469 9  83189746.308 8
  25581666.152    25581675.928     1942821.854 8   6245087.362 8
 89 11 22 15 13 59.0800000  0  4G13G12G 3G 9
  21968576.951    21968583.823   -43870814.383 9  36931603.353 7
  22041235.827    22041241.454   -82407973.368 9 117256807.503 9
  21513515.265    21513517.133   -88373936.139 9  83174151.195 8
  25605298.137    25605306.118     2066993.557 8   6341844.023 7
 89 11 22 15 14 29.0800000  0  4G13G12G 3G 9
  21977570.344    21977574.884   -43823564.979 8  36968420.950 7
  22057447.610    22057453.810   -82322771.108 9 117323198.696 9
  21509739.423    21509741.012   -88393774.407 9  83158692.763 8
  25628913.032    25628923.605     2191098.945 8   6438548.972 7
 89 11 22 15 14 59.0800000  0  4G13G12G 3G 9
  21986574.815    21986580.142   -43776239.904 9  37005297.499 7
  22073738.914    22073743.493   -82237168.760 9 117389901.699 9
  21505997.108    21506000.149   -88413437.628 9  83143370.710 7
  25652517.595    25652527.501     2315135.001 7   6535199.917 8
 89 11 22 15 15 29.0800000  0  4G13G12G 3G 9
  21995595.485    21995600.281   -43728839.452 9  37042232.801 8
  22090102.877    22090108.980   -82151169.383 9 117456914.069 8
  21502289.189    21502292.731   -88432926.512 9  83128184.507 8
  25676108.370    25676118.169     2439099.076 8   6631794.776 8
 89 11 22 15 15 59.0800000  0  4G13G12G 3G 9
  22004629.888    22004634.842   -43681364.179 9  37079226.383 8
  22106544.243    22106548.347   -82064776.036 9 117524233.406 8
  21498614.283    21498617.209   -88452241.554 9  83113133.773 8
  25699681.161    25699692.827     2562988.242 8   6728331.262 8
 89 11 22 15 16 29.0800000  0  4G13G12G 3G 9
  22013678.719    22013683.014   -43633814.655 8  37116277.844 8
  22123058.633    22123063.205   -81977991.954 9 117591857.239 8
  21494969.759    21494974.523   -88471383.498 9  83098217.918 8
  25723244.561    25723253.444     2686799.453 8   6824807.021 6
 89 11 22 15 16 59.0800000  0  4G13G12G 3G 9
  22022740.415    22022745.256   -43586191.336 9  37153386.781 8
  22139646.234    22139650.856   -81890820.555 9 117659782.877 8
  21491360.885    21491363.218   -88490352.461 9  83083436.852 8
  25746789.785    25746800.375     2810529.792 9   6921219.732 8
 89 11 22 15 17 29.0800000  0  4G13G12G 3G 9
  22031817.239    22031822.064   -43538494.854 9  37190552.744 7
  22156308.129    22156312.995   -81803264.687 9 117728008.089 8
  21487784.348    21487788.290   -88509149.301 9  83068789.901 8
  25770319.194    25770329.633     2934176.683 8   7017567.445 8
 89 11 22 15 17 59.0800000  0  4G13G12G 3G 9
  22040908.016    22040912.341   -43490725.698 9  37227775.340 8
  22173042.600    22173046.825   -81715327.269 8 117796530.597 8
  21484239.936    21484243.348   -88527774.750 9  83054276.523 9
  25793831.818    25793842.969     3057736.848 9   7113847.559 8
 89 11 22 15 18 29.0800000  0  4G13G12G 3G 9
  22050010.243    22050015.970   -43442884.673 9  37265053.936 8
  22189846.319    22189852.726   -81627011.514 8 117865347.899 8
  21480728.649    21480731.216   -88546228.978 9  83039896.527 7
  25817328.604    25817338.911     3181207.754 9   7210058.110 6
 89 11 22 15 18 59.0800000  0  4G13G12G 3G 9
  22059128.725    22059133.437   -43394972.148 9  37302388.248 8
  22206724.691    22206730.418   -81538320.890 9 117934457.351 8
  21477248.039    21477252.418   -88564512.678 8  83025649.422 9
  25840806.998    25840819.051     3304586.509 9   7306196.828 6
 89 11 22 15 19 29.0800000  0  4G13G12G 3G 9
  22068259.032    22068265.059   -43346988.682 9  37339777.845 8
  22223672.466    22223679.035   -81449258.058 9 118003856.781 9
  21473802.041    21473805.919   -88582626.125 8  83011534.985 8
  25864267.433    25864277.842     3427870.147 9   7402261.448 6
 89 11 22 15 19 59.0800000  0  4G13G12G 3G 9
  22077404.131    22077409.070   -43298934.414 9  37377222.604 8
  22240691.222    22240697.544   -81359826.713 9 118073543.379 8
  21470386.970    21470391.764   -88600570.046 9  82997552.638 7
  25887709.393    25887722.030     3551055.824 9   7498249.699 5
 89 11 22 15 20 29.0800000  0  4G13G12G 3G 9
  22086562.445    22086566.513   -43250810.087 9  37414721.951 8
  22257779.777    22257784.821   -81270029.817 9 118143514.863 8
  21467005.363    21467008.697   -88618344.998 9  82983701.959 8
  25911132.049    25911143.793     3674140.698 9   7594159.458 2
 89 11 22 15 20 59.0800000  0  4G13G12G 3G 9
  22095733.955    22095739.125   -43202615.976 9  37452275.667 8
  22274936.008    22274941.864   -81179870.465 8 118213768.744 9
  21463653.781    21463657.730   -88635951.086 9  82969982.857 8
  25934535.735    25934547.069     3797122.264 8   7689988.711 5
 89 11 22 15 21 29.0800000  0  4G13G12G 3G 9
  22104917.322    22104921.288   -43154352.723 9  37489883.281 8
  22292161.908    22292166.370   -81089352.260 9 118284302.263 8
  21460336.907    21460339.512   -88653389.229 9  82956394.621 8
  25957918.239    25957929.845     3919997.389 6   7785734.933 6
 89 11 22 15 21 59.0800000  0  4G13G12G 3G 9
  22114113.846    22114119.873   -43106020.523 9  37527544.607 8
  22309455.608    22309459.640   -80998478.131 9 118355113.153 8
  21457050.586    21457052.503   -88670659.756 9  82942937.002 8
  25981280.635    25981294.205     4042763.428 7   7881396.126 7
 89 11 22 15 22 29.0800000  0  4G13G12G 3G 9
  22123325.199    22123330.194   -43057619.862 9  37565259.284 8
  22326814.882    22326818.852   -80907251.246 9 118426198.887 8
  21453795.669    21453799.362   -88687763.155 9  82929609.598 8
  26004616.236    26004633.243     4165417.886 3   7976970.301 6
 89 11 22 15 22 59.0800000  0  4G13G12G 3G 9
  22132548.959    22132554.543   -43009151.032 9  37603027.078 8
  22344242.086    22344247.295   -80815674.661 9 118497557.112 8
  21450572.461    21450575.424   -88704699.753 9  82916412.176 8
  26027936.606    26027951.069     4287957.851 3   8072455.230 7
 89 11 22 15 23 29.0800000  0  4G13G12G 3G 9
  22141785.207    22141790.218   -42960614.627 9  37640847.535 8
  22361733.204    22361738.852   -80723751.709 8 118569185.232 8
  21447380.509    21447385.381   -88721470.064 9  82903344.336 9
  26051236.558    26051249.105     4410380.451 5   8167848.740 7
 89 11 22 15 23 59.0800000  0  4G13G12G 3G 9
  22151034.528    22151040.842   -42912010.978 8  37678720.381 8
  22379291.001    22379297.211   -80631485.897 9 118641080.487 9
  21444221.540    21444225.496   -88738074.558 9  82890405.708 9
  26074510.567    26074523.035     4532682.889 6   8263148.673 8
 89 11 22 15 24 29.0800000  0  4G13G12G 3G 9
  22160294.925    22160301.569   -42863339.633 8  37716645.995 8
  22396914.182    22396919.208   -80538879.902 9 118713240.839 8
  21441093.406    21441097.498   -88754513.515 9  82877596.053 8
  26097759.246    26097774.239     4654862.895 6   8358353.178 8
 89 11 22 15 24 59.0800000  0  4G13G12G 3G 9
  22169570.159    22169577.215   -42814601.669 9  37754623.514 8
  22414599.664    22414606.836   -80445937.265 9 118785663.481 9
  21437996.059    21438000.351   -88770787.489 9  82864914.966 8
  26120988.269    26121001.352     4776917.314 7   8453459.848 9
 89 11 22 15 25 29.0800000  0  4G13G12G 3G 9
  22178857.848    22178862.374   -42765798.006 9  37792652.242 7
  22432350.251    22432355.714   -80352661.425 9 118858345.792 9
  21434931.680    21434934.426   -88786896.785 9  82852362.207 8
  26144190.077    26144203.664     4898843.732 7   8548466.777 8
 89 11 22 15 25 59.0800000  0  4G13G12G 3G 9
  22188157.400    22188162.912   -42716929.134 8  37830731.770 8
  22450163.913    22450168.863   -80259055.428 9 118931285.387 9
  21431896.419    21431899.973   -88802842.131 9  82839937.191 8
  26167367.962    26167380.756     5020639.080 8   8643371.590 8
 89 11 22 15 26 29.0800000  0  4G13G12G 3G 9
  22197468.659    22197474.084   -42667994.511 8  37868862.546 8
  22468038.020    22468043.756   -80165122.819 8 119004479.450 8
  21428893.342    21428897.277   -88818623.758 9  82827639.739 9
  26190519.512    26190533.171     5142300.987 8   8738172.484 8
 89 11 22 15 26 59.0800000  0  4G13G12G 3G 9
  22206793.444    22206798.742   -42618994.654 9  37907044.135 7
  22485974.443    22485979.913   -80070866.571 9 119077925.704 9
  21425921.551    21425925.056   -88834242.032 9  82815469.581 7
  26213645.512    26213658.066     5263826.736 9   8832867.316 8
 89 11 22 15 27 29.0800000  0  4G13G12G 3G 9
  22216131.232    22216134.869   -42569929.890 9  37945276.329 8
  22503972.561    22503976.571   -79976289.802 9 119151621.752 8
  21422979.805    21422984.026   -88849697.455 9  82803426.328 8
  26236746.112    26236758.998     5385213.785 9   8927454.080 8
 89 11 22 15 27 59.0800000  0  4G13G12G 3G 9
  22225480.830    22225485.226   -42520799.209 9  37983559.863 8
  22522029.691    22522035.522   -79881394.608 8 119225565.885 8
  21420070.669    21420075.005   -88864989.202 9  82791510.614 8
  26259818.917    26259832.079     5506460.617 9   9021931.616 9
 89 11 22 15 28 29.0800000  0  4G13G12G 3G 9
  22234841.449    22234847.391   -42471603.855 9  38021893.775 8
  22540148.391    22540154.978   -79786185.381 9 119299754.713 8
  21417191.932    21417196.197   -88880118.216 9  82779721.689 9
  26282864.081    26282877.836     5627563.865 9   9116297.286 8
 89 11 22 15 28 59.0800000  0  4G13G12G 3G 9
  22244216.009    22244222.665   -42422344.783 9  38060277.355 8
  22558324.816    22558330.429   -79690665.714 9 119374185.468 8
  21414343.959    21414346.936   -88895085.361 9  82768058.913 9
  26305881.642    26305895.608     5748520.486 9   9210548.733 9
 89 11 22 15 29 29.0800000  0  4G13G12G 3G 9
  22253602.098    22253606.394   -42373021.608 9  38098710.891 8
  22576559.604    22576566.129   -79594838.702 8 119448855.699 8
  21411526.383    21411530.468   -88909891.110 9  82756521.901 9
  26328870.411    26328884.027     5869328.122 9   9304684.100 8
 89 11 22 15 29 59.0800000  0  4G13G12G 3G 9
  22262999.379    22263006.092   -42323634.639 9  38137194.100 8
  22594853.688    22594859.651   -79498707.687 8 119523762.801 8
  21408739.768    21408743.517   -88924536.011 9  82745110.222 8
  26351830.599    26351845.270     5989983.647 9   9398700.926 8
 89 11 22 15 30 29.0800000  0  4G13G12G 3G 9
  22272409.616    22272415.086   -42274185.221 9  38175725.986 8
  22613203.961    22613209.555   -79402276.462 8 119598903.841 8
  21405984.239    21405987.050   -88939020.621 9  82733823.458 8
  26374761.450    26374775.639     6110484.191 9   9492597.043 8
 89 11 22 15 30 59.0800000  0  4G13G12G 3G 9
  22281832.367    22281837.307   -42224672.519 9  38214307.173 8
  22631610.115    22631616.301   -79305548.056 9 119674276.421 9
  21403257.581    21403261.573   -88953345.457 9  82722661.169 8
  26397662.967    26397678.755     6230828.032 5   9586371.042 2
 89 11 22 15 31 29.0800000  0  4G13G12G 3G 9
  22291265.188    22291271.831   -42175097.522 9  38252936.902 8
  22650073.956    22650079.122   -79208525.862 9 119749877.954 8
  21400561.261    21400565.260   -88967510.162 8  82711623.680 8
                                -130136368.868 1   9774523.118 1
 89 11 22 15 31 59.0800000  0  4G13G12G 3G 9
  22300711.723    22300717.507   -42125459.882 9  38291615.453 8
  22668591.712    22668597.188   -79111213.172 9 119825705.870 8
  21397897.334    21397900.947   -88981515.408 9  82700710.439 9
                                -130295272.818 1  10002518.118 1
 89 11 22 15 32 29.0800000  0  4G13G12G 3G 9
  22310170.074    22310175.014   -42075760.596 9  38330342.032 8
  22687164.697    22687171.037   -79013613.559 9 119901757.312 9
  21395261.911    21395264.894   -88995361.881 9  82689920.912 8
                                -130406609.643 1  10230513.118 1
 89 11 22 15 32 59.0800000  0  4G13G12G 3G 9
  22319638.724    22319644.036   -42025999.755 8  38369116.573 8
  22705791.106    22705796.466   -78915730.489 9 119978029.655 8
  21392657.215    21392662.444   -89009049.751 9  82679254.981 8
                                -130658544.749 1  10458508.118 1
 89 11 22 15 33 29.0800000  0  4G13G12G 3G 9
  22329119.573    22329125.370   -41976177.421 9  38407939.035 8
  22724472.134    22724477.467   -78817566.911 9 120054520.589 8
  21390083.251    21390086.300   -89022579.396 9  82668712.345 8
                                -130541551.213 1  10686503.118 1
 89 11 22 15 33 59.0800000  0  4G13G12G 3G 9
  22338612.230    22338618.072   -41926293.440 9  38446809.532 8
  22743203.462    22743210.445   -78719125.946 9 120131227.642 9
  21387537.757    21387542.751   -89035950.839 9  82658292.989 8
                                -130426851.578 1  10914498.118 1
 89 11 22 15 34 29.0800000  0  4G13G12G 3G 9
  22348117.200    22348121.410   -41876348.151 8  38485727.773 7
  22761988.941    22761995.748   -78620411.080 9 120208148.103 9
  21385024.866    21385028.923   -89049164.096 9  82647996.885 9
                                -130994913.973 1  11142493.118 1
 89 11 22 15 34 59.0800000  0  4G13G12G 3G 9
  22357631.417    22357638.445   -41826342.286 9  38524693.245 8
  22780825.471    22780832.006   -78521426.024 9 120285279.132 9
  21382539.850    21382543.148   -89062220.162 9  82637823.271 8
                                -130882925.562 1  11370488.118 1
 89 11 22 15 35 29.0800000  0  4G13G12G 3G 9
  22367159.562    22367166.119   -41776275.818 8  38563705.933 8
  22799712.498    22799718.734   -78422174.002 9 120362618.177 9
  21380085.365    21380088.892   -89075119.288 9  82627771.940 9
                                -131414140.766 1  11598483.118 1
 89 11 22 15 35 59.0800000  0  4G13G12G 3G 9
  22376698.274    22376705.060   -41726148.907 9  38602765.714 9
  22818648.833    22818657.258   -78322658.609 8 120440162.424 8
  21377660.228    21377663.039   -89087862.057 9  82617842.451 8
                                -131299115.879 1  11826478.118 1
 89 11 22 15 36 29.0800000  0  4G13G12G 3G 9
  22386248.857    22386255.314   -41675961.843 9  38641872.367 8
  22837636.255    22837643.671   -78222883.014 9 120517909.425 8
  21375264.823    21375269.524   -89100448.691 9  82608034.605 8
                                -131864366.796 1  12054473.118 1
 89 11 22 15 36 59.0800000  0  4G13G12G 3G 9
  22395810.692    22395817.149   -41625714.061 9  38681026.336 9
  22856672.268    22856680.796   -78122850.507 8 120595856.613 8
  21372900.280    21372903.879   -89112878.974 9  82598348.609 9
                                -131749500.464 1  12282468.118 1
 89 11 22 15 37 29.0800000  0  4G13G12G 3G 9
  22405384.601    22405390.257   -41575406.411 8  38720226.960 8
  22875755.022    22875761.779   -78022564.384 8 120674001.445 8
  21370564.665    21370567.977   -89125153.377 9  82588784.083 8
                                -132287578.787 1  12510463.118 1
